[[{"header":{"parameterUnit":"m.s-1","parameterCategory":1,"la1":30.6,"la2":29.2853,"lo1":-89.7004,"lo2":-87.6739,"dy":0.0162,"dx":0.0183,"nx":112,"ny":82,"refTime":"2024-05-23T06:00:00:Z","depth":0,"parameterNumber":2,"parameterNumberName":"U-component_of_WINDS"},"data":[0.0,0.0,0.0,0.0,0.0,0.0,0.0,0.0,0.0,0.0,0.0,0.0,0.0,0.0,0.0,0.0,0.0,0.0,0.0,0.0,0.0,0.0,0.0,0.0,0.0,0.0,0.0,0.0,0.0,0.0,0.0,0.0,0.0,0.0,0.0,0.0,0.0,0.0,0.0,0.0,0.0,0.0,0.0,0.0,0.0,0.0,0.0,0.0,0.0,0.0,0.0,0.0,0.0,0.0,0.0,0.0,0.0,0.0,0.0,0.0,0.0,0.0,0.0,0.0,0.0,0.0,0.0,0.0,0.0,0.0,0.0,0.0,0.0,0.0,0.0,0.0,0.0,0.0,0.0,0.0,0.0,0.0,0.0,0.0,0.0,0.0,0.0,0.0,0.0,0.0,-5.8068,-5.9387,-6.1823,-6.3345,-6.3345,-6.3345,-6.1694,-5.7918,0.0,0.0,0.0,0.0,0.0,0.0,0.0,0.0,0.0,0.0,0.0,0.0,0.0,0.0,0.0,0.0,0.0,0.0,0.0,0.0,0.0,0.0,0.0,0.0,0.0,0.0,0.0,0.0,0.0,0.0,0.0,0.0,0.0,0.0,0.0,0.0,0.0,0.0,0.0,0.0,0.0,0.0,0.0,0.0,0.0,0.0,0.0,0.0,0.0,0.0,0.0,0.0,0.0,0.0,0.0,0.0,0.0,0.0,0.0,0.0,0.0,0.0,0.0,0.0,0.0,0.0,0.0,0.0,0.0,0.0,0.0,0.0,0.0,0.0,0.0,0.0,0.0,0.0,0.0,0.0,0.0,0.0,0.0,0.0,0.0,0.0,0.0,0.0,0.0,0.0,0.0,0.0,0.0,0.0,0.0,0.0,0.0,0.0,0.0,0.0,0.0,0.0,0.0,0.0,-5.7543,-6.145,-6.2279,-6.2567,-6.2567,-6.2567,-6.0869,-5.6895,0.0,0.0,0.0,0.0,0.0,0.0,0.0,0.0,0.0,0.0,0.0,0.0,0.0,0.0,0.0,0.0,0.0,0.0,0.0,0.0,0.0,0.0,0.0,0.0,0.0,0.0,0.0,0.0,0.0,0.0,0.0,0.0,0.0,0.0,0.0,0.0,0.0,0.0,0.0,0.0,0.0,0.0,0.0,0.0,0.0,0.0,0.0,0.0,0.0,0.0,0.0,0.0,0.0,0.0,0.0,0.0,0.0,0.0,0.0,0.0,0.0,0.0,0.0,0.0,0.0,0.0,0.0,0.0,0.0,0.0,0.0,0.0,0.0,0.0,0.0,0.0,0.0,0.0,0.0,0.0,0.0,0.0,0.0,0.0,0.0,0.0,0.0,0.0,0.0,0.0,0.0,0.0,0.0,0.0,0.0,0.0,0.0,0.0,0.0,0.0,0.0,0.0,0.0,-5.6934,-5.8304,-6.1992,-6.2381,-6.2381,-6.2381,-6.2381,-6.0673,-5.663,-5.4913,0.0,0.0,0.0,0.0,0.0,0.0,0.0,0.0,0.0,0.0,0.0,0.0,0.0,0.0,0.0,0.0,0.0,0.0,0.0,0.0,0.0,0.0,0.0,0.0,0.0,0.0,0.0,0.0,0.0,0.0,0.0,0.0,0.0,0.0,0.0,0.0,0.0,0.0,0.0,0.0,0.0,0.0,0.0,0.0,0.0,0.0,0.0,0.0,0.0,0.0,0.0,0.0,0.0,0.0,0.0,0.0,0.0,0.0,0.0,0.0,0.0,0.0,0.0,0.0,0.0,0.0,0.0,0.0,0.0,0.0,0.0,0.0,0.0,0.0,0.0,0.0,0.0,0.0,0.0,0.0,0.0,0.0,0.0,0.0,0.0,0.0,0.0,0.0,0.0,0.0,0.0,0.0,0.0,0.0,0.0,0.0,0.0,0.0,0.0,0.0,0.0,0.0,-5.8643,-5.9827,-6.2144,-6.2381,-6.2285,-6.1991,-6.1542,-5.9593,-5.5593,-5.31,0.0,0.0,0.0,0.0,0.0,0.0,0.0,0.0,0.0,0.0,0.0,0.0,0.0,0.0,0.0,0.0,0.0,0.0,0.0,0.0,0.0,0.0,0.0,0.0,0.0,0.0,0.0,0.0,0.0,0.0,0.0,0.0,0.0,0.0,0.0,0.0,0.0,0.0,0.0,0.0,0.0,0.0,0.0,0.0,0.0,0.0,0.0,0.0,0.0,0.0,0.0,0.0,0.0,0.0,0.0,0.0,0.0,0.0,0.0,0.0,0.0,0.0,0.0,0.0,0.0,0.0,0.0,0.0,0.0,0.0,0.0,0.0,0.0,0.0,0.0,0.0,0.0,0.0,0.0,0.0,0.0,0.0,0.0,0.0,0.0,0.0,0.0,0.0,0.0,0.0,0.0,0.0,0.0,0.0,0.0,0.0,0.0,0.0,0.0,0.0,0.0,0.0,-5.9522,-6.2161,-6.2364,-6.2381,-6.1951,-6.0812,-5.9025,-5.6327,-5.2562,-4.9872,0.0,0.0,0.0,0.0,0.0,0.0,0.0,0.0,0.0,0.0,0.0,0.0,0.0,0.0,0.0,0.0,0.0,0.0,0.0,0.0,0.0,0.0,0.0,0.0,0.0,0.0,0.0,0.0,0.0,0.0,0.0,0.0,0.0,0.0,0.0,0.0,0.0,0.0,0.0,0.0,0.0,0.0,0.0,0.0,0.0,0.0,0.0,0.0,0.0,0.0,0.0,0.0,0.0,0.0,0.0,0.0,0.0,0.0,0.0,0.0,0.0,0.0,0.0,0.0,0.0,0.0,0.0,0.0,0.0,0.0,0.0,0.0,0.0,0.0,0.0,0.0,0.0,0.0,0.0,0.0,0.0,0.0,0.0,0.0,0.0,0.0,0.0,0.0,0.0,0.0,0.0,0.0,0.0,0.0,0.0,0.0,0.0,0.0,0.0,0.0,0.0,0.0,-5.7983,-6.03,-6.2195,-6.2381,-6.1894,-6.0686,-5.9515,-5.6905,-5.2289,0.0,0.0,0.0,0.0,0.0,0.0,0.0,0.0,0.0,0.0,0.0,0.0,0.0,0.0,0.0,0.0,0.0,0.0,0.0,0.0,0.0,0.0,0.0,0.0,0.0,0.0,0.0,0.0,0.0,0.0,0.0,0.0,0.0,0.0,0.0,0.0,0.0,0.0,0.0,0.0,0.0,0.0,0.0,0.0,0.0,0.0,0.0,0.0,0.0,0.0,0.0,0.0,0.0,0.0,0.0,0.0,0.0,0.0,0.0,0.0,0.0,0.0,0.0,0.0,0.0,0.0,0.0,0.0,0.0,0.0,0.0,0.0,0.0,0.0,0.0,0.0,0.0,0.0,0.0,0.0,0.0,0.0,0.0,0.0,0.0,0.0,0.0,0.0,0.0,0.0,0.0,0.0,0.0,0.0,0.0,0.0,0.0,0.0,0.0,0.0,0.0,0.0,-5.4869,-5.7358,-5.9544,-6.1108,-6.1578,-6.1077,-5.9285,-5.7946,-5.5389,-5.1079,0.0,0.0,0.0,0.0,0.0,0.0,0.0,0.0,0.0,0.0,0.0,0.0,0.0,0.0,0.0,0.0,0.0,0.0,0.0,0.0,0.0,0.0,0.0,0.0,0.0,0.0,0.0,0.0,0.0,0.0,0.0,0.0,0.0,0.0,0.0,0.0,0.0,0.0,0.0,0.0,0.0,0.0,0.0,0.0,0.0,0.0,0.0,0.0,0.0,0.0,0.0,0.0,0.0,0.0,0.0,0.0,0.0,0.0,0.0,0.0,0.0,0.0,0.0,0.0,0.0,0.0,0.0,0.0,0.0,0.0,0.0,0.0,0.0,0.0,0.0,0.0,0.0,0.0,0.0,0.0,0.0,0.0,0.0,0.0,0.0,0.0,0.0,0.0,0.0,0.0,0.0,0.0,0.0,0.0,0.0,0.0,0.0,0.0,0.0,0.0,0.0,0.0,-5.3844,-5.8201,-6.0598,-5.8972,-5.9887,-5.9361,-5.6249,-5.3548,-5.0946,0.0,0.0,0.0,0.0,0.0,0.0,0.0,0.0,0.0,0.0,0.0,0.0,0.0,0.0,0.0,0.0,0.0,0.0,0.0,0.0,0.0,0.0,0.0,0.0,0.0,0.0,0.0,0.0,0.0,0.0,0.0,0.0,0.0,0.0,0.0,0.0,0.0,0.0,0.0,0.0,0.0,0.0,0.0,0.0,0.0,0.0,0.0,0.0,0.0,0.0,0.0,0.0,0.0,0.0,0.0,0.0,0.0,0.0,0.0,0.0,0.0,0.0,0.0,0.0,0.0,0.0,0.0,0.0,0.0,0.0,0.0,0.0,0.0,0.0,0.0,0.0,0.0,0.0,0.0,0.0,0.0,0.0,0.0,0.0,0.0,0.0,0.0,0.0,0.0,0.0,0.0,0.0,0.0,0.0,0.0,0.0,0.0,0.0,0.0,0.0,0.0,0.0,0.0,-5.2992,-5.6008,-5.8264,-5.8729,-5.9125,-5.8435,-5.6202,-5.4417,-5.1946,-4.8505,0.0,0.0,0.0,0.0,0.0,0.0,0.0,0.0,0.0,0.0,0.0,0.0,0.0,0.0,0.0,0.0,0.0,0.0,0.0,0.0,0.0,0.0,0.0,0.0,0.0,0.0,0.0,0.0,0.0,0.0,0.0,0.0,0.0,0.0,0.0,0.0,0.0,0.0,0.0,0.0,0.0,0.0,0.0,0.0,0.0,0.0,0.0,0.0,0.0,0.0,0.0,0.0,0.0,0.0,0.0,0.0,0.0,0.0,0.0,0.0,0.0,0.0,0.0,0.0,0.0,0.0,0.0,0.0,0.0,0.0,0.0,0.0,0.0,0.0,0.0,0.0,0.0,0.0,0.0,0.0,0.0,0.0,0.0,0.0,0.0,0.0,0.0,0.0,0.0,0.0,0.0,0.0,0.0,0.0,0.0,0.0,0.0,0.0,0.0,0.0,0.0,0.0,-5.1038,-5.439,-5.6781,-5.6934,-5.765,-5.7229,-5.5063,-5.3881,-5.1759,-4.8116,0.0,0.0,0.0,0.0,0.0,0.0,0.0,0.0,0.0,0.0,0.0,0.0,0.0,0.0,0.0,0.0,0.0,0.0,0.0,0.0,0.0,0.0,0.0,0.0,0.0,0.0,0.0,0.0,0.0,0.0,0.0,0.0,0.0,0.0,0.0,0.0,0.0,0.0,0.0,0.0,0.0,0.0,0.0,0.0,0.0,0.0,0.0,0.0,0.0,0.0,0.0,0.0,0.0,0.0,0.0,0.0,0.0,0.0,0.0,0.0,0.0,0.0,0.0,0.0,0.0,0.0,0.0,0.0,0.0,0.0,0.0,0.0,0.0,0.0,0.0,0.0,0.0,0.0,0.0,0.0,0.0,0.0,0.0,0.0,0.0,0.0,0.0,0.0,0.0,0.0,0.0,0.0,0.0,0.0,0.0,0.0,0.0,0.0,0.0,0.0,0.0,0.0,-4.8537,-5.3054,-5.5662,-5.4258,-5.5633,-5.5691,-5.3335,-5.2486,-5.0765,-4.7593,0.0,0.0,0.0,0.0,0.0,0.0,0.0,0.0,0.0,0.0,0.0,0.0,0.0,0.0,0.0,0.0,0.0,0.0,0.0,0.0,0.0,0.0,0.0,0.0,0.0,0.0,0.0,0.0,0.0,0.0,0.0,0.0,0.0,0.0,0.0,0.0,0.0,0.0,0.0,0.0,0.0,0.0,0.0,0.0,0.0,0.0,0.0,0.0,0.0,0.0,0.0,0.0,0.0,0.0,0.0,0.0,0.0,0.0,0.0,0.0,-5.5879,-5.6977,0.0,0.0,0.0,0.0,0.0,0.0,0.0,0.0,0.0,0.0,0.0,0.0,0.0,0.0,0.0,0.0,0.0,0.0,0.0,0.0,0.0,0.0,0.0,0.0,0.0,0.0,0.0,0.0,0.0,0.0,0.0,0.0,0.0,0.0,0.0,0.0,0.0,0.0,0.0,0.0,-4.7663,-5.0487,-5.2651,-5.3313,-5.3796,-5.3589,-5.2519,-5.1813,-5.0466,-4.8222,-4.6322,0.0,0.0,0.0,0.0,0.0,0.0,0.0,0.0,0.0,0.0,0.0,0.0,0.0,0.0,0.0,0.0,0.0,0.0,0.0,0.0,0.0,0.0,0.0,0.0,0.0,0.0,0.0,0.0,0.0,0.0,0.0,0.0,0.0,0.0,0.0,0.0,0.0,0.0,0.0,0.0,0.0,0.0,0.0,0.0,0.0,0.0,0.0,0.0,0.0,0.0,0.0,0.0,0.0,0.0,0.0,0.0,0.0,0.0,0.0,-5.9587,-5.987,0.0,0.0,0.0,0.0,0.0,0.0,0.0,0.0,0.0,0.0,0.0,0.0,0.0,0.0,0.0,0.0,0.0,0.0,0.0,0.0,0.0,0.0,0.0,0.0,0.0,0.0,0.0,0.0,0.0,0.0,0.0,0.0,0.0,0.0,0.0,0.0,0.0,0.0,0.0,0.0,-4.6817,-4.9463,-5.1603,-5.2606,-5.2995,-5.292,-5.2261,-5.1887,-5.072,-4.8431,-4.6711,0.0,0.0,0.0,0.0,0.0,0.0,0.0,0.0,0.0,0.0,0.0,0.0,0.0,0.0,0.0,0.0,0.0,0.0,0.0,0.0,0.0,0.0,0.0,0.0,0.0,0.0,0.0,0.0,0.0,0.0,0.0,0.0,0.0,0.0,0.0,0.0,0.0,0.0,0.0,0.0,0.0,0.0,0.0,0.0,0.0,0.0,0.0,0.0,0.0,0.0,0.0,0.0,0.0,-6.3394,-6.364,-6.3663,-6.3647,-6.364,-6.3645,-6.3651,-6.2728,-6.1114,-5.9196,0.0,0.0,0.0,0.0,0.0,0.0,0.0,0.0,0.0,0.0,0.0,0.0,0.0,0.0,0.0,0.0,0.0,0.0,0.0,0.0,0.0,0.0,-5.3213,-5.3771,-5.389,-5.3213,-5.071,0.0,0.0,0.0,0.0,0.0,0.0,0.0,0.0,0.0,0.0,0.0,-4.613,-4.909,-5.1304,-5.1947,-5.2516,-5.2621,-5.2067,-5.2037,-5.1005,-4.8611,-4.7339,-4.5768,0.0,0.0,0.0,0.0,0.0,0.0,0.0,0.0,0.0,0.0,0.0,0.0,0.0,0.0,0.0,0.0,0.0,0.0,0.0,0.0,0.0,0.0,0.0,0.0,0.0,0.0,0.0,0.0,0.0,0.0,0.0,0.0,-5.6342,-5.7639,0.0,0.0,0.0,0.0,0.0,0.0,0.0,0.0,0.0,0.0,0.0,0.0,0.0,-6.1704,-6.0114,-6.1469,-6.2386,-6.2833,-6.5676,-6.7049,-6.706,-6.7049,-6.7067,-6.706,-6.7056,0.0,-6.4433,-6.1336,0.0,0.0,0.0,0.0,0.0,0.0,0.0,0.0,0.0,0.0,0.0,0.0,0.0,0.0,0.0,0.0,0.0,0.0,0.0,0.0,0.0,0.0,-5.6072,-5.5547,-5.5429,-5.5276,-5.4887,-5.2334,-5.0033,-4.9847,-4.812,-4.6339,0.0,0.0,0.0,0.0,0.0,0.0,-4.6175,-4.8641,-5.0569,-5.1274,-5.1424,-5.1439,-5.1349,-5.1349,-5.072,-4.9284,-4.8446,-4.713,-4.5125,-4.3688,0.0,0.0,0.0,0.0,0.0,0.0,0.0,0.0,0.0,0.0,0.0,0.0,0.0,0.0,0.0,0.0,0.0,0.0,0.0,0.0,0.0,0.0,0.0,0.0,0.0,0.0,0.0,0.0,0.0,-5.4191,-5.8214,-5.9538,-5.8381,-5.7398,0.0,0.0,0.0,0.0,0.0,0.0,0.0,0.0,0.0,-6.3294,-6.3936,-6.3891,-6.3156,-6.4758,-6.5537,-6.5584,-6.6993,-6.7681,-6.771,-6.771,-6.771,-6.771,-6.771,-6.7306,-6.6441,-6.3645,-6.1979,-6.0946,0.0,0.0,0.0,0.0,-5.4515,-5.4448,-5.6055,-5.6156,-5.5581,-5.5412,0.0,0.0,0.0,0.0,0.0,0.0,0.0,-5.438,-5.553,-5.6325,-5.6816,-5.6917,-5.6934,-5.6934,-5.6934,-5.5327,-5.3416,-5.1978,-5.0813,-4.9127,-4.5997,-4.4865,0.0,0.0,0.0,-4.6247,-4.7294,-4.9075,-5.045,-5.1154,-5.1214,-5.1214,-5.1214,-5.0823,-5.0272,-4.9374,-4.8297,-4.7174,-4.5918,-4.4201,-4.2895,0.0,0.0,0.0,0.0,0.0,0.0,0.0,0.0,0.0,0.0,0.0,0.0,0.0,0.0,0.0,0.0,0.0,0.0,0.0,0.0,0.0,0.0,0.0,0.0,0.0,0.0,0.0,0.0,-5.5607,-5.9876,-6.0699,-5.9886,-5.9184,0.0,0.0,0.0,0.0,0.0,0.0,-6.3833,-6.4133,-6.4742,-6.5814,-6.5732,-6.5743,-6.5907,-6.7103,-6.7681,-6.7702,-6.7702,-6.7712,-6.7687,-6.7687,-6.7687,-6.7687,-6.7687,-6.7687,-6.7549,-6.554,-6.4218,-6.3225,-6.1017,-5.9179,-5.7789,-5.7689,-5.7175,-5.6833,-5.866,-5.9167,-5.8896,-5.8186,-5.7188,-5.5919,-5.4025,0.0,0.0,0.0,0.0,-5.5463,-5.6748,-5.707,-5.7222,-5.7763,-5.7881,-5.7881,-5.7881,-5.7459,-5.6359,-5.3911,-5.2962,-5.1302,-4.7411,-4.6348,0.0,-4.4503,-4.5903,-4.7429,-4.8416,-4.9688,-5.0629,-5.1169,-5.1214,-5.1154,-5.0943,-5.048,-4.9883,-4.9105,-4.8102,-4.7264,-4.6563,-4.4934,-4.3703,-4.292,0.0,0.0,0.0,0.0,0.0,0.0,0.0,0.0,0.0,0.0,0.0,0.0,0.0,0.0,0.0,0.0,0.0,0.0,0.0,0.0,0.0,0.0,0.0,0.0,0.0,0.0,0.0,0.0,0.0,-6.0973,-6.1466,0.0,0.0,0.0,0.0,-6.3108,-6.4686,-6.5604,-6.5483,-6.5502,-6.5788,-6.6423,-6.6463,-6.6796,-6.7559,-6.7659,-6.7696,-6.7714,-6.7714,-6.7714,-6.7687,-6.7687,-6.7687,-6.7687,-6.7687,-6.7687,-6.7614,-6.6733,-6.5907,-6.5003,-6.3375,-6.168,-6.0234,-6.0241,-5.9612,-5.8964,-5.9776,-5.959,-5.9252,-6.0622,-5.9573,-5.7628,-5.6816,-5.5598,0.0,0.0,-5.6156,-5.6867,-5.7628,-5.7831,-5.7831,-5.7881,-5.7881,-5.7881,-5.7881,-5.7865,-5.7268,-5.5352,-5.3136,-5.1136,-4.9812,0.0,-4.7188,-4.7115,-4.8252,-4.9179,-4.9254,-5.0361,-5.1184,-5.1214,-5.1214,-5.096,-5.0285,-5.0211,-4.9643,-4.8416,-4.8282,-4.7938,-4.7279,-4.6561,-4.5559,-4.4242,-4.2925,0.0,0.0,0.0,0.0,0.0,0.0,0.0,0.0,0.0,0.0,0.0,0.0,0.0,0.0,0.0,0.0,0.0,0.0,0.0,0.0,0.0,0.0,0.0,0.0,0.0,0.0,0.0,0.0,-6.5495,-6.4523,0.0,-6.4051,-6.4628,-6.5186,-6.5705,-6.684,-6.7719,-6.8223,-6.8071,-6.8092,-6.8302,-6.7622,-6.7393,-6.7687,-6.7687,-6.7687,-6.7687,-6.7687,-6.7687,-6.7687,-6.7687,-6.7687,-6.7687,-6.7687,-6.7687,-6.7696,-6.7375,-6.71,-6.668,-6.5045,-6.3681,-6.2567,-6.2021,-6.126,-6.0588,-6.1315,-6.14,-6.1197,-6.1281,-6.0402,-5.9268,-5.8998,-5.8558,-5.8186,-5.8457,-5.8727,-5.8981,-5.9252,-5.8964,-5.8609,-5.8609,-5.8254,-5.7881,-5.7881,-5.7881,-5.747,-5.6084,-5.4574,-5.2647,-4.9942,-4.9298,-4.891,-4.8072,-4.9045,-4.9898,-4.9898,-5.0676,-5.1214,-5.1214,-5.1214,-5.0945,-5.0255,-4.9853,-4.9045,-4.7743,-4.7249,-4.692,-4.6681,-4.5618,-4.4811,-4.4332,-4.3069,-4.1542,0.0,0.0,0.0,0.0,0.0,0.0,0.0,0.0,0.0,0.0,0.0,0.0,0.0,0.0,0.0,0.0,0.0,0.0,0.0,0.0,0.0,0.0,0.0,0.0,0.0,-6.1328,-6.5233,-6.8063,-6.691,-6.5994,-6.6282,-6.684,-6.7398,-6.7936,-6.8763,-6.9421,-6.9812,-6.949,-6.9323,-6.9415,-6.8302,-6.7705,-6.7688,-6.7705,-6.7687,-6.7687,-6.7687,-6.7687,-6.7687,-6.7687,-6.7687,-6.7687,-6.7687,-6.7687,-6.7687,-6.7687,-6.7687,-6.7587,-6.648,-6.531,-6.4205,-6.3621,-6.2667,-6.1738,-6.2229,-6.2381,-6.2313,-6.1823,-6.1146,-6.0503,-6.0503,-6.0317,-6.0097,-6.0097,-6.0097,-6.0097,-6.0097,-5.9742,-5.9319,-5.9066,-5.8626,-5.8203,-5.7932,-5.7881,-5.7463,-5.5968,-5.5068,-5.3756,-5.0979,-5.0532,-5.0272,-4.9404,-5.0017,-5.0524,-5.0524,-5.0945,-5.1214,-5.1214,-5.1214,-5.087,-4.9987,-4.9314,-4.8476,-4.7369,-4.6471,-4.6082,-4.6264,-4.5244,-4.4541,-4.4317,-4.3069,-4.1542,-3.9753,0.0,0.0,0.0,0.0,0.0,0.0,0.0,0.0,0.0,0.0,0.0,0.0,0.0,0.0,0.0,0.0,0.0,0.0,0.0,0.0,0.0,0.0,0.0,-6.0327,-6.3796,-6.6588,-6.8269,-6.8456,-6.8129,-6.7301,-6.8744,-6.9744,-6.9744,-7.0456,-7.0686,-7.0183,-6.9645,-6.9477,-6.977,-6.8469,-6.7789,-6.7772,-6.7725,-6.7687,-6.7687,-6.7687,-6.7687,-6.7687,-6.7687,-6.7687,-6.7687,-6.7687,-6.7687,-6.7687,-6.7687,-6.7687,-6.7687,-6.7687,-6.6605,-6.4999,-6.4999,-6.39,-6.2381,-6.2381,-6.2381,-6.2381,-6.2381,-6.1924,-6.1332,-6.1332,-6.0791,-6.0165,-6.0165,-6.0165,-6.0165,-6.0165,-6.0148,-5.9945,-5.9218,-5.9032,-5.8812,-5.8051,-5.7881,-5.7222,-5.5084,-5.4589,-5.4168,-5.3033,-5.1941,-5.1214,-5.1214,-5.1214,0.0,-5.1214,-5.1214,-5.1214,-5.1214,-5.1214,-5.069,-4.9449,-4.8745,-4.8012,-4.7309,-4.6022,-4.5589,-4.6219,-4.5618,-4.496,-4.4332,-4.3045,-4.1796,-4.0457,0.0,0.0,0.0,0.0,0.0,0.0,0.0,0.0,0.0,0.0,0.0,0.0,0.0,0.0,0.0,0.0,0.0,0.0,0.0,0.0,0.0,-5.6378,-5.974,-6.0666,-6.4792,-6.8334,-7.0016,-6.9688,-6.9475,-6.9821,-7.0283,-7.0571,-7.0571,-7.0764,-7.1107,-7.1602,-7.0705,-7.0493,-7.1213,-7.005,-6.9449,-6.9458,-6.8284,-6.7689,-6.7689,-6.7697,-6.7687,-6.7687,-6.7687,-6.7687,-6.7687,-6.7687,-6.7687,-6.7687,-6.7687,-6.7687,-6.7687,-6.7687,-6.6605,-6.4999,-6.4999,-6.39,-6.2381,-6.2381,-6.2381,-6.2381,-6.2381,-6.2245,-6.2093,-6.2093,-6.1924,-6.1755,-6.1755,-6.1755,-6.1755,-6.1755,-6.1366,-6.0774,-5.9979,-5.9404,-5.8812,-5.8051,-5.726,-5.6492,-5.5873,-5.4473,-5.2989,-5.185,-5.1386,-5.1214,-5.1214,-5.1214,-5.1214,-5.1214,-5.1214,-5.1214,-5.1214,-5.1214,-5.0885,-5.0032,-4.9374,-4.8312,-4.6696,-4.5783,-4.5379,-4.5574,-4.493,-4.4496,-4.4317,-4.3494,-4.2656,0.0,0.0,0.0,0.0,0.0,0.0,0.0,0.0,0.0,0.0,0.0,0.0,0.0,0.0,0.0,0.0,0.0,0.0,0.0,0.0,0.0,0.0,-6.0064,-6.3431,-6.4838,-6.6981,-6.8828,-7.0054,-7.0194,-7.0398,-7.0841,-7.0898,-7.0898,-7.0898,-7.1245,-7.1559,-7.1804,-7.1314,-7.1318,-7.1903,-7.0739,-7.0257,-7.0605,-6.9568,-6.8587,-6.7689,-6.7698,-6.7716,-6.7707,-6.7707,-6.7697,-6.7687,-6.7687,-6.7687,-6.7687,-6.7687,-6.7687,-6.7642,0.0,0.0,0.0,0.0,-6.3277,-6.2381,-6.2381,-6.2381,-6.2381,-6.2381,-6.2381,-6.2381,-6.2381,-6.2381,-6.2381,-6.2381,-6.2381,-6.2381,-6.2381,-6.2076,-6.1569,-6.0791,-6.0283,-5.9674,-5.8592,-5.7702,-5.677,-5.5708,-5.4332,0.0,-5.1431,-5.1214,-5.1214,-5.1214,-5.1214,-5.1214,-5.1214,-5.1214,-5.1214,-5.1214,-5.1214,-5.0945,-5.0255,-4.9389,0.0,0.0,0.0,-4.5289,-4.5289,-4.493,0.0,0.0,0.0,0.0,0.0,0.0,0.0,0.0,-4.4496,-4.502,0.0,0.0,0.0,0.0,0.0,0.0,0.0,0.0,0.0,0.0,0.0,0.0,0.0,0.0,0.0,0.0,-6.3331,-6.68,-7.0409,-6.961,-6.886,-6.9348,-7.0277,-7.0898,-7.0898,-7.0898,-7.0937,-7.1033,-7.1764,-7.2048,-7.1708,-7.1824,0.0,0.0,0.0,-7.0715,-7.145,-7.112,-7.0027,-6.8228,-6.8064,-6.8083,-6.822,-6.7863,-6.7689,-6.7705,-6.7687,-6.7687,-6.7687,-6.7687,-6.7642,-6.746,-6.6582,-6.573,-6.4799,-6.3049,-6.2381,-6.2381,-6.2381,0.0,0.0,-6.2381,-6.2381,-6.2381,-6.2381,-6.2381,-6.2381,-6.2381,-6.2381,-6.2381,-6.2381,-6.2381,-6.2195,-6.1484,-6.1231,-6.0791,-5.9438,-5.8513,-5.7339,-5.515,-5.4182,-5.3193,-5.1506,-5.1214,-5.1214,-5.1214,-5.1214,-5.1214,-5.1214,-5.1214,-5.1214,-5.1214,-5.1214,0.0,-5.0345,-4.9224,-4.8446,-4.8297,-4.6471,-4.5409,-4.5409,-4.5484,-4.5484,-4.5409,-4.5409,-4.5379,-4.5289,-4.6067,-4.6384,-4.6384,-4.5888,-4.6277,0.0,0.0,0.0,0.0,0.0,0.0,0.0,0.0,0.0,0.0,0.0,0.0,0.0,0.0,0.0,-5.839,-6.126,-6.5161,-7.0198,-7.0631,-7.0458,-7.056,-7.0777,-7.0898,-7.0898,-7.0898,-7.1187,-7.1898,-7.2091,-7.2736,-7.3974,-7.3232,-7.3115,-7.3853,-7.2669,-7.211,-7.2275,-7.156,-7.1349,-7.1561,-7.0247,0.0,-7.148,-6.8862,-6.7698,-6.7707,-6.7697,-6.7687,-6.7687,-6.7687,-6.7304,-6.6553,-6.5617,-6.5163,-6.4799,-6.3049,-6.2381,-6.2381,-6.2381,-6.2381,-6.2381,-6.2381,-6.2381,-6.2381,-6.2381,-6.2381,0.0,-6.2381,-6.2381,-6.2381,-6.2381,-6.2381,-6.2195,-6.1484,-6.0808,-6.025,-5.9945,-5.7915,-5.6011,-5.5585,-5.3875,-5.2246,-5.1381,-5.1214,-5.1214,-5.1214,-5.1214,-5.1214,-5.1214,-5.1214,-5.1214,-5.1214,-5.1214,-5.1169,-5.1035,-5.027,-4.9404,-4.8356,-4.692,-4.6127,-4.6127,-4.6636,-4.6666,-4.6142,-4.6127,-4.5858,-4.5289,-4.6516,-4.7115,-4.713,-4.7519,-4.7848,0.0,0.0,0.0,0.0,0.0,0.0,0.0,0.0,0.0,0.0,0.0,-5.3643,-5.5312,0.0,-6.0392,-6.0404,-6.403,-6.7791,-7.0517,-7.0901,-7.0739,-7.0354,-7.0648,-7.0898,-7.0898,-7.0898,-7.1264,-7.2129,-7.2591,-7.3146,-7.3812,-7.3717,-7.3571,-7.3398,-7.2816,-7.2496,-7.2496,-7.211,-7.2092,-7.248,-7.1698,-7.1736,-7.2456,-7.0845,-6.9229,-6.7717,-6.7716,-6.7715,-6.7687,-6.7687,-6.7174,-6.6295,-6.5376,-6.4732,-6.4201,-6.2876,-6.2381,-6.2381,-6.2381,-6.2381,-6.2381,-6.2381,-6.2381,-6.2381,-6.2381,-6.2381,-6.2381,-6.2381,-6.2381,-6.2381,-6.2381,-6.2381,-6.2296,-6.1941,-6.1535,-6.1146,-6.0774,-5.8873,-5.7021,-5.6317,-5.4313,-5.2486,-5.1828,-5.1439,-5.1214,-5.1214,-5.1214,-5.1214,-5.1214,-5.1214,-5.1214,-5.1214,-5.1214,-5.1214,-5.1214,-5.0569,-4.9673,-4.8371,-4.7668,-4.716,-4.683,-4.713,-4.7145,-4.683,-4.6815,-4.68,-4.6785,-4.7459,-4.8132,-4.8731,-4.9105,-4.9269,0.0,0.0,0.0,0.0,0.0,0.0,0.0,-5.1781,-5.4865,-5.7482,-5.8515,-5.8923,-5.8919,-6.1053,-6.3008,-6.3653,-6.7782,-7.0895,-7.0896,-7.0901,-7.0667,-7.0014,-7.0514,-7.0898,-7.0898,-7.0898,-7.1321,-7.236,-7.311,-7.3469,-7.3407,-7.3978,-7.3813,-7.2696,-7.2563,-7.2496,-7.2496,-7.2496,-7.2496,-7.2496,-7.2496,-7.2506,-7.249,-7.25,-7.0909,-6.8165,-6.7854,-6.7707,-6.7687,-6.7533,-6.7043,-6.6295,-6.5181,-6.4323,-6.3574,-6.2719,-6.2381,-6.2381,-6.2381,-6.2381,-6.2381,-6.2381,-6.2381,-6.2381,-6.2381,-6.2381,-6.2381,-6.2381,-6.2381,-6.2381,-6.2381,-6.2381,-6.2381,-6.2381,-6.2279,-6.2059,-6.1603,-5.9949,-5.8268,-5.7117,-5.49,-5.298,-5.2321,-5.1648,-5.1214,-5.1214,-5.1214,-5.1214,-5.1214,-5.1214,-5.1214,-5.1214,-5.1214,-5.1214,-5.1214,-5.0569,-4.9747,-4.873,-4.8551,-4.8237,-4.7713,-4.7683,-4.7683,-4.7683,-4.7683,-4.7938,-4.8476,-4.8596,-4.9209,-5.0196,-5.0315,-5.0375,-4.4609,-4.4606,-4.5234,-4.7851,-5.0862,-5.3104,0.0,-5.5148,-5.7559,-5.7937,-6.0272,-6.2271,-6.2261,-6.2548,-6.3769,-6.6668,-6.9275,-7.0896,-7.0899,-7.0899,-7.086,-7.0783,-7.0841,-7.0898,-7.0898,-7.0898,-7.1591,-7.3226,-7.3437,-7.3902,-7.4807,-7.4511,-7.398,-7.3315,-7.2761,-7.2496,-7.2496,-7.2496,-7.2496,-7.2496,-7.2496,-7.2496,-7.2496,-7.249,-7.1534,-6.9733,-6.8329,-6.7705,-6.7642,-6.6881,-6.6493,-6.6235,-6.4513,-6.3774,-6.3574,-6.2719,-6.2381,-6.2381,-6.2381,-6.2381,-6.2381,-6.2381,-6.2381,-6.2381,-6.2381,-6.2381,-6.2381,-6.2381,-6.2381,-6.2381,-6.2381,-6.2381,-6.2381,-6.2381,-6.189,-6.1586,-6.2144,-5.9942,-5.7804,-5.7688,-5.5256,-5.298,-5.2321,-5.1648,-5.1214,-5.1214,-5.1214,-5.1214,-5.1214,-5.1214,-5.1214,-5.1214,-5.1214,-5.1214,-5.1214,-5.0569,-5.0136,-4.9986,-4.9479,-4.9164,-4.909,-4.909,-4.909,-4.909,-4.909,-4.912,-4.9209,-4.9748,-5.0046,-5.0196,-5.0794,-5.1109,-4.4606,-4.4595,-4.5692,-5.0287,-5.2347,-5.3684,-5.5577,-5.7032,-5.8525,-6.0415,-6.1855,-6.2806,-6.281,-6.4361,-6.6084,-6.7469,-6.8451,-6.9482,-7.0726,-7.0625,-7.0558,-7.0852,-7.0898,-7.0898,-7.0898,-7.0898,-7.1629,-7.338,-7.3177,-7.3464,-7.4575,-7.4098,-7.3498,-7.2907,-7.263,-7.2496,-7.2496,-7.2496,-7.2496,-7.2496,-7.2496,-7.2496,-7.2496,-7.2488,-7.1615,-7.0044,-6.8889,-6.8403,-6.8293,-6.6947,-6.6077,-6.5458,-6.4201,-6.3388,-6.2876,-6.252,-6.2381,-6.2381,-6.2381,-6.2381,-6.2381,-6.2381,-6.2381,-6.2381,-6.2381,-6.2381,-6.2381,-6.2381,-6.2381,-6.2381,-6.2381,-6.2381,-6.2381,-6.2381,-6.2144,-6.1835,-6.143,-5.9771,-5.8141,-5.7459,-5.543,-5.3563,-5.289,-5.2232,-5.1663,-5.1274,-5.1214,-5.1214,-5.1214,-5.1214,-5.1214,-5.1214,-5.1214,-5.1214,-5.1214,-5.096,-5.0599,-5.0211,-4.9972,-4.9673,-4.9329,-4.9314,-4.9314,-4.9314,-4.9314,-4.9449,-4.9823,-5.0061,-5.039,-5.0764,-5.1094,-5.1214,-4.4599,-4.5761,-4.7971,-5.2162,-5.3883,-5.5125,-5.7469,-5.8006,-5.8657,-6.0998,-6.2181,-6.2941,-6.3404,-6.5816,-6.7705,-6.771,-6.7876,-6.8539,-7.0103,-7.0081,-7.0007,-7.0413,-7.0588,-7.0686,-7.0686,-7.0824,-7.1549,-7.3123,-7.286,-7.3023,-7.4,-7.3645,-7.3119,-7.2524,-7.2496,-7.2496,-7.2496,-7.2496,-7.2496,-7.2496,-7.2496,-7.2496,-7.2477,-7.2037,-7.1201,-7.0026,-6.8999,-6.8568,-6.8431,-6.671,-6.5617,-6.49,-6.3774,-6.2952,-6.2381,-6.2381,-6.2381,-6.2381,-6.2381,-6.2381,-6.2381,-6.2381,-6.2381,-6.2381,-6.2381,-6.2381,-6.2381,-6.2381,-6.2381,-6.2381,-6.2381,-6.2381,-6.2381,-6.2381,-6.2381,-6.2167,-6.1276,-5.9887,-5.8542,-5.7668,-5.573,-5.4057,-5.3548,-5.277,-5.2037,-5.1558,-5.1334,-5.1214,-5.1214,-5.1214,-5.1214,-5.1214,-5.1214,-5.1214,-5.1214,-5.1214,-5.1005,-5.0495,-5.0465,-5.0301,-4.9823,-4.9808,-4.9808,-4.9808,-4.9808,-5.0032,-5.0465,-5.0465,-5.0704,-5.1214,-5.1214,-5.1319,-4.4599,-4.8675,-5.2996,-5.3157,-5.5537,-5.7873,-5.799,-5.7992,-5.8017,-5.8132,-6.0645,-6.3303,-6.4915,-6.6574,-6.7697,-6.7704,-6.8284,-6.8777,-6.8838,-6.9131,-6.9333,-6.9353,-6.9793,-7.0129,-7.0129,-7.0588,-7.1377,-7.2532,-7.2613,-7.2848,-7.3398,-7.3417,-7.3119,-7.2524,-7.2496,-7.2496,-7.2496,-7.2496,-7.2496,-7.2496,-7.2496,-7.2496,-7.2459,-7.0881,-7.0165,-7.0,-6.842,-6.7724,-6.7597,-6.5775,-6.5032,-6.4833,-6.3107,-6.242,-6.2381,-6.2381,-6.2381,-6.2381,-6.2381,-6.2381,-6.2381,-6.2381,-6.2381,-6.2381,-6.2381,-6.2381,-6.2381,-6.2381,-6.2381,-6.2381,-6.2381,-6.2381,-6.2381,-6.2381,-6.2381,-6.2381,-6.2341,-6.0459,-5.8767,-5.8767,-5.6275,-5.4206,-5.4177,-5.3069,-5.2187,-5.2172,-5.1633,-5.1214,-5.1214,-5.1214,-5.1214,-5.1214,-5.1214,-5.1214,-5.1214,-5.1214,-5.1214,-5.1184,-5.1184,-5.1184,-5.1154,-5.1154,-5.1154,-5.1154,-5.1154,-5.1169,-5.1184,-5.1184,-5.1199,-5.1214,-5.1214,-5.1558,-4.4594,-4.8821,-5.3202,-5.3204,-5.5621,-5.8006,-5.8015,-5.7982,-5.7998,-5.7998,-5.8864,-6.0451,-6.3142,-6.5881,-6.7709,-6.771,-6.7915,-6.8252,-6.8748,-6.9239,-6.951,-6.9308,-6.9925,-7.0156,-6.9607,-7.0061,-7.0776,-7.1733,-7.1606,-7.1808,-7.2541,-7.2727,-7.2696,-7.2514,-7.2496,-7.2496,-7.2496,-7.2496,-7.2496,-7.2496,-7.2496,-7.2506,-7.2416,-6.974,-6.8503,-6.8504,-6.8495,-6.8495,-6.8312,-6.5958,-6.4999,-6.4833,-6.3069,-6.2381,-6.2381,-6.2381,-6.2381,-6.2381,-6.2381,-6.2381,-6.2381,-6.2381,-6.2381,-6.2381,-6.2381,-6.2381,-6.2381,-6.2381,-6.2381,-6.2381,-6.2381,-6.2381,-6.2381,-6.2381,-6.2381,-6.2167,-6.1358,-5.993,-5.8542,-5.7761,-5.6146,-5.4715,-5.4281,-5.3832,-5.3234,-5.2336,-5.1633,-5.1214,-5.1214,-5.1214,-5.1214,-5.1214,-5.1214,-5.1214,-5.1214,-5.1214,-5.1214,-5.1214,-5.1214,-5.1214,-5.1214,-5.1214,-5.1214,-5.1214,-5.1214,-5.1214,-5.1214,-5.1214,-5.1214,-5.1229,-5.1678,-5.1469,-4.71,-5.0383,-5.349,-5.4631,-5.647,-5.7994,-5.8006,-5.8005,-5.8014,-5.8014,-5.8297,-5.934,-6.19,-6.4333,-6.625,-6.7132,-6.7281,-6.756,-6.829,-6.8729,-6.8914,-6.8738,-6.9338,-6.9694,-6.9469,-6.9484,-6.989,-7.0742,-7.1133,-7.1498,-7.1843,-7.2254,-7.2496,-7.2496,-7.2496,-7.2496,-7.2496,-7.2496,-7.2496,-7.2496,-7.2496,-7.2498,-7.2391,-6.9153,-6.7715,-6.7726,-6.8238,-6.8476,-6.8294,-6.594,-6.4999,-6.4833,-6.3069,-6.2381,-6.2381,-6.2381,-6.2381,-6.2381,-6.2381,-6.2381,-6.2381,-6.2381,-6.2381,-6.2381,-6.2381,-6.2381,-6.2381,-6.2381,-6.2381,-6.2381,-6.2381,-6.2381,-6.2381,-6.2381,-6.2381,-6.2206,-6.1399,-5.9973,-5.8587,-5.7807,-5.6314,-5.5059,-5.464,-5.4371,-5.3743,-5.2396,-5.1843,-5.1483,-5.1244,-5.1214,-5.1214,-5.1214,-5.1214,-5.1214,-5.1214,-5.1214,-5.1214,-5.1214,-5.1214,-5.1214,-5.1214,-5.1214,-5.1214,-5.1214,-5.1214,-5.1214,-5.1214,-5.1214,-5.1334,-5.1573,-5.2007,-5.1928,-5.1723,-5.3212,-5.3981,-5.7195,-5.7998,-5.8,-5.8001,-5.796,-5.7923,-5.7997,-5.8791,-5.9874,-6.1227,-6.2199,-6.3594,-6.5999,-6.6476,-6.6843,-6.7632,-6.7742,-6.7742,-6.7742,-6.8228,-6.8817,-6.9581,-6.9022,-6.891,-6.9674,-7.1138,-7.178,-7.1331,-7.2074,-7.2496,-7.2496,-7.2496,-7.2496,-7.2496,-7.2496,-7.2496,-7.2496,-7.2496,-7.249,-7.2383,-6.9173,-6.7707,-6.7687,-6.7687,-6.7687,-6.7561,-6.5743,-6.4999,-6.4833,-6.3069,-6.2381,-6.2381,-6.2381,-6.2381,-6.2381,-6.2381,-6.2381,-6.2381,-6.2381,-6.2381,-6.2381,-6.2381,-6.2381,-6.2381,-6.2381,-6.2381,-6.2381,-6.2381,-6.2381,-6.2381,-6.2381,-6.2381,-6.2381,-6.2381,-6.0501,-5.8812,-5.8812,-5.6863,-5.5194,-5.5194,-5.464,-5.3758,-5.2456,-5.2217,-5.1962,-5.1304,-5.1214,-5.1214,-5.1214,-5.1214,-5.1214,-5.1214,-5.1214,-5.1214,-5.1214,-5.1214,-5.1214,-5.1214,-5.1214,-5.1214,-5.1214,-5.1214,-5.1214,-5.1214,-5.1214,-5.1543,-5.2157,-5.2217,-5.2886,-5.2794,-5.3217,-5.3983,-5.7187,-5.8009,-5.8,-5.8001,-5.7386,-5.7038,-5.785,-5.774,-5.7978,-5.9538,-6.1465,-6.3227,-6.4494,-6.62,-6.7669,-6.8476,-6.8586,-6.8586,-6.8586,-6.8712,-6.8873,-6.9076,-6.9463,-6.9776,-6.9979,-7.0384,-7.0818,-7.1284,-7.2074,-7.2496,-7.2496,-7.2496,-7.2496,-7.2496,-7.2496,-7.2496,-7.2496,-7.2496,-7.2498,-7.2381,-6.9164,-6.7707,-6.7689,-6.7697,-6.7687,-6.7561,-6.5743,-6.4999,-6.4833,-6.3069,-6.2381,-6.2381,-6.2381,-6.2381,-6.2381,-6.2381,-6.2381,-6.2381,-6.2381,-6.2381,-6.2381,-6.2381,-6.2381,-6.2381,-6.2381,-6.2381,-6.2381,-6.2381,-6.2381,-6.2381,-6.2381,-6.2381,-6.2381,-6.2381,-6.0501,-5.8812,-5.8812,-5.6863,-5.5194,-5.5194,-5.464,-5.3922,-5.3054,-5.2516,-5.1962,-5.1304,-5.1214,-5.1214,-5.1214,-5.1214,-5.1214,-5.1214,-5.1214,-5.1214,-5.1214,-5.1214,-5.1214,-5.1214,-5.1214,-5.1214,-5.1214,-5.1214,-5.1214,-5.1214,-5.1214,-5.1304,-5.1498,-5.2471,-5.2546,-5.2867,-5.3249,-5.4072,-5.723,-5.7661,-5.7363,-5.7455,-5.7001,-5.6763,-5.7354,-5.7116,-5.7299,-5.8891,-6.0896,-6.2677,-6.3888,-6.5815,-6.7577,-6.8752,-6.8898,-6.9027,-6.9376,-6.9119,-6.9192,-6.9889,-6.9724,-7.0018,-7.1064,-7.1156,-7.1211,-7.1274,-7.2074,-7.2496,-7.2496,-7.2496,-7.2496,-7.2496,-7.2496,-7.2496,-7.2496,-7.2488,-7.2518,-7.2419,-6.9908,-6.8376,-6.7698,-6.7705,-6.7687,-6.7561,-6.5743,-6.4999,-6.4833,-6.3069,-6.2381,-6.2381,-6.2381,-6.2381,-6.2381,-6.2381,-6.2381,-6.2381,-6.2381,-6.2381,-6.2381,-6.2381,-6.2381,-6.2381,-6.2381,-6.2381,-6.2381,-6.2381,-6.2381,-6.2381,-6.2381,-6.2381,-6.2381,-6.2381,-6.0912,-5.9302,-5.8223,-5.6508,-5.5194,-5.5194,-5.488,-5.4311,-5.3339,-5.286,-5.2291,-5.1334,-5.1214,-5.1214,-5.1214,-5.1214,-5.1214,-5.1214,-5.1214,-5.1214,-5.1214,-5.1214,-5.1214,-5.1214,-5.1214,-5.1214,-5.1214,-5.1214,-5.1214,-5.1214,-5.1214,-5.1364,-5.1678,-5.2411,-5.2649,-5.3074,-5.3677,-5.4126,-5.6747,-5.6848,-5.6363,-5.6601,-5.6557,-5.6543,-5.6763,-5.673,-5.7134,-5.8726,-6.0438,-6.2108,-6.3668,-6.5375,-6.7063,-6.8678,-6.8807,-6.9045,-6.9853,-6.9229,-6.9376,-7.0962,-6.9889,-7.0018,-7.233,-7.2496,-7.2202,-7.1494,-7.2129,-7.2496,-7.2496,-7.2367,-7.2367,-7.2496,-7.2496,-7.2496,-7.2506,-7.2518,-7.228,-7.1812,-7.0432,-6.9008,-6.7705,-6.7687,-6.7687,-6.7561,-6.5743,-6.4999,-6.4833,-6.3069,-6.2381,-6.2381,-6.2381,-6.2381,-6.2381,-6.2381,-6.2381,-6.2381,-6.2381,-6.2381,-6.2381,-6.2381,-6.2381,-6.2381,-6.2381,-6.2381,-6.2381,-6.2381,-6.2381,-6.2381,-6.2381,-6.2381,-6.2381,-6.2381,-6.1317,-5.9697,-5.7434,-5.6051,-5.5194,-5.5194,-5.5194,-5.476,-5.3503,-5.3234,-5.274,-5.1513,-5.1274,-5.1214,-5.1214,-5.1214,-5.1214,-5.1214,-5.1214,-5.1214,-5.1214,-5.1214,-5.1214,-5.1214,-5.1214,-5.1214,-5.1214,-5.1214,-5.1214,-5.1214,-5.1214,-5.1513,-5.2067,-5.2247,-5.2965,-5.6367,-5.5373,-5.3646,-5.4136,-5.4759,-5.5363,-5.5794,-5.5383,-5.5257,-5.6543,-5.6271,-5.629,-5.7905,-6.007,-6.1906,-6.2879,-6.4989,-6.7063,-6.8678,-6.8329,-6.8201,-6.9009,-6.8403,-6.8531,-7.0146,-7.0055,-7.0624,-7.2367,-7.2496,-7.2441,-7.2312,-7.2422,-7.2506,-7.249,-7.1633,-7.1596,-7.25,-7.2518,-7.2518,-7.2518,-7.2493,-7.1121,-6.8531,-6.8229,-6.7964,-6.7707,-6.7697,-6.7687,-6.7561,-6.5743,-6.4999,-6.4833,-6.3069,-6.2381,-6.2381,-6.2381,-6.2381,-6.2381,-6.2381,-6.2381,-6.2381,-6.2381,-6.2381,-6.2381,-6.2381,-6.2381,-6.2381,-6.2381,-6.2381,-6.2381,-6.2381,-6.2381,-6.2381,-6.2381,-6.2381,-6.2381,-6.2381,-6.0686,-5.8706,-5.7261,-5.6051,-5.5194,-5.5194,-5.5194,-5.4925,-5.4147,-5.3548,-5.2905,-5.2127,-5.1558,-5.1214,-5.1214,-5.1214,-5.1214,-5.1214,-5.1214,-5.1214,-5.1214,-5.1214,-5.1214,-5.1214,-5.1214,-5.1214,-5.1214,-5.1214,-5.1214,-5.1214,-5.1214,-5.1274,-5.1409,-5.2501,-5.3129,-5.527,-5.5754,-5.5443,-5.3878,-5.3845,-5.4355,-5.4948,-5.5101,-5.5335,-5.6026,-5.6198,-5.6583,-5.7776,-5.996,-6.1722,-6.2108,-6.4604,-6.6916,-6.8109,-6.8293,-6.8623,-6.9431,-6.8807,-6.8788,-6.9981,-6.9724,-7.0146,-7.1762,-7.189,-7.2074,-7.2477,-7.211,-7.1808,-7.1673,-7.1174,-7.1423,-7.2493,-7.2491,-7.1653,-7.0008,-6.9981,-6.9201,-6.7689,-6.7707,-6.7707,-6.7707,-6.7705,-6.7687,-6.7561,-6.5743,-6.4999,-6.4833,-6.3069,-6.2381,-6.2381,-6.2381,-6.2381,-6.2381,-6.2381,-6.2381,-6.2381,-6.2381,-6.2381,-6.2381,-6.2381,-6.2381,-6.2381,-6.2381,-6.2381,-6.2381,-6.2381,-6.2381,-6.2381,-6.2381,-6.2381,-6.2381,-6.2381,-6.0995,-5.939,-5.8177,-5.6943,-5.5967,-5.533,-5.5194,-5.485,-5.3832,-5.3399,-5.2815,-5.1813,-5.1409,-5.1214,-5.1214,-5.1214,-5.1214,-5.1214,-5.1214,-5.1214,-5.1214,-5.1214,-5.1214,-5.1214,-5.1214,-5.1214,-5.1214,-5.1214,-5.1394,-5.1738,-5.1738,-5.1902,-5.2261,-5.289,-5.3369,-5.4431,-5.6448,-5.7875,-5.5114,-5.4079,-5.3919,-5.459,-5.5107,-5.5523,-5.5784,-5.6363,-5.706,-5.785,-5.9832,-6.1392,-6.1557,-6.42,-6.6512,-6.732,-6.8128,-6.888,-6.9504,-6.9027,-6.8953,-6.9761,-6.9265,-6.9504,-7.0936,-7.1156,-7.1578,-7.2451,-7.167,-7.1212,-7.125,-7.0569,-7.0955,-7.2494,-7.1811,-7.021,-6.7698,-6.7689,-6.7707,-6.7707,-6.7697,-6.7687,-6.7687,-6.7687,-6.7687,-6.7561,-6.5743,-6.4999,-6.4833,-6.3069,-6.2381,-6.2381,-6.2381,-6.2381,-6.2381,-6.2381,-6.2381,-6.2381,-6.2381,-6.2381,-6.2381,-6.2381,-6.2381,-6.2381,-6.2381,-6.2381,-6.2381,-6.2381,-6.2381,-6.2381,-6.2381,-6.2381,-6.2381,-6.2381,-6.1439,-6.0247,-5.9036,-5.7807,-5.6623,-5.5416,-5.5194,-5.4835,-5.3773,-5.3488,-5.3025,-5.1992,-5.1603,-5.1424,-5.1424,-5.1304,-5.1214,-5.1214,-5.1214,-5.1214,-5.1214,-5.1214,-5.1214,-5.1214,-5.1214,-5.1214,-5.1214,-5.1214,-5.1543,-5.2202,-5.2202,-5.2531,-5.3174,-5.3339,-5.3698,-5.7494,-5.8809,-5.9769,-5.7933,-5.599,-5.4681,-5.5344,-5.5026,-5.5,-5.6405,-5.6767,-5.706,-5.785,-5.9373,-6.075,-6.1465,-6.3741,-6.5705,-6.6494,-6.7283,-6.7834,-6.7889,-6.7852,-6.8128,-6.8935,-6.8953,-6.9265,-7.0128,-7.0661,-7.1387,-7.2445,-7.1497,-7.1361,-7.2309,-6.9541,-6.944,-7.2466,-6.9596,-6.7991,-6.7689,-6.7688,-6.7705,-6.7705,-6.7687,-6.7687,-6.7687,-6.7687,-6.7687,-6.7561,-6.5743,-6.4999,-6.4833,-6.3069,-6.2381,-6.2381,-6.2381,-6.2381,-6.2381,-6.2381,-6.2381,-6.2381,-6.2381,-6.2381,-6.2381,-6.2381,-6.2381,-6.2381,-6.2381,-6.2381,-6.2381,-6.2381,-6.2381,-6.2381,-6.2381,-6.2381,-6.2381,-6.2381,-6.1439,-6.0247,-5.9036,-5.7807,-5.6623,-5.5416,-5.5194,-5.5149,-5.5029,-5.4506,-5.4072,-5.3952,-5.286,-5.2112,-5.2112,-5.1573,-5.1214,-5.1214,-5.1214,-5.1214,-5.1214,-5.1214,-5.1214,-5.1214,-5.1214,-5.1214,-5.1214,-5.1214,-5.1543,-5.2202,-5.2202,-5.2531,-5.3189,-5.3817,-5.4147,-5.7919,-5.8378,-5.8733,-5.8057,-5.6348,-5.4924,-5.5472,-5.5402,-5.5508,-5.6565,-5.7189,-5.7611,-5.7941,-5.9318,-6.0511,-6.0823,-6.2952,-6.4861,-6.5668,-6.6476,-6.7155,-6.7632,-6.7687,-6.7816,-6.8146,-6.8183,-6.8513,-6.9321,-7.0312,-7.0956,-7.1057,-7.0643,-7.0174,-6.9631,-6.8376,-6.8312,-6.9595,-6.8357,-6.7707,-6.7688,-6.7705,-6.7687,-6.7687,-6.7687,-6.7687,-6.7687,-6.7687,-6.7387,-6.6805,-6.5536,-6.4682,-6.4096,-6.2893,-6.2381,-6.2381,-6.2381,-6.2381,-6.2381,-6.2381,-6.2381,-6.2381,-6.2381,-6.2381,-6.2381,-6.2381,-6.2381,-6.2381,-6.2381,-6.2381,-6.2381,-6.2381,-6.2381,-6.2381,-6.2381,-6.2381,-6.2381,-6.2381,-6.203,-6.1136,-5.917,-5.8405,-5.7449,-5.5501,-5.5194,-5.5059,-5.4655,-5.4386,-5.3922,-5.3099,-5.2875,-5.2636,-5.2232,-5.1618,-5.1379,-5.1768,-5.1454,-5.1394,-5.1783,-5.1439,-5.1214,-5.1214,-5.1214,-5.1214,-5.1214,-5.1214,-5.1543,-5.2202,-5.2591,-5.3144,-5.3817,-5.4491,-5.4805,-5.7921,-5.7894,-5.7891,-5.7908,-5.6661,-5.5618,-5.6199,-5.5985,-5.5981,-5.6953,-5.7436,-5.7823,-5.8262,-5.9483,-6.0493,-6.0731,-6.2842,-6.4659,-6.5228,-6.62,-6.7063,-6.7614,-6.7687,-6.7687,-6.7687,-6.7687,-6.7926,-6.8495,-6.9431,-6.9789,-6.943,-6.9393,-6.887,-6.7751,-6.7707,-6.7707,-6.7687,-6.7707,-6.7707,-6.7687,-6.7687,-6.7687,-6.7687,-6.7687,-6.7687,-6.7687,-6.7687,-6.7202,-6.6325,-6.5394,-6.4495,-6.361,-6.2757,-6.2381,-6.2381,-6.2381,-6.2381,-6.2381,-6.2381,-6.2381,-6.2381,-6.2381,-6.2381,-6.2381,-6.2381,-6.2381,-6.2381,-6.2381,-6.2381,-6.2381,-6.2381,-6.2381,-6.2381,-6.2381,-6.2381,-6.2381,-6.2381,-6.2381,-6.1676,-5.9258,-5.8812,-5.8039,-5.5601,-5.5194,-5.5029,-5.4566,-5.4506,-5.4162,-5.3204,-5.3324,-5.3309,-5.2845,-5.2202,-5.1992,-5.2456,-5.2067,-5.1917,-5.2187,-5.1768,-5.1424,-5.1229,-5.1214,-5.1214,-5.1214,-5.1214,-5.1543,-5.2202,-5.286,-5.3533,-5.4221,-5.488,-5.5194,-5.7924,-5.7901,-5.7904,-5.7908,-5.7353,-5.7002,-5.7792,-5.6799,-5.6141,-5.7666,-5.7425,-5.7369,-5.8925,-5.9869,-6.0658,-6.1447,-6.3668,-6.5301,-6.5319,-6.6678,-6.7687,-6.7687,-6.7687,-6.7687,-6.7687,-6.7687,-6.7687,-6.7714,-6.7724,-6.7724,-6.7724,-6.7705,-6.7732,-6.7687,-6.7687,-6.7687,-6.7687,-6.7687,-6.7687,-6.7687,-6.7687,-6.7687,-6.7687,-6.7687,-6.7687,-6.7687,-6.7687,-6.7202,-6.6325,-6.5394,-6.4495,-6.361,-6.2757,-6.2381,-6.2381,-6.2381,-6.2381,-6.2381,-6.2381,-6.2381,-6.2381,-6.2381,-6.2381,-6.2381,-6.2381,-6.2381,-6.2381,-6.2381,-6.2381,-6.2381,-6.2381,-6.2381,-6.2381,-6.2381,-6.2381,-6.2381,-6.2381,-6.2381,-6.1676,-5.9258,-5.8812,-5.8039,-5.5601,-5.5194,-5.5194,-5.5179,-5.5179,-5.5179,-5.5164,-5.4596,-5.4206,-5.4192,-5.3563,-5.3159,-5.3174,-5.3159,-5.289,-5.2232,-5.2187,-5.1887,-5.1244,-5.1214,-5.1214,-5.1214,-5.1214,-5.1543,-5.2202,-5.286,-5.3533,-5.4221,-5.488,-5.5194,-5.7406,-5.797,-5.772,-5.6662,-5.6213,-5.6128,-5.638,-5.6058,-5.6004,-5.7022,-5.7449,-5.7982,-5.9014,-5.9869,-6.0841,-6.2199,-6.3576,-6.4861,-6.598,-6.6549,-6.7063,-6.7614,-6.7687,-6.7687,-6.7687,-6.7687,-6.7687,-6.7687,-6.7687,-6.7687,-6.7687,-6.7687,-6.7687,-6.7687,-6.7687,-6.7687,-6.7687,-6.7687,-6.7687,-6.7687,-6.7687,-6.7687,-6.7687,-6.7687,-6.7687,-6.7687,-6.7687,-6.7202,-6.6325,-6.5394,-6.4495,-6.361,-6.2757,-6.2381,-6.2381,-6.2381,-6.2381,-6.2381,-6.2381,-6.2381,-6.2381,-6.2381,-6.2381,-6.2381,-6.2381,-6.2381,-6.2381,-6.2381,-6.2381,-6.2381,-6.2381,-6.2381,-6.2381,-6.2381,-6.2381,-6.2381,-6.2381,-6.2381,-6.1676,-5.9258,-5.8812,-5.8039,-5.5601,-5.5194,-5.5194,-5.5194,-5.5194,-5.5029,-5.4581,-5.473,-5.4715,-5.4266,-5.4416,-5.4192,-5.3264,-5.277,-5.2426,-5.2217,-5.1783,-5.1439,-5.1229,-5.1214,-5.1214,-5.1214,-5.1214,-5.1543,-5.2202,-5.286,-5.3773,-5.488,-5.5089,-5.5194,-5.7481,-5.7594,-5.6894,-5.5941,-5.5941,-5.6152,-5.6134,-5.5674,-5.5581,-5.6686,-5.7022,-5.7568,-5.898,-5.9865,-6.0933,-6.2548,-6.3539,-6.4549,-6.587,-6.6311,-6.6788,-6.7595,-6.7687,-6.7687,-6.7687,-6.7687,-6.7687,-6.7687,-6.7689,-6.7706,-6.7706,-6.7687,-6.7699,-6.7699,-6.7707,-6.7687,-6.7687,-6.7687,-6.7687,-6.7687,-6.7687,-6.7687,-6.7687,-6.7687,-6.7515,-6.7202,-6.7202,-6.6505,0.0,-6.4767,-6.4007,-6.3162,-6.262,-6.2381,-6.2381,-6.2381,-6.2381,-6.2381,-6.2381,-6.2381,-6.2381,-6.2381,-6.2381,-6.2381,-6.2381,-6.2381,-6.2381,-6.2381,-6.2381,-6.2381,-6.2381,-6.2381,-6.2381,-6.2381,-6.2381,-6.2381,-6.2381,-6.203,-6.1136,-5.917,-5.8451,-5.7496,-5.5551,-5.5194,-5.5194,-5.5194,-5.5194,-5.5044,-5.4625,-5.494,-5.5029,-5.4625,-5.494,-5.4745,-5.3668,-5.3189,-5.2845,-5.2591,-5.1947,-5.1468,-5.1229,-5.1214,-5.1214,-5.1214,-5.1214,-5.1543,-5.2202,-5.3129,-5.4132,-5.5194,-5.5194,-5.5194,0.0,-5.6715,-5.5701,-5.5689,-5.6208,-5.6723,-5.6582,-5.5549,0.0,-5.6438,-5.6232,-5.6512,-5.8853,-5.991,-6.0951,-6.264,-6.3507,-6.4306,-6.5168,-6.5922,-6.6691,-6.7496,-6.7542,-6.7542,-6.7588,-6.7652,-6.7707,-6.7707,-6.771,-6.7577,-6.733,-6.7314,-6.7314,-6.7314,-6.732,-6.7423,-6.7707,-6.7707,-6.7697,-6.7687,-6.7687,-6.7687,-6.7687,-6.7687,-6.723,-6.6404,-6.6404,-6.5429,-6.3774,-6.3719,-6.3219,-6.2498,-6.242,-6.2381,-6.2381,-6.2381,-6.2381,-6.2381,-6.2381,-6.2381,-6.2381,-6.233,-6.2262,-6.2229,-6.2229,-6.2296,-6.2381,-6.2381,-6.2381,-6.2381,-6.2381,-6.2381,-6.2381,-6.2381,-6.2381,-6.2381,-6.2381,-6.1537,-6.0332,-5.9036,-5.79,-5.6719,-5.5416,-5.5194,-5.5194,-5.5194,-5.5194,-5.5194,-5.5194,-5.5194,-5.5194,-5.5194,-5.5194,-5.494,-5.4326,-5.4192,-5.3847,-5.3159,-5.2501,-5.1858,-5.1244,-5.1214,-5.1214,-5.1214,-5.1274,-5.1618,-5.2276,-5.3578,-5.4551,-5.5194,-5.5194,-5.5194,-5.5184,0.0,-5.5709,-5.5716,-5.5403,-5.499,0.0,-5.4448,-5.4713,-5.5059,-5.5928,-5.718,-5.8978,-5.991,-6.1153,-6.3411,-6.3409,-6.3573,-6.4949,-6.5268,-6.5671,-6.6594,-6.6059,-6.5917,-6.6659,-6.7304,-6.7685,-6.7685,-6.7719,-6.6517,-6.3775,-6.3665,-6.3655,-6.3655,-6.3644,-6.4964,-6.7669,-6.7687,-6.7692,-6.7687,-6.7687,-6.7687,-6.7687,-6.7687,-6.723,-6.6404,-6.6404,-6.5748,-6.4648,-6.3971,-6.3591,-6.3314,-6.2659,-6.2381,-6.2381,-6.2381,-6.2381,-6.2381,-6.2381,-6.2381,-6.2296,-6.1738,-6.1146,-6.0639,-6.0639,-6.145,-6.2381,-6.2381,-6.2381,-6.2381,-6.2381,-6.2381,-6.2381,-6.2381,-6.2381,-6.2381,-6.2381,-6.2167,-6.1358,-5.9214,-5.8587,-5.7683,-5.5551,-5.5194,-5.5194,-5.5194,-5.5194,-5.5194,-5.5194,-5.5194,-5.5194,-5.5194,-5.5194,-5.5134,-5.497,-5.4012,-5.3144,-5.2471,-5.1813,-5.1379,-5.1229,-5.1214,-5.1214,-5.1214,-5.1708,-5.2291,-5.295,-5.3803,-5.4551,-5.5194,-5.5194,-5.5194,-5.3938,-5.4577,-5.5637,-5.5406,-5.5236,-5.5018,-5.4605,-5.4299,-5.4186,-5.4544,-5.525,-5.6333,-5.7905,-5.8823,-6.0007,-6.2076,-6.2285,-6.2743,-6.4299,-6.4796,-6.5196,-6.5698,-6.5311,-6.5214,-6.5698,-6.6171,-6.647,-6.647,-6.5699,-6.4444,-6.2509,-6.2385,-6.2397,-6.2397,-6.2397,-6.3327,-6.5256,-6.5256,-6.5796,-6.6871,-6.6871,-6.7158,-6.7687,-6.7687,-6.723,-6.6374,-6.5935,-6.5232,-6.4323,-6.3444,-6.3124,-6.3049,-6.2581,-6.2381,-6.2381,-6.2381,-6.2381,-6.2381,-6.2381,-6.2178,-6.1772,-6.0994,-6.0452,-6.0097,-6.0097,-6.0672,-6.1332,-6.1332,-6.1603,-6.189,-6.189,-6.2144,-6.2381,-6.2381,-6.2381,-6.2381,-6.2381,-6.1974,-6.1036,-5.917,-5.836,-5.7355,-5.5501,-5.5194,-5.5194,-5.5194,-5.5194,-5.5194,-5.5194,-5.5194,-5.5194,-5.5194,-5.5194,-5.5194,-5.5194,-5.4251,-5.3503,-5.3144,-5.2217,-5.1678,-5.1678,-5.1379,-5.1214,-5.1214,-5.1872,-5.2381,-5.2725,-5.3414,-5.3922,-5.4281,-5.4596,-5.4745,-5.3679,-5.4756,-5.5647,-5.4864,-5.5103,-5.5509,-5.5389,0.0,-5.3668,-5.4296,-5.4513,-5.5057,-5.6614,-5.764,-5.8786,-6.0313,-6.1178,-6.2073,-6.3262,-6.4088,-6.4631,-6.4783,-6.4665,-6.4682,-6.4852,-6.47,-6.4597,-6.4597,-6.3219,-6.24,-6.24,-6.2412,-6.2381,-6.2381,-6.1947,-6.1852,-6.2174,-6.2083,-6.3238,-6.5627,-6.5743,-6.6384,-6.7515,-6.766,-6.7127,-6.6156,-6.5344,-6.4427,-6.3444,-6.268,-6.2381,-6.2381,-6.2381,-6.2381,-6.2381,-6.2381,-6.2381,-6.2364,-6.2262,-6.167,-6.0842,-6.0148,-5.986,-5.9759,-5.9759,-5.9759,-5.9759,-5.9759,-6.0419,-6.1146,-6.1264,-6.1755,-6.2245,-6.2364,-6.2381,-6.2381,-6.2381,-6.1578,-6.0518,-5.9302,-5.8115,-5.6896,-5.5685,-5.533,-5.5194,-5.5194,-5.5194,-5.5194,-5.5194,-5.5194,-5.5194,-5.5194,-5.5194,-5.5194,-5.5194,-5.4685,-5.4326,-5.4221,-5.295,-5.2157,-5.2052,-5.1513,-5.1214,-5.1214,-5.1768,-5.2097,-5.2202,-5.2755,-5.3084,-5.3204,-5.3892,-5.4206,-5.4482,-5.5468,-5.5893,-5.416,-5.4262,-5.4601,-5.3973,-5.3669,-5.3534,-5.3651,-5.4154,-5.5057,-5.6614,-5.8061,-5.9534,-6.1091,-6.1907,-6.2174,-6.175,-6.2319,-6.3087,-6.381,-6.3257,-6.3193,-6.4125,-6.336,-6.2779,-6.2779,-6.2557,-6.239,-6.239,-6.2391,-6.2381,-6.2381,-5.9923,-5.943,-6.1091,-6.0693,-6.1778,-6.4374,-6.501,-6.5753,-6.6612,-6.7359,-6.6787,-6.5214,-6.5065,-6.4096,-6.2581,-6.2459,-6.2381,-6.2381,-6.2381,-6.2381,-6.2381,-6.2381,-6.2381,-6.2296,-6.1687,-6.0554,-5.9353,-5.9218,-5.8744,-5.8237,-5.8237,-5.8237,-5.8237,-5.8237,-5.9218,-6.0436,-6.1129,-6.1383,-6.1637,-6.2245,-6.2381,-6.2381,-6.2381,-6.2246,-6.1756,-6.056,-5.9346,-5.8131,-5.6943,-5.5869,-5.5194,-5.5194,-5.5194,-5.5194,-5.5194,-5.5194,-5.5194,-5.5194,-5.5194,-5.5194,-5.5194,-5.5104,-5.4805,-5.4251,-5.295,-5.1947,-5.1394,-5.1274,-5.1214,-5.1214,-5.1319,-5.1648,-5.2202,-5.2291,-5.2636,-5.3204,-5.3892,-5.4206,-5.4042,-5.4787,-5.5211,-5.433,-5.4955,-5.57,-5.5361,-5.4972,-5.4583,-5.4177,-5.4362,-5.4918,-5.6063,-5.7155,-5.8682,-6.0998,-6.1639,-6.1845,-6.19,-6.2178,-6.2559,-6.2952,-6.2659,-6.2593,-6.3127,-6.271,-6.2381,-6.2381,-6.2381,-6.2381,-6.2381,-6.2414,-6.1648,-6.0007,-5.8629,-5.8588,-6.008,-5.9315,-6.0197,-6.2697,-6.304,-6.41,-6.5777,-6.6162,-6.638,-6.6409,-6.5422,-6.4318,-6.3166,-6.2608,-6.2161,-6.1806,-6.1806,-6.1806,-6.1755,-6.1315,-6.1163,-6.1044,-6.0317,-5.9607,-5.8947,-5.8541,-5.8169,-5.7881,-5.7881,-5.7881,-5.7881,-5.7881,-5.8676,-5.9691,-6.0452,-6.0977,-6.1484,-6.2212,-6.2381,-6.2381,-6.2381,-6.2381,-6.203,-6.0812,-5.9626,-5.8405,-5.7213,-5.6001,-5.5194,-5.5194,-5.5194,-5.5194,-5.5194,-5.5194,-5.5194,-5.5194,-5.5194,-5.5194,-5.5194,-5.5194,-5.4745,-5.3713,-5.274,-5.1902,-5.1244,-5.1214,-5.1214,-5.1214,-5.1214,-5.1364,-5.1678,-5.1678,-5.2007,-5.2665,-5.3339,-5.3847,-5.3704,-5.416,-5.4634,-5.4803,-5.5581,-5.6376,-5.6714,-5.6105,-5.5395,-5.5158,-5.4972,-5.5074,-5.5835,-5.685,-5.8389,-6.0892,-6.145,-6.1755,-6.2313,-6.2381,-6.2381,-6.2381,-6.2381,-6.2381,-6.2381,-6.2381,-6.2381,-6.2381,-6.2386,-6.2408,-6.2408,-6.2394,-6.1028,-5.7985,-5.7909,-5.8354,-5.9287,-5.8373,-5.9001,-6.1185,-6.1207,-6.2336,-6.4337,-6.4746,-6.5522,-6.6442,-6.5046,-6.4034,-6.326,-6.2278,-6.1518,-6.1028,-6.1028,-6.1028,-6.0943,-6.0334,-5.9996,-5.9776,-5.9218,-5.8896,-5.866,-5.8068,-5.7881,-5.7881,-5.7881,-5.7881,-5.7881,-5.7881,-5.844,-5.9184,-5.9911,-6.0706,-6.1484,-6.2212,-6.2381,-6.2381,-6.2381,-6.2381,-6.2127,-6.1218,-6.0059,-5.8857,-5.7621,-5.6411,-5.5501,-5.5229,-5.5194,-5.5194,-5.5194,-5.5194,-5.5194,-5.5194,-5.5194,-5.5194,-5.5194,-5.491,-5.4281,-5.3249,-5.2411,-5.1753,-5.1244,-5.1214,-5.1214,-5.1214,-5.1214,-5.1214,-5.1214,-5.1214,-5.1558,-5.2217,-5.2875,-5.3548,-5.4329,-5.4549,-5.4752,-5.5463,-5.5192,-5.5108,-5.6494,-5.57,-5.504,-5.6376,-5.6105,-5.5869,-5.6579,-5.844,-6.0182,-6.1146,-6.1873,-6.233,-6.2381,-6.2381,-6.2381,-6.2381,-6.2381,-6.2381,-6.2381,-6.2381,-6.2381,-6.2381,-6.2402,-6.2377,-6.2377,-6.2383,-6.0998,-5.7997,-5.7896,-5.8251,-5.9011,-5.8287,-5.868,-6.0194,-6.0391,-6.0911,-6.183,-6.338,-6.3717,-6.3048,-6.2921,-6.2385,-6.1501,-6.0611,-6.0233,-6.0182,-6.0182,-6.0182,-6.0182,-6.0114,-5.9674,-5.9082,-5.9032,-5.8558,-5.7949,-5.7898,-5.7881,-5.7881,-5.7881,-5.7881,-5.7881,-5.7881,-5.844,-5.9184,-5.9911,-6.0706,-6.1484,-6.2212,-6.2381,-6.2381,-6.2381,-6.2381,-6.2381,-6.2302,-6.1317,-6.0102,-5.8902,-5.7668,-5.6493,-5.5381,-5.5194,-5.5194,-5.5194,-5.5194,-5.5194,-5.5194,-5.5194,-5.5194,-5.5194,-5.4042,-5.3279,-5.3189,-5.1992,-5.1274,-5.1214,-5.1214,-5.1214,-5.1214,-5.1214,-5.1214,-5.1214,-5.1214,-5.1558,-5.2217,-5.2875,-5.3548,-5.323,-5.3873,-5.4549,-5.438,-5.482,-5.5666,-5.7137,-5.7036,-5.6934,-5.7966,-5.7594,-5.7154,-5.7425,-5.8541,-5.9844,-6.1095,-6.1535,-6.1873,-6.233,-6.2381,-6.2381,-6.2381,-6.2381,-6.2381,-6.2381,-6.2381,-6.2386,-6.2402,-6.2394,-6.1566,-5.97,-5.9582,-5.9055,-5.795,-5.7881,-5.8028,-5.8304,-5.8034,-5.8169,-5.871,-5.8789,-5.9545,-6.0842,-6.1494,-6.2395,-6.3472,-6.2951,-6.2273,-6.1496,-6.1067,-6.0296,-5.9438,-5.9438,-5.915,-5.8727,-5.8727,-5.8558,-5.8321,-5.8321,-5.8118,-5.7881,-5.7881,-5.7881,-5.7881,-5.7881,-5.7881,-5.7881,-5.7881,-5.844,-5.9082,-5.9353,-6.0351,-6.1366,-6.1653,-6.1721,-6.1839,-6.2296,-6.2026,-6.1839,-6.2296,-6.1456,-6.0247,-5.8992,-5.7807,-5.6574,-5.5365,-5.5194,-5.5194,-5.5194,-5.5194,-5.5194,-5.5194,-5.5194,-5.5029,-5.461,-5.3713,-5.301,-5.2591,-5.1723,-5.1214,-5.1214,-5.1214,-5.1214,-5.1214,-5.1214,-5.1214,-5.1214,-5.1214,-5.1768,-5.2815,-5.3069,-5.3773,-5.252,-5.3264,-5.4177,-5.3923,-5.4617,-5.5869,-5.7797,-5.8068,-5.8169,-5.915,-5.8761,-5.8321,-5.8541,-5.9015,-5.9793,-6.1095,-6.1501,-6.1823,-6.2313,-6.2381,-6.2381,-6.2381,-6.2381,-6.2381,-6.2381,-6.2425,-6.2419,-6.2416,-6.152,-6.0072,-5.801,-5.7907,-5.7918,-5.7918,-5.7893,-5.7881,-5.7881,-5.7881,-5.7881,-5.7881,-5.7881,-5.8625,-5.9993,-5.9993,-6.1032,-6.2814,-6.2222,-6.1671,-6.1198,-6.1119,-6.0272,-5.8994,-5.8753,-5.8338,-5.7881,-5.7881,-5.7881,-5.7881,-5.7881,-5.7881,-5.7881,-5.7881,-5.7881,-5.7881,-5.7881,-5.7881,-5.7881,-5.7881,-5.844,-5.8964,-5.8727,-5.9793,-6.0926,-6.0926,-6.0926,-6.1129,-6.189,-6.1653,-6.1518,-6.2245,-6.1716,-6.0644,-5.9081,-5.8131,-5.7039,-5.5416,-5.5194,-5.5194,-5.5194,-5.5194,-5.5119,-5.491,-5.488,-5.461,-5.3937,-5.3264,-5.268,-5.2232,-5.1588,-5.1214,-5.1214,-5.1214,-5.1214,-5.1214,-5.1214,-5.1214,-5.1214,-5.1214,-5.1887,-5.3174,-5.3174,-5.3907,-5.2503,-5.2892,-5.367,-5.4397,-5.4583,-5.5395,-5.8338,-5.844,-5.8321,-5.981,-5.9539,-5.9252,-5.9979,-6.0097,-6.0368,-6.118,-6.1907,-6.2381,-6.2381,-6.2381,-6.2381,-6.2381,-6.2381,-6.2381,-6.2381,-6.2385,-6.2382,-6.2365,-5.9599,-5.7891,-5.7891,-5.789,-5.7881,-5.7881,-5.7881,-5.7881,-5.7881,-5.7865,-5.7865,-5.7865,-5.7865,-5.83,-5.9111,-5.9111,-5.9574,-6.0414,-6.0414,-6.0414,-6.0414,-6.0384,-5.9896,-5.9027,-5.8227,-5.7881,-5.7881,-5.7881,-5.7881,-5.7881,-5.7881,-5.7881,-5.7881,-5.7881,-5.7881,-5.7881,-5.7881,-5.7881,-5.7881,-5.7881,-5.8423,-5.8829,-5.8084,-5.8981,-6.008,-6.008,-6.008,-6.0317,-6.1112,-6.1298,-6.1501,-6.2245,-6.2381,-6.1619,-5.9214,-5.8812,-5.7946,-5.5551,-5.5179,-5.5179,-5.5194,-5.5179,-5.494,-5.4281,-5.4206,-5.3922,-5.3234,-5.2576,-5.2202,-5.2187,-5.1573,-5.1214,-5.1214,-5.1214,-5.1214,-5.1214,-5.1214,-5.1214,-5.1214,-5.1214,-5.1887,-5.3174,-5.3174,-5.3907,-5.1099,-5.2097,-5.3416,-5.3078,-5.4955,-5.7137,-5.8017,-5.8457,-5.9116,-6.0639,-6.0774,-6.052,-6.0165,-6.0097,-6.0368,-6.118,-6.1484,-6.1806,-6.2313,-6.1941,-6.1637,-6.1637,-6.146,-6.1609,-6.2327,-6.2421,-6.152,-5.9376,-5.842,-5.7914,-5.791,-5.7879,-5.7881,-5.7881,-5.7391,-5.712,-5.712,-5.6613,-5.6359,-5.6359,-5.6359,-5.7327,-5.9111,-5.9111,-5.9574,-6.0414,-6.0414,-6.0414,-6.0353,-5.9736,-5.9344,-5.9027,-5.8227,-5.7881,-5.7881,-5.7881,-5.7881,-5.7881,-5.7881,-5.7881,-5.7881,-5.7881,-5.7881,-5.7881,-5.7881,-5.7881,-5.7881,-5.7881,-5.8051,-5.8169,-5.7949,-5.8203,-5.8676,-5.9201,-5.9336,-5.9539,-6.03,-6.0469,-6.0689,-6.1467,-6.1364,-6.0644,-5.9081,-5.772,-5.6278,-5.4724,-5.4506,-5.467,-5.5134,-5.479,-5.4431,-5.4236,-5.3773,-5.3219,-5.2546,-5.2306,-5.2007,-5.1543,-5.1334,-5.1214,-5.1214,-5.1214,-5.1214,-5.1214,-5.1214,-5.1214,-5.1214,-5.1214,-5.1663,-5.2501,-5.2965,-5.3653,-5.1606,-5.2672,-5.3957,-5.4059,-5.6004,-5.8135,-5.9032,-5.959,-6.0266,-6.1484,-6.1501,-6.1247,-6.1044,-6.0503,-6.0368,-6.118,-6.1298,-6.1349,-6.1467,-6.1383,-6.1247,-6.1155,-6.0821,-6.1053,-6.2275,-6.134,-5.9851,-5.8046,-5.7897,-5.7907,-5.7898,-5.7881,-5.7625,-5.7029,-5.6881,-5.6664,-5.6376,-5.5936,-5.5681,-5.5681,-5.5681,-5.6594,-5.8227,-5.8539,-5.9294,-6.0414,-6.0748,-6.0897,-6.082,-5.9974,-5.9606,-5.9509,-5.8352,-5.7881,-5.7881,-5.7881,-5.7881,-5.7881,-5.7881,-5.7881,-5.7881,-5.7881,-5.7881,-5.7881,-5.7881,-5.7881,-5.7881,-5.7881,-5.7881,-5.7881,-5.7881,-5.7881,-5.8,-5.8457,-5.8558,-5.8778,-5.9505,-5.9674,-5.9894,-6.0672,-6.0271,-5.9378,-5.8185,-5.6644,-5.5207,-5.3969,-5.3803,-5.3952,-5.4341,-5.4042,-5.3698,-5.3443,-5.3039,-5.2531,-5.1872,-5.1813,-5.1633,-5.1244,-5.1214,-5.1214,-5.1214,-5.1214,-5.1214,-5.1214,-5.1214,-5.1214,-5.1214,-5.1214,-5.1558,-5.2217,-5.2875,-5.3548,-5.3095,-5.3873,-5.4854,-5.641,-5.7509,-5.8744,-6.0825,-6.1349,-6.1586,-6.2245,-6.1873,-6.1586,-6.2178,-6.1146,-6.0419,-6.1078,-6.1197,-6.0943,-6.0199,-6.0672,-6.0998,-6.0812,-6.0258,-6.0469,-6.1862,-5.9509,-5.7911,-5.7911,-5.789,-5.7881,-5.7881,-5.778,-5.708,-5.5806,-5.6286,-5.6292,-5.5632,-5.5547,-5.5513,-5.5513,-5.5513,-5.5928,-5.6725,-5.7686,-5.8986,-6.0567,-6.1257,-6.1586,-6.153,-6.079,-6.0476,-6.026,-5.8651,-5.7937,-5.7881,-5.7881,-5.7881,-5.7881,-5.7881,-5.7881,-5.7881,-5.7881,-5.7881,-5.7881,-5.7881,-5.7881,-5.7881,-5.7881,-5.7881,-5.7881,-5.7881,-5.7881,-5.7881,-5.7881,-5.7881,-5.8068,-5.8761,-5.8964,-5.9218,-5.9877,-5.9091,-5.7986,-5.6873,-5.5595,-5.4375,-5.3263,-5.3099,-5.3114,-5.3174,-5.3129,-5.286,-5.2261,-5.2157,-5.1872,-5.1274,-5.1214,-5.1214,-5.1214,-5.1214,-5.1214,-5.1214,-5.1214,-5.1214,-5.1214,-5.1214,-5.1214,-5.1214,-5.1214,-5.1528,-5.2127,-5.2845,-5.3518,-5.1657,-5.2706,-5.4228,-5.6292,-5.8693,-6.0706,-6.1197,-6.1738,-6.2195,-6.2364,-6.2262,-6.2026,-6.1603,-6.1264,-6.0892,-6.0436,-6.0368,-6.03,-6.0114,-5.9759,-5.9539,-5.9719,-5.89,-5.8493,-5.8821,-5.829,-5.7913,-5.7913,-5.7915,-5.7881,-5.7881,-5.679,-5.6215,-5.625,-5.5495,-5.4989,-5.4837,-5.4262,-5.3974,-5.3974,-5.3974,-5.4364,-5.5196,-5.7828,-5.9864,-6.1361,-6.153,-6.1586,-6.1604,-6.1418,-6.0967,-6.0291,-5.9262,-5.8441,-5.7881,-5.7881,-5.7881,-5.7881,-5.7881,-5.7881,-5.7881,-5.7881,-5.7881,-5.7881,-5.7881,-5.7881,-5.7881,-5.7881,-5.7881,-5.7881,-5.7881,-5.7881,-5.7881,-5.7881,-5.7881,-5.7932,-5.8101,-5.8592,-5.9066,-5.9218,-5.8056,-5.7002,-5.6744,-5.4542,-5.2715,-5.2459,-5.2411,-5.2591,-5.3114,-5.2725,-5.2351,-5.2217,-5.1738,-5.1379,-5.1229,-5.1214,-5.1214,-5.1214,-5.1214,-5.1214,-5.1214,-5.1214,-5.1214,-5.1214,-5.1214,-5.1214,-5.1214,-5.1214,-5.1289,-5.1454,-5.2636,-5.3264,-5.2012,-5.3145,-5.4634,-5.7222,-5.9302,-6.0723,-6.0723,-6.1315,-6.1873,-6.1873,-6.2144,-6.2161,-6.1434,-6.0994,-6.0469,-5.9708,-5.9573,-5.9455,-5.9099,-5.9032,-5.8913,-5.8696,-5.8223,-5.7881,-5.7881,-5.7881,-5.7881,-5.7881,-5.7887,-5.7289,-5.5883,-5.5722,-5.5473,-5.5034,-5.4734,-5.4431,-5.4076,-5.3687,-5.3501,-5.3501,-5.3501,-5.4092,-5.5272,-5.7653,-5.9147,-5.9974,-6.0701,-6.0799,-6.0467,-6.0467,-6.0218,-5.9726,-5.887,-5.829,-5.7881,-5.7881,-5.7881,-5.7881,-5.7881,-5.7881,-5.7881,-5.7881,-5.7881,-5.7881,-5.7881,-5.7881,-5.7881,-5.7881,-5.7881,-5.7881,-5.7881,-5.7881,-5.7881,-5.7881,-5.7881,-5.7881,-5.7881,-5.8203,-5.8309,-5.7754,-5.6613,-5.5522,-5.496,-5.3116,-5.1738,-5.1738,-5.1738,-5.1858,-5.2202,-5.1947,-5.1738,-5.1738,-5.1424,-5.1214,-5.1214,-5.1214,-5.1214,-5.1214,-5.1214,-5.1214,-5.1214,-5.1214,-5.1214,-5.1214,-5.1214,-5.1214,-5.1214,-5.1214,-5.1214,-5.1244,-5.2247,-5.271,-5.2553,-5.4025,-5.5598,-5.8169,-5.9471,-6.0063,-5.9945,-6.052,-6.1061,-6.0943,-6.1484,-6.1806,-6.1214,-6.0452,-5.9674,-5.8947,-5.8829,-5.8609,-5.7983,-5.8423,-5.8592,-5.7966,-5.7881,-5.7881,-5.7881,-5.7881,-5.7918,-5.792,-5.7429,-5.608,-5.3628,-5.4675,-5.4817,-5.3735,-5.416,-5.411,-5.3518,-5.3501,-5.3501,-5.3501,-5.3651,-5.4352,-5.5654,-5.7182,-5.8052,-5.8388,-5.9662,-5.991,-5.9399,-5.9267,-5.9133,-5.8913,-5.8055,-5.7638,-5.7509,-5.7509,-5.7509,-5.7526,-5.7662,-5.7695,-5.7729,-5.7848,-5.7881,-5.7881,-5.7881,-5.7881,-5.7881,-5.7881,-5.7881,-5.7881,-5.7881,-5.7881,-5.7881,-5.7881,-5.7881,-5.7881,-5.7881,-5.7881,-5.7554,-5.6415,-5.5174,-5.3956,-5.2827,-5.1804,-5.1214,-5.1214,-5.1214,-5.1214,-5.1214,-5.1214,-5.1214,-5.1214,-5.1214,-5.1214,-5.1214,-5.1214,-5.1214,-5.1214,-5.1214,-5.1214,-5.1214,-5.1214,-5.1214,-5.1214,-5.1214,-5.1214,-5.1214,-5.1214,-5.1214,-5.1229,-5.1887,-5.2202,-5.1251,-5.3957,-5.6748,-5.778,-5.9082,-5.9928,-5.9302,-5.9725,-6.008,-5.9455,-5.9894,-6.0385,-6.0283,-5.9658,-5.8913,-5.8169,-5.8034,-5.8,-5.7898,-5.7966,-5.8,-5.7898,-5.7881,-5.7881,-5.7881,-5.7881,-5.7903,-5.7895,-5.5549,-5.3918,-5.3519,-5.368,-5.3989,-5.443,-5.394,-5.3602,-5.3501,-5.3501,-5.3501,-5.3501,-5.4154,-5.4565,-5.4807,-5.6362,-5.7827,-5.9159,-5.9365,-5.9765,-6.0195,-5.9548,-5.8866,-5.8166,-5.7349,-5.6608,-5.6004,-5.6004,-5.6004,-5.6105,-5.6731,-5.6951,-5.7053,-5.7679,-5.7881,-5.7881,-5.7881,-5.7881,-5.7881,-5.7881,-5.7881,-5.7881,-5.7881,-5.7881,-5.7881,-5.7881,-5.7881,-5.7881,-5.7881,-5.7881,-5.7554,-5.6415,-5.4557,-5.2783,-5.1635,-5.1308,-5.1214,-5.1214,-5.1214,-5.1214,-5.1214,-5.1214,-5.1214,-5.1214,-5.1214,-5.1214,-5.1214,-5.1214,-5.1214,-5.1214,-5.1214,-5.1214,-5.1214,-5.1214,-5.1214,-5.1214,-5.1214,-5.1214,-5.1214,-5.1214,-5.1214,-5.1229,-5.1887,-5.2202,-5.1403,-5.3365,-5.5327,-5.6884,-5.8068,-5.8778,-5.8457,-5.8964,-5.9404,-5.9082,-5.893,-5.8981,-5.9421,-5.9235,-5.8778,-5.8017,-5.7881,-5.7881,-5.7881,-5.7881,-5.7881,-5.7881,-5.7881,-5.7881,-5.7881,-5.7881,-5.7217,-5.5566,-5.4226,-5.3486,-5.3495,-5.3482,-5.367,-5.3974,-5.367,-5.3501,-5.3501,-5.3501,-5.3501,-5.3501,-5.4668,-5.5012,-5.4651,-5.6195,-5.7291,-5.7993,-5.8394,-5.8768,-5.8996,-5.8268,-5.771,-5.7317,-5.6516,-5.6008,-5.5681,-5.5681,-5.5681,-5.5732,-5.6089,-5.619,-5.6241,-5.6562,-5.6951,-5.7273,-5.7273,-5.756,-5.7881,-5.7881,-5.7881,-5.7881,-5.7881,-5.7881,-5.7881,-5.7881,-5.7881,-5.7881,-5.7881,-5.7881,-5.7389,-5.5651,-5.3483,-5.1804,-5.1308,-5.1214,-5.1214,-5.1214,-5.1214,-5.1214,-5.1214,-5.1214,-5.1214,-5.1214,-5.1214,-5.1214,-5.1214,-5.1214,-5.1214,-5.1214,-5.1214,-5.1214,-5.1214,-5.1214,-5.1214,-5.1214,-5.1214,-5.1214,-5.1214,-5.1214,-5.1214,-5.1229,-5.1513,-5.1648,-5.12,-5.2452,-5.3653,-5.5497,-5.6799,-5.7611,-5.7611,-5.8186,-5.8727,-5.8727,-5.8271,-5.8068,-5.8626,-5.8727,-5.8541,-5.7983,-5.7881,-5.7881,-5.7881,-5.7881,-5.7881,-5.7881,-5.7881,-5.7881,-5.7881,-5.7558,-5.6431,-5.4224,-5.3707,-5.3495,-5.35,-5.3501,-5.3501,-5.3501,-5.3501,-5.3501,-5.3501,-5.3501,-5.3501,-5.3534,-5.4999,-5.5408,-5.4922,-5.6492,-5.7184,-5.7209,-5.7565,-5.7839,-5.7932,-5.7209,-5.6734,-5.644,-5.5732,-5.5322,-5.5158,-5.5158,-5.5158,-5.5175,-5.5378,-5.5429,-5.5463,-5.5649,-5.6089,-5.6528,-5.6528,-5.69,-5.7374,-5.756,-5.7611,-5.7645,-5.7831,-5.7881,-5.7881,-5.7881,-5.7881,-5.7808,-5.7537,-5.726,-5.6487,-5.4531,-5.2575,-5.1214,-5.1214,-5.1214,-5.1214,-5.1214,-5.1214,-5.1214,-5.1214,-5.1214,-5.1214,-5.1214,-5.1214,-5.1214,-5.1214,-5.1214,-5.1214,-5.1214,-5.1214,-5.1214,-5.1214,-5.1214,-5.1214,-5.1214,-5.1214,-5.1214,-5.1214,-5.1214,-5.1214,-5.1214,-5.1214,-5.1214,-4.9796,-5.1268,-5.257,-5.345,-5.5277,-5.6867,-5.6867,-5.7425,-5.7949,-5.7949,-5.7915,-5.7898,-5.7932,-5.7949,-5.7932,-5.7898,-5.7881,-5.7881,-5.7881,-5.7881,-5.7881,-5.7881,-5.7881,-5.7881,-5.7881,-5.6655,-5.5741,-5.5595,-5.4275,-5.35,-5.3501,-5.3518,-5.3501,-5.3501,-5.3501,-5.3501,-5.3501,-5.3501,-5.3501,-5.3534,-5.4999,-5.5678,-5.5706,-5.7223,-5.7932,-5.7909,-5.7234,-5.7351,-5.7932,-5.7209,-5.6456,-5.5674,-5.4931,-5.4239,-5.3619,-5.3619,-5.3619,-5.3721,-5.4397,-5.4651,-5.4769,-5.548,-5.575,-5.5784,-5.5784,-5.5766,-5.597,-5.6664,-5.6867,-5.7019,-5.7712,-5.7881,-5.7881,-5.7881,-5.7881,-5.7591,-5.6531,-5.5474,-5.4421,-5.3193,-5.2018,-5.1214,-5.1214,-5.1214,-5.1214,-5.1214,-5.1214,-5.1214,-5.1214,-5.1214,-5.1214,-5.1214,-5.1214,-5.1214,-5.1214,-5.1214,-5.1214,-5.1214,-5.1214,-5.1214,-5.1214,-5.1214,-5.1214,-5.1214,-5.1214,-5.1214,-5.1214,-5.1214,-5.1214,-5.1214,-5.1214,-5.1214,-4.8984,-4.9779,-5.0591,-5.23,-5.3721,-5.4938,-5.5886,-5.6664,-5.7323,-5.7797,-5.7881,-5.7881,-5.7881,-5.7881,-5.7881,-5.7881,-5.7881,-5.7881,-5.7881,-5.7881,-5.7881,-5.7881,-5.7881,-5.7881,-5.7881,-5.7439,-5.6573,-5.5289,-5.4696,-5.4141,-5.3551,-5.3501,-5.3501,-5.3501,-5.3501,-5.3501,-5.3501,-5.3501,-5.3501,-5.3534,-5.4999,-5.5706,-5.5734,-5.7315,-5.7997,-5.7997,-5.7726,-5.775,-5.7932,-5.7209,-5.6438,-5.5621,-5.4909,-5.4154,-5.3501,-5.3501,-5.3501,-5.3551,-5.3805,-5.389,-5.394,-5.4211,-5.4617,-5.4989,-5.4989,-5.5327,-5.5869,-5.6596,-5.6799,-5.6968,-5.7695,-5.7881,-5.7881,-5.7881,-5.7881,-5.7389,-5.5571,-5.4863,-5.4253,-5.3121,-5.1972,-5.1214,-5.1214,-5.1214,-5.1214,-5.1214,-5.1214,-5.1214,-5.1214,-5.1214,-5.1214,-5.1214,-5.1214,-5.1214,-5.1214,-5.1214,-5.1214,-5.1214,-5.1214,-5.1214,-5.1214,-5.1214,-5.1214,-5.1214,-5.1214,-5.1214,-5.1214,-5.1214,-5.1214,-5.1214,-5.1214,-5.1214,-4.7936,-4.8629,-4.9407,-5.1133,-5.2334,-5.3501,-5.5006,-5.5716,-5.6275,-5.7002,-5.7357,-5.7526,-5.7526,-5.7729,-5.7881,-5.7881,-5.7881,-5.7881,-5.7881,-5.7881,-5.7881,-5.7881,-5.7881,-5.7881,-5.7881,-5.7679,-5.6865,-5.5289,-5.4951,-5.4412,-5.3551,-5.3501,-5.3501,-5.3501,-5.3501,-5.3501,-5.3501,-5.323,-5.3112,-5.3128,-5.4628,-5.5193,-5.5018,-5.7061,-5.785,-5.7611,-5.7886,-5.7997,-5.7973,-5.7474,-5.665,-5.5649,-5.5144,-5.4359,-5.3501,-5.3501,-5.3501,-5.3501,-5.3501,-5.3501,-5.3501,-5.3501,-5.3822,-5.4228,-5.4228,-5.4583,-5.5175,-5.6156,-5.6444,-5.6664,-5.7628,-5.7881,-5.7881,-5.7881,-5.7881,-5.7297,-5.5084,-5.4589,-5.4168,-5.2604,-5.1727,-5.1214,-5.1214,-5.1214,-5.1214,-5.1214,-5.1214,-5.1214,-5.1214,-5.1214,-5.1214,-5.1214,-5.1214,-5.1214,-5.1214,-5.1214,-5.1214,-5.1214,-5.1214,-5.1214,-5.1214,-5.1214,-5.1214,-5.1214,-5.1214,-5.1214,-5.1214,-5.1214,-5.1214,-5.1214,-5.1214,-5.1214,0.0,0.0,0.0,-4.9847,-5.1133,-5.2604,-5.4143,-5.4515,-5.4752,-5.553,-5.6241,-5.6748,-5.6765,-5.7357,-5.7865,-5.7865,-5.7881,-5.7881,-5.7881,-5.7881,-5.7881,-5.7881,-5.7881,-5.7881,-5.7881,-5.7256,-5.6528,-5.5801,-5.5057,-5.4296,-5.3568,-5.3518,-5.3501,-5.3501,-5.3501,-5.3501,-5.3467,-5.2689,-5.2283,-5.2332,-5.3836,-5.4168,-5.3539,-5.6576,-5.7538,-5.684,-5.7648,-5.7997,-5.7997,-5.7973,-5.708,-5.5706,-5.5678,-5.4774,-5.3501,-5.3501,-5.3501,-5.3501,-5.3501,-5.3501,-5.3501,-5.3501,-5.3501,-5.3501,-5.3501,-5.3501,-5.3822,-5.5294,-5.5681,-5.6055,-5.7509,-5.7881,-5.7881,-5.7881,-5.7881,-5.726,-5.5084,-5.4589,-5.3871,-5.1635,-5.1214,-5.1214,-5.1214,-5.1214,-5.1214,-5.1214,-5.1214,-5.1214,-5.1214,-5.1214,-5.1214,-5.1214,-5.1214,-5.1214,-5.1214,-5.1214,-5.1214,-5.1214,-5.1214,-5.1214,-5.1214,-5.1214,-5.1214,-5.1214,-5.1214,-5.1214,-5.1214,-5.1214,-5.1214,-5.1214,-5.1214,-5.1214,-4.5805,0.0,0.0,0.0,0.0,0.0,-5.1809,-5.2553,-5.3315,-5.4634,-5.5057,-5.5361,-5.5919,-5.6613,-5.7103,-5.7103,-5.7543,-5.7881,-5.7881,-5.7881,-5.7881,-5.7881,-5.7881,-5.7881,-5.7881,-5.7712,-5.7289,-5.6562,-5.5818,-5.5074,-5.4329,-5.3788,-5.3501,-5.3501,-5.3501,-5.323,-5.2638,-5.2418,-5.2287,-5.2303,-5.3278,-5.3887,-5.4255,-5.6234,-5.7024,-5.684,-5.7648,-5.7997,-5.7973,-5.7425,-5.6624,-5.5667,-5.5114,-5.4328,-5.3501,-5.3501,-5.3501,-5.3501,-5.3501,-5.3501,-5.3501,-5.3501,-5.3501,-5.3501,-5.3501,-5.3501,-5.3822,-5.5294,-5.5681,-5.6055,-5.7509,-5.7881,-5.7881,-5.7881,-5.726,-5.6298,-5.492,-5.3956,-5.2945,-5.1464,-5.1214,-5.1214,-5.1214,-5.1214,-5.1214,-5.1214,-5.1214,-5.1214,-5.1214,-5.1214,-5.1214,-5.1214,-5.1214,-5.1214,-5.1214,-5.1214,-5.1214,-5.1214,-5.1214,-5.1214,-5.1214,-5.1214,-5.1214,-5.1214,-5.1214,-5.1214,-5.1214,-5.1214,-5.1214,-5.1214,-5.1214,-5.1214,-4.5585,-4.5703,-4.5991,-4.7158,0.0,0.0,-5.0338,-5.0845,-5.1352,-5.2875,-5.3433,-5.3873,-5.4651,-5.5395,-5.5987,-5.6292,-5.6968,-5.7543,-5.7848,-5.7881,-5.7881,-5.7881,-5.7881,-5.7881,-5.7881,-5.7881,-5.7577,-5.6867,-5.6139,-5.526,-5.4194,-5.3737,-5.3348,-5.301,-5.301,-5.2638,-5.186,-5.1539,-5.1529,-5.184,-5.2589,-5.3137,-5.3574,-5.545,-5.6124,-5.5849,-5.6638,-5.7189,-5.7414,-5.6345,-5.5829,-5.5621,-5.4909,-5.4154,-5.3501,-5.3501,-5.3501,-5.3501,-5.3501,-5.3501,-5.3501,-5.3501,-5.3501,-5.3501,-5.3501,-5.3501,-5.3822,-5.5294,-5.6156,-5.6816,-5.7679,-5.7881,-5.7755,-5.7297,-5.6663,-5.5712,-5.3871,-5.293,-5.2236,-5.1373,-5.1214,-5.1214,-5.1214,-5.1214,-5.1214,-5.1214,-5.1214,-5.1214,-5.1214,-5.1214,-5.1214,-5.1214,-5.1214,-5.1214,-5.1214,-5.1214,-5.1214,-5.1214,-5.1214,-5.1214,-5.1214,-5.1214,-5.1214,-5.1214,-5.1214,-5.1214,-5.1214,-5.1214,-5.1214,-5.1214,-5.1214,-5.1214,-4.5703,-4.5652,-4.5754,-4.6481,-4.6735,0.0,-4.939,-4.9407,-4.9407,-5.0794,-5.1606,-5.23,-5.3112,-5.3839,-5.4549,-5.5226,-5.6038,-5.6884,-5.7782,-5.7918,-5.7881,-5.7881,-5.7881,-5.7881,-5.7881,-5.7881,-5.7628,-5.6968,-5.6173,-5.5074,-5.3585,-5.3501,-5.3129,-5.2334,-5.23,-5.1911,-5.1099,-5.0422,-5.0465,-5.1188,-5.1852,-5.219,-5.2302,-5.4473,-5.5078,-5.4436,-5.5159,-5.5888,-5.6433,-5.4982,-5.4914,-5.5621,-5.4787,-5.4074,-5.3501,-5.3501,-5.3501,-5.3501,-5.3501,-5.3501,-5.3501,-5.3501,-5.3501,-5.3501,-5.3501,-5.3501,-5.3788,-5.5209,-5.6579,-5.7645,-5.7645,-5.7645,-5.7392,-5.6392,-5.5957,-5.5091,-5.2522,-5.1769,-5.1519,-5.1146,-5.1109,-5.1109,-5.1109,-5.1169,-5.1214,-5.1214,-5.1214,-5.1214,-5.1214,-5.1214,-5.1214,-5.1214,-5.1214,-5.1214,-5.1214,-5.1214,-5.1214,-5.1214,-5.1214,-5.1214,-5.1214,-5.1214,-5.1214,-5.1214,-5.1214,-5.1214,-5.1214,-5.1214,-5.1214,-5.1214,-5.1214,-5.1214,-4.5703,-4.5263,-4.4976,-4.5737,-4.6363,0.0,-4.8105,-4.868,-4.9255,-5.0118,-5.0422,-5.076,-5.1522,-5.2249,-5.279,-5.2942,-5.4262,-5.5889,-5.7658,-5.7906,-5.7881,-5.7881,-5.7881,-5.7881,-5.7881,-5.7881,-5.7831,-5.7695,-5.6461,-5.5074,-5.3585,-5.3501,-5.3129,-5.2334,-5.23,-5.1657,-5.0321,-5.0168,-5.0429,-5.1105,-5.1264,-5.192,-5.3017,-5.4136,-5.4546,-5.4414,-5.4672,-5.4876,-5.496,-5.4046,-5.4507,-5.5581,-5.4218,-5.3651,-5.3501,-5.3501,-5.3501,-5.3501,-5.3501,-5.3501,-5.3501,-5.3501,-5.3501,-5.3501,-5.3501,-5.3501,-5.3687,-5.4566,-5.5446,-5.6139,-5.6139,-5.6139,-5.6052,-5.5856,-5.4469,-5.3086,-5.2499,-5.1045,-4.993,-5.0301,-5.039,-5.039,-5.039,-5.0823,-5.1214,-5.1214,-5.1214,-5.1214,-5.1214,-5.1214,-5.1214,-5.1214,-5.1214,-5.1214,-5.1214,-5.1214,-5.1214,-5.1214,-5.1214,-5.1214,-5.1214,-5.1214,-5.1214,-5.1214,-5.1214,-5.1214,-5.1214,-5.1214,-5.1214,-5.1214,-5.1214,-5.1214,-4.6244,-4.5432,-4.4784,-4.5517,-4.5974,0.0,0.0,-4.8176,-4.8663,-4.9407,-4.9543,-4.9779,-5.0524,-5.0947,-5.1319,-5.1691,-5.3127,-5.4381,-5.4889,-5.6652,-5.7908,-5.7908,-5.7903,-5.7881,-5.7881,-5.7881,-5.7577,-5.6867,-5.6139,-5.5074,-5.3585,-5.3129,-5.2553,-5.1792,-5.1386,-5.0676,-4.956,-4.9543,-5.0071,-5.1086,-5.1086,-5.1825,-5.3203,-5.3628,-5.3812,-5.3769,-5.3479,-5.358,-5.3862,-5.2783,-5.3037,-5.4005,-5.3656,-5.3501,-5.3501,-5.3501,-5.3501,-5.3501,-5.3501,-5.3501,-5.3501,-5.3501,-5.3501,-5.3501,-5.3501,-5.3754,-5.4126,-5.4482,-5.5141,-5.5681,-5.5681,-5.5681,-5.5559,-5.501,-5.3629,-5.2261,-5.1344,-4.9923,-4.888,-4.9194,-4.9523,-4.9957,-5.0569,-5.1005,-5.1214,-5.1214,-5.1214,-5.1214,-5.1214,-5.1214,-5.1214,-5.1214,-5.1214,-5.1214,-5.1214,-5.1214,-5.1214,-5.1214,-5.1214,-5.1214,-5.1214,-5.1214,-5.1214,-5.1214,-5.1214,-5.1214,-5.1214,-5.1214,-5.1214,-5.1214,-5.1214,-5.1214,-4.7005,-4.6024,-4.5173,-4.5754,-4.6024,-4.6447,0.0,0.0,0.0,-4.8883,-4.9001,-4.9137,-4.9593,-4.9678,-4.9864,-5.049,-5.1736,-5.2362,-5.1558,-5.4177,-5.6379,-5.6958,-5.7175,-5.7306,-5.7459,-5.734,-5.6833,-5.5801,-5.5446,-5.4769,-5.3568,-5.2739,-5.1961,-5.1202,-5.0473,-4.9746,-4.9018,-4.9001,-4.971,-5.1086,-5.1086,-5.1825,-5.3185,-5.3185,-5.3185,-5.3164,-5.2289,-5.2288,-5.2765,-5.1507,-5.1368,-5.2046,-5.2951,-5.3281,-5.3298,-5.345,-5.3501,-5.3501,-5.3501,-5.3501,-5.3501,-5.3501,-5.3501,-5.3501,-5.3501,-5.3923,-5.438,-5.438,-5.482,-5.5294,-5.5294,-5.512,-5.4716,-5.3799,-5.265,-5.1396,-4.9921,-4.8943,-4.8327,-4.8446,-4.9,-4.9793,-5.0855,-5.1124,-5.1214,-5.1214,-5.1214,-5.1214,-5.1214,-5.1214,-5.1214,-5.1214,-5.1214,-5.1214,-5.1214,-5.1214,-5.1214,-5.1214,-5.1214,-5.1214,-5.1214,-5.1214,-5.1214,-5.1214,-5.1214,-5.1214,-5.1214,-5.1214,-5.1214,-5.1214,-5.1214,-5.1214,-4.78,-4.7175,-4.6566,-4.665,-4.7175,-4.7686,-4.7855,0.0,-4.89,-4.8984,0.0,-4.8832,-4.8257,0.0,0.0,-4.8244,-4.8968,-4.9478,-4.9356,-4.9722,-5.0995,-5.3684,-5.4582,-5.5226,-5.5902,-5.5361,-5.5175,-5.5647,-5.4499,-5.3687,-5.3518,-5.2739,-5.1961,-5.1202,-5.0473,-4.9746,-4.9018,-4.9001,-4.971,-5.1086,-5.1086,-5.1825,-5.3185,-5.3185,-5.3185,-5.3143,-5.1801,-5.1268,-5.1289,-5.0553,-5.0275,-5.0512,-5.1876,-5.2435,-5.252,-5.3247,-5.3501,-5.3501,-5.3501,-5.3501,-5.3501,-5.3501,-5.3501,-5.3501,-5.3501,-5.3568,-5.3619,-5.3619,-5.3687,-5.3754,-5.3754,-5.3034,-5.2277,-5.2168,-5.0644,-4.9149,-4.8949,-4.8609,-4.8461,-4.909,-4.9688,-5.0121,-5.0285,-5.0794,-5.1214,-5.1214,-5.1214,-5.1214,-5.1214,-5.1214,-5.1214,-5.1214,-5.1214,-5.1214,-5.1214,-5.1214,-5.1214,-5.1214,-5.1214,-5.1214,-5.1214,-5.1214,-5.1214,-5.1214,-5.1214,-5.1214,-5.1214,-5.1214,-5.1214,-5.1214,-5.1214,-5.1214,-4.7889,-4.7361,-4.6904,-4.7344,-4.7361,-4.7378,-4.7787,-4.7817,-4.7716,-4.7716,0.0,0.0,0.0,0.0,0.0,0.0,-4.8436,-4.9009,-4.8993,-4.9005,-4.9883,-5.2337,-5.3416,-5.4245,-5.4989,-5.4769,-5.4718,-5.504,-5.4093,-5.3501,-5.3501,-5.2334,-5.1539,-5.1202,-5.0067,-4.9306,-4.9001,-4.9001,-4.971,-5.1086,-5.1086,-5.1825,-5.3185,-5.3185,-5.3185,-5.3124,-5.1703,-5.1086,-5.0999,-4.9906,-4.9458,-4.956,-5.0608,-5.1285,-5.1758,-5.252,-5.2807,-5.2875,-5.3348,-5.3501,-5.3501,-5.3501,-5.3501,-5.3501,-5.3501,-5.3501,-5.3501,-5.3501,-5.3501,-5.3501,-5.3501,-5.2697,-5.1921,-5.1921,-5.0326,-4.8893,-4.9295,-4.8822,-4.8596,-4.9628,-5.0001,-5.0315,-5.0689,-5.0988,-5.1214,-5.1214,-5.1214,-5.1214,-5.1214,-5.1214,-5.1214,-5.1214,-5.1214,-5.1214,-5.1214,-5.1214,-5.1214,-5.1214,-5.1214,-5.1214,-5.1214,-5.1214,-5.1214,-5.1214,-5.1214,-5.1214,-5.1214,-5.1214,-5.1214,-5.1214,-5.1214,-5.1214,-4.8156,-4.7817,-4.753,-4.8088,-4.7665,-4.7242,-4.78,-4.7496,-4.7107,-4.7107,-4.7259,0.0,0.0,0.0,-4.7081,-4.7426,0.0,-4.8436,-4.8565,-4.8599,-4.9325,-5.1237,-5.2301,-5.3162,-5.389,-5.3585,-5.3518,-5.394,-5.3095,-5.2655,-5.2875,-5.1623,-5.0913,-5.0913,-4.9661,-4.9001,-4.9001,-4.9001,-4.961,-5.0796,-5.1008,-5.1728,-5.2915,-5.2915,-5.2915,-5.2831,-5.1411,-5.0796,-5.0689,-4.9509,-4.9001,-4.9052,-4.9593,-5.0135,-5.0727,-5.1657,-5.2131,-5.2384,-5.2976,-5.3315,-5.3501,-5.3501,-5.3501,-5.3501,-5.3501,-5.3501,-5.3501,-5.3501,-5.3501,-5.3501,-5.3501,-5.2697,-5.1832,-5.1541,-5.0253,-4.912,-4.9351,-4.9078,-4.9105,-5.0001,-5.0345,-5.0614,-5.1139,-5.1214,-5.1214,-5.1214,-5.1214,-5.1214,-5.1214,-5.1214,-5.1214,-5.1214,-5.1214,-5.1214,-5.1214,-5.1214,-5.1214,-5.1214,-5.1214,-5.1214,-5.1214,-5.1214,-5.1214,-5.1214,-5.1214,-5.1214,-5.1214,-5.1214,-5.1214,-5.1214,-5.1214,-5.1214,-4.8781,-4.8951,-4.8934,-4.8968,-4.8426,-4.7855,-4.7889,-4.7872,-4.7855,-4.7855,-4.8443,-4.8714,-4.799,-4.7656,-4.7477,-4.7494,-4.715,0.0,0.0,-4.7545,-4.8199,-4.9949,-5.0828,-5.1572,-5.23,-5.1082,-5.0828,-5.2266,-5.1031,-5.0524,-5.1251,-5.0541,-5.0135,-5.0135,-4.9407,-4.9001,-4.9001,-4.9001,-4.9359,-5.0044,-5.077,-5.1469,-5.2136,-5.2136,-5.2136,-5.2065,-5.0662,-5.0033,-4.9976,-4.9286,-4.9001,-4.9001,-4.9035,-4.9052,-4.9255,-5.071,-5.1708,-5.23,-5.2334,-5.2858,-5.3501,-5.3501,-5.3501,-5.3501,-5.3501,-5.3501,-5.3501,-5.3501,-5.3501,-5.3501,-5.3501,-5.2697,-5.1651,-5.0665,-5.0079,-4.9497,-4.8559,-4.9269,-5.0136,-5.0181,-5.0704,-5.1184,-5.1214,-5.1214,-5.1214,-5.1214,-5.1214,-5.1214,-5.1214,-5.1214,-5.1214,-5.1214,-5.1214,-5.1214,-5.1214,-5.1214,-5.1214,-5.1214,-5.1214,-5.1214,-5.1214,-5.1214,-5.1214,-5.1214,-5.1214,-5.1214,-5.1214,-5.1214,-5.1214,-5.1214,-5.1214,-5.1214,-4.8088,-4.8291,-4.8409,-4.8883,-4.846,-4.7753,-4.7293,-4.7175,-4.7039,-4.6549,-4.7039,-4.7348,-4.6752,-4.657,-4.6625,-4.6969,-4.715,-4.7548,0.0,-4.8061,-4.799,-4.8578,-4.9729,-5.0574,-5.0811,-5.0388,-5.0507,-5.1505,-5.0659,-5.0422,-5.1166,-5.049,-5.0084,-5.0084,-4.9373,-4.9001,-4.9001,-4.8528,-4.8596,-4.9271,-4.953,-5.004,-5.0738,-5.1212,-5.1444,-5.1393,-5.0417,-5.0004,-4.9947,-4.9286,-4.9001,-4.9001,-4.9001,-4.9001,-4.912,-5.0118,-5.0625,-5.098,-5.1961,-5.2841,-5.3501,-5.3501,-5.3501,-5.3501,-5.3501,-5.3501,-5.3501,-5.3501,-5.3501,-5.3348,-5.2627,-5.1667,-5.0627,-4.9575,-4.8753,-4.8311,-4.882,-4.9284,-4.9853,-5.072,-5.1018,-5.1214,-5.1214,-5.1214,-5.1214,-5.1214,-5.1214,-5.1214,-5.1214,-5.1214,-5.1214,-5.1214,-5.1214,-5.1214,-5.1214,-5.1214,-5.1214,-5.1214,-5.1214,-5.1214,-5.1214,-5.1214,-5.1214,-5.1214,-5.1214,-5.1214,-5.1214,-5.1214,-5.1214,-5.1214,-5.1214,-5.1214,-4.731,-4.7513,-4.7699,-4.8426,-4.7868,-4.7141,-4.7192,-4.6989,-4.6735,-4.6532,-4.7073,-4.7466,-4.7123,-4.7072,-4.7177,-4.7535,-4.7848,-4.8078,0.0,-4.7581,-4.7111,-4.7111,-4.8426,-4.9424,-4.9678,-4.9712,-4.9915,-5.0388,-4.9982,-4.9915,-5.0405,-4.9965,-4.9712,-4.9712,-4.9255,-4.8883,-4.8612,-4.8125,-4.7971,-4.8163,-4.838,-4.8746,-4.9213,-4.9706,-5.0075,-5.0285,-4.955,-4.9394,-4.9622,-4.9182,-4.9001,-4.9001,-4.9001,-4.9001,-4.9069,-4.9526,-5.0033,-5.0659,-5.1877,-5.2841,-5.3501,-5.3501,-5.3501,-5.3501,-5.3501,-5.3501,-5.3501,-5.3501,-5.3501,-5.3264,-5.2189,-5.1431,-5.0573,-4.9135,-4.8477,-4.8311,-4.8864,-4.9284,-4.9868,-5.0705,-5.1065,-5.1214,-5.1214,-5.1214,-5.1214,-5.1214,-5.1214,-5.1214,-5.1214,-5.1214,-5.1214,-5.1214,-5.1214,-5.1214,-5.1214,-5.1214,-5.1214,-5.1214,-5.1214,-5.1214,-5.1214,-5.1214,-5.1214,-5.1214,-5.1214,-5.1214,-5.1214,-5.1214,-5.1214,-5.1214,-5.1214,-5.1214]},{"header":{"parameterUnit":"m.s-1","parameterCategory":1,"la1":30.6,"la2":29.2853,"lo1":-89.7004,"lo2":-87.6739,"dy":0.0162,"dx":0.0183,"nx":112,"ny":82,"refTime":"2024-05-23T06:00:00:Z","depth":0,"parameterNumber":3,"parameterNumberName":"V-component_of_WINDS"},"data":[0.0,0.0,0.0,0.0,0.0,0.0,0.0,0.0,0.0,0.0,0.0,0.0,0.0,0.0,0.0,0.0,0.0,0.0,0.0,0.0,0.0,0.0,0.0,0.0,0.0,0.0,0.0,0.0,0.0,0.0,0.0,0.0,0.0,0.0,0.0,0.0,0.0,0.0,0.0,0.0,0.0,0.0,0.0,0.0,0.0,0.0,0.0,0.0,0.0,0.0,0.0,0.0,0.0,0.0,0.0,0.0,0.0,0.0,0.0,0.0,0.0,0.0,0.0,0.0,0.0,0.0,0.0,0.0,0.0,0.0,0.0,0.0,0.0,0.0,0.0,0.0,0.0,0.0,0.0,0.0,0.0,0.0,0.0,0.0,0.0,0.0,0.0,0.0,0.0,0.0,-3.3525,-3.4287,-3.5693,-3.6572,-3.6572,-3.6572,-3.5799,-3.3861,0.0,0.0,0.0,0.0,0.0,0.0,0.0,0.0,0.0,0.0,0.0,0.0,0.0,0.0,0.0,0.0,0.0,0.0,0.0,0.0,0.0,0.0,0.0,0.0,0.0,0.0,0.0,0.0,0.0,0.0,0.0,0.0,0.0,0.0,0.0,0.0,0.0,0.0,0.0,0.0,0.0,0.0,0.0,0.0,0.0,0.0,0.0,0.0,0.0,0.0,0.0,0.0,0.0,0.0,0.0,0.0,0.0,0.0,0.0,0.0,0.0,0.0,0.0,0.0,0.0,0.0,0.0,0.0,0.0,0.0,0.0,0.0,0.0,0.0,0.0,0.0,0.0,0.0,0.0,0.0,0.0,0.0,0.0,0.0,0.0,0.0,0.0,0.0,0.0,0.0,0.0,0.0,0.0,0.0,0.0,0.0,0.0,0.0,0.0,0.0,0.0,0.0,0.0,0.0,-3.3223,-3.5478,-3.5957,-3.6123,-3.6123,-3.6123,-3.5855,-3.5294,0.0,0.0,0.0,0.0,0.0,0.0,0.0,0.0,0.0,0.0,0.0,0.0,0.0,0.0,0.0,0.0,0.0,0.0,0.0,0.0,0.0,0.0,0.0,0.0,0.0,0.0,0.0,0.0,0.0,0.0,0.0,0.0,0.0,0.0,0.0,0.0,0.0,0.0,0.0,0.0,0.0,0.0,0.0,0.0,0.0,0.0,0.0,0.0,0.0,0.0,0.0,0.0,0.0,0.0,0.0,0.0,0.0,0.0,0.0,0.0,0.0,0.0,0.0,0.0,0.0,0.0,0.0,0.0,0.0,0.0,0.0,0.0,0.0,0.0,0.0,0.0,0.0,0.0,0.0,0.0,0.0,0.0,0.0,0.0,0.0,0.0,0.0,0.0,0.0,0.0,0.0,0.0,0.0,0.0,0.0,0.0,0.0,0.0,0.0,0.0,0.0,0.0,0.0,-3.2871,-3.3662,-3.5791,-3.6016,-3.6016,-3.6016,-3.6016,-3.5918,-3.5644,-3.5576,0.0,0.0,0.0,0.0,0.0,0.0,0.0,0.0,0.0,0.0,0.0,0.0,0.0,0.0,0.0,0.0,0.0,0.0,0.0,0.0,0.0,0.0,0.0,0.0,0.0,0.0,0.0,0.0,0.0,0.0,0.0,0.0,0.0,0.0,0.0,0.0,0.0,0.0,0.0,0.0,0.0,0.0,0.0,0.0,0.0,0.0,0.0,0.0,0.0,0.0,0.0,0.0,0.0,0.0,0.0,0.0,0.0,0.0,0.0,0.0,0.0,0.0,0.0,0.0,0.0,0.0,0.0,0.0,0.0,0.0,0.0,0.0,0.0,0.0,0.0,0.0,0.0,0.0,0.0,0.0,0.0,0.0,0.0,0.0,0.0,0.0,0.0,0.0,0.0,0.0,0.0,0.0,0.0,0.0,0.0,0.0,0.0,0.0,0.0,0.0,0.0,0.0,-3.3857,-3.4541,-3.5879,-3.6016,-3.6142,-3.6606,-3.6251,-3.6162,-3.6535,-3.6324,0.0,0.0,0.0,0.0,0.0,0.0,0.0,0.0,0.0,0.0,0.0,0.0,0.0,0.0,0.0,0.0,0.0,0.0,0.0,0.0,0.0,0.0,0.0,0.0,0.0,0.0,0.0,0.0,0.0,0.0,0.0,0.0,0.0,0.0,0.0,0.0,0.0,0.0,0.0,0.0,0.0,0.0,0.0,0.0,0.0,0.0,0.0,0.0,0.0,0.0,0.0,0.0,0.0,0.0,0.0,0.0,0.0,0.0,0.0,0.0,0.0,0.0,0.0,0.0,0.0,0.0,0.0,0.0,0.0,0.0,0.0,0.0,0.0,0.0,0.0,0.0,0.0,0.0,0.0,0.0,0.0,0.0,0.0,0.0,0.0,0.0,0.0,0.0,0.0,0.0,0.0,0.0,0.0,0.0,0.0,0.0,0.0,0.0,0.0,0.0,0.0,0.0,-3.4365,-3.5889,-3.6006,-3.6016,-3.6674,-3.8277,-3.6972,-3.7018,-3.9161,-3.7411,0.0,0.0,0.0,0.0,0.0,0.0,0.0,0.0,0.0,0.0,0.0,0.0,0.0,0.0,0.0,0.0,0.0,0.0,0.0,0.0,0.0,0.0,0.0,0.0,0.0,0.0,0.0,0.0,0.0,0.0,0.0,0.0,0.0,0.0,0.0,0.0,0.0,0.0,0.0,0.0,0.0,0.0,0.0,0.0,0.0,0.0,0.0,0.0,0.0,0.0,0.0,0.0,0.0,0.0,0.0,0.0,0.0,0.0,0.0,0.0,0.0,0.0,0.0,0.0,0.0,0.0,0.0,0.0,0.0,0.0,0.0,0.0,0.0,0.0,0.0,0.0,0.0,0.0,0.0,0.0,0.0,0.0,0.0,0.0,0.0,0.0,0.0,0.0,0.0,0.0,0.0,0.0,0.0,0.0,0.0,0.0,0.0,0.0,0.0,0.0,0.0,0.0,-3.3476,-3.4814,-3.5908,-3.6016,-3.6732,-3.8476,-3.7733,-3.7843,-3.9492,0.0,0.0,0.0,0.0,0.0,0.0,0.0,0.0,0.0,0.0,0.0,0.0,0.0,0.0,0.0,0.0,0.0,0.0,0.0,0.0,0.0,0.0,0.0,0.0,0.0,0.0,0.0,0.0,0.0,0.0,0.0,0.0,0.0,0.0,0.0,0.0,0.0,0.0,0.0,0.0,0.0,0.0,0.0,0.0,0.0,0.0,0.0,0.0,0.0,0.0,0.0,0.0,0.0,0.0,0.0,0.0,0.0,0.0,0.0,0.0,0.0,0.0,0.0,0.0,0.0,0.0,0.0,0.0,0.0,0.0,0.0,0.0,0.0,0.0,0.0,0.0,0.0,0.0,0.0,0.0,0.0,0.0,0.0,0.0,0.0,0.0,0.0,0.0,0.0,0.0,0.0,0.0,0.0,0.0,0.0,0.0,0.0,0.0,0.0,0.0,0.0,0.0,-3.2725,-3.3618,-3.4987,-3.7355,-3.7183,-3.7704,-3.9801,-3.8993,-3.8784,-3.9818,0.0,0.0,0.0,0.0,0.0,0.0,0.0,0.0,0.0,0.0,0.0,0.0,0.0,0.0,0.0,0.0,0.0,0.0,0.0,0.0,0.0,0.0,0.0,0.0,0.0,0.0,0.0,0.0,0.0,0.0,0.0,0.0,0.0,0.0,0.0,0.0,0.0,0.0,0.0,0.0,0.0,0.0,0.0,0.0,0.0,0.0,0.0,0.0,0.0,0.0,0.0,0.0,0.0,0.0,0.0,0.0,0.0,0.0,0.0,0.0,0.0,0.0,0.0,0.0,0.0,0.0,0.0,0.0,0.0,0.0,0.0,0.0,0.0,0.0,0.0,0.0,0.0,0.0,0.0,0.0,0.0,0.0,0.0,0.0,0.0,0.0,0.0,0.0,0.0,0.0,0.0,0.0,0.0,0.0,0.0,0.0,0.0,0.0,0.0,0.0,0.0,0.0,-3.4385,-3.5144,-3.6953,-4.0815,-3.9638,-3.9758,-4.2676,-4.0903,-3.9893,0.0,0.0,0.0,0.0,0.0,0.0,0.0,0.0,0.0,0.0,0.0,0.0,0.0,0.0,0.0,0.0,0.0,0.0,0.0,0.0,0.0,0.0,0.0,0.0,0.0,0.0,0.0,0.0,0.0,0.0,0.0,0.0,0.0,0.0,0.0,0.0,0.0,0.0,0.0,0.0,0.0,0.0,0.0,0.0,0.0,0.0,0.0,0.0,0.0,0.0,0.0,0.0,0.0,0.0,0.0,0.0,0.0,0.0,0.0,0.0,0.0,0.0,0.0,0.0,0.0,0.0,0.0,0.0,0.0,0.0,0.0,0.0,0.0,0.0,0.0,0.0,0.0,0.0,0.0,0.0,0.0,0.0,0.0,0.0,0.0,0.0,0.0,0.0,0.0,0.0,0.0,0.0,0.0,0.0,0.0,0.0,0.0,0.0,0.0,0.0,0.0,0.0,0.0,-3.4086,-3.6721,-3.9115,-4.1027,-4.0731,-4.1107,-4.2737,-4.1567,-4.0676,-4.052,0.0,0.0,0.0,0.0,0.0,0.0,0.0,0.0,0.0,0.0,0.0,0.0,0.0,0.0,0.0,0.0,0.0,0.0,0.0,0.0,0.0,0.0,0.0,0.0,0.0,0.0,0.0,0.0,0.0,0.0,0.0,0.0,0.0,0.0,0.0,0.0,0.0,0.0,0.0,0.0,0.0,0.0,0.0,0.0,0.0,0.0,0.0,0.0,0.0,0.0,0.0,0.0,0.0,0.0,0.0,0.0,0.0,0.0,0.0,0.0,0.0,0.0,0.0,0.0,0.0,0.0,0.0,0.0,0.0,0.0,0.0,0.0,0.0,0.0,0.0,0.0,0.0,0.0,0.0,0.0,0.0,0.0,0.0,0.0,0.0,0.0,0.0,0.0,0.0,0.0,0.0,0.0,0.0,0.0,0.0,0.0,0.0,0.0,0.0,0.0,0.0,0.0,-3.5324,-3.7996,-4.0502,-4.2708,-4.2464,-4.2541,-4.3505,-4.2763,-4.1634,-4.0285,0.0,0.0,0.0,0.0,0.0,0.0,0.0,0.0,0.0,0.0,0.0,0.0,0.0,0.0,0.0,0.0,0.0,0.0,0.0,0.0,0.0,0.0,0.0,0.0,0.0,0.0,0.0,0.0,0.0,0.0,0.0,0.0,0.0,0.0,0.0,0.0,0.0,0.0,0.0,0.0,0.0,0.0,0.0,0.0,0.0,0.0,0.0,0.0,0.0,0.0,0.0,0.0,0.0,0.0,0.0,0.0,0.0,0.0,0.0,0.0,0.0,0.0,0.0,0.0,0.0,0.0,0.0,0.0,0.0,0.0,0.0,0.0,0.0,0.0,0.0,0.0,0.0,0.0,0.0,0.0,0.0,0.0,0.0,0.0,0.0,0.0,0.0,0.0,0.0,0.0,0.0,0.0,0.0,0.0,0.0,0.0,0.0,0.0,0.0,0.0,0.0,0.0,-3.7328,-3.899,-4.1376,-4.5026,-4.4451,-4.4002,-4.4457,-4.4041,-4.2597,-3.9936,0.0,0.0,0.0,0.0,0.0,0.0,0.0,0.0,0.0,0.0,0.0,0.0,0.0,0.0,0.0,0.0,0.0,0.0,0.0,0.0,0.0,0.0,0.0,0.0,0.0,0.0,0.0,0.0,0.0,0.0,0.0,0.0,0.0,0.0,0.0,0.0,0.0,0.0,0.0,0.0,0.0,0.0,0.0,0.0,0.0,0.0,0.0,0.0,0.0,0.0,0.0,0.0,0.0,0.0,0.0,0.0,0.0,0.0,0.0,0.0,-2.0131,-1.9897,0.0,0.0,0.0,0.0,0.0,0.0,0.0,0.0,0.0,0.0,0.0,0.0,0.0,0.0,0.0,0.0,0.0,0.0,0.0,0.0,0.0,0.0,0.0,0.0,0.0,0.0,0.0,0.0,0.0,0.0,0.0,0.0,0.0,0.0,0.0,0.0,0.0,0.0,0.0,0.0,-3.6988,-4.0159,-4.2922,-4.4636,-4.4543,-4.4273,-4.3971,-4.3476,-4.2346,-4.0463,-3.8868,0.0,0.0,0.0,0.0,0.0,0.0,0.0,0.0,0.0,0.0,0.0,0.0,0.0,0.0,0.0,0.0,0.0,0.0,0.0,0.0,0.0,0.0,0.0,0.0,0.0,0.0,0.0,0.0,0.0,0.0,0.0,0.0,0.0,0.0,0.0,0.0,0.0,0.0,0.0,0.0,0.0,0.0,0.0,0.0,0.0,0.0,0.0,0.0,0.0,0.0,0.0,0.0,0.0,0.0,0.0,0.0,0.0,0.0,0.0,-2.0955,-2.0615,0.0,0.0,0.0,0.0,0.0,0.0,0.0,0.0,0.0,0.0,0.0,0.0,0.0,0.0,0.0,0.0,0.0,0.0,0.0,0.0,0.0,0.0,0.0,0.0,0.0,0.0,0.0,0.0,0.0,0.0,0.0,0.0,0.0,0.0,0.0,0.0,0.0,0.0,0.0,0.0,-3.7743,-4.0865,-4.33,-4.4141,-4.4468,-4.4405,-4.3853,-4.3539,-4.2559,-4.0639,-3.9195,0.0,0.0,0.0,0.0,0.0,0.0,0.0,0.0,0.0,0.0,0.0,0.0,0.0,0.0,0.0,0.0,0.0,0.0,0.0,0.0,0.0,0.0,0.0,0.0,0.0,0.0,0.0,0.0,0.0,0.0,0.0,0.0,0.0,0.0,0.0,0.0,0.0,0.0,0.0,0.0,0.0,0.0,0.0,0.0,0.0,0.0,0.0,0.0,0.0,0.0,0.0,0.0,0.0,-2.2138,-2.238,-2.3014,-2.2538,-2.2614,-2.3008,-2.1994,-2.1675,-2.1792,-2.1181,0.0,0.0,0.0,0.0,0.0,0.0,0.0,0.0,0.0,0.0,0.0,0.0,0.0,0.0,0.0,0.0,0.0,0.0,0.0,0.0,0.0,0.0,-3.0723,-3.1045,-3.1113,-3.0723,-2.9277,0.0,0.0,0.0,0.0,0.0,0.0,0.0,0.0,0.0,0.0,0.0,-3.8793,-4.1191,-4.3049,-4.3589,-4.4066,-4.4154,-4.3689,-4.3664,-4.2798,-4.0789,-3.9722,-3.8404,0.0,0.0,0.0,0.0,0.0,0.0,0.0,0.0,0.0,0.0,0.0,0.0,0.0,0.0,0.0,0.0,0.0,0.0,0.0,0.0,0.0,0.0,0.0,0.0,0.0,0.0,0.0,0.0,0.0,0.0,0.0,0.0,-1.5361,-1.2976,0.0,0.0,0.0,0.0,0.0,0.0,0.0,0.0,0.0,0.0,0.0,0.0,0.0,-2.223,-2.27,-2.2982,-2.3093,-2.318,-2.3418,-2.3579,-2.3665,-2.3579,-2.3585,-2.3665,-2.3499,0.0,-2.2659,-2.2097,0.0,0.0,0.0,0.0,0.0,0.0,0.0,0.0,0.0,0.0,0.0,0.0,0.0,0.0,0.0,0.0,0.0,0.0,0.0,0.0,0.0,0.0,-3.2373,-3.207,-3.2002,-3.1994,-3.1769,-3.0215,-2.8887,-2.8779,-2.9128,-2.9806,0.0,0.0,0.0,0.0,0.0,0.0,-3.8831,-4.0905,-4.2527,-4.3024,-4.315,-4.3162,-4.3087,-4.3087,-4.2559,-4.1263,-4.0651,-3.9546,-3.7864,-3.6659,0.0,0.0,0.0,0.0,0.0,0.0,0.0,0.0,0.0,0.0,0.0,0.0,0.0,0.0,0.0,0.0,0.0,0.0,0.0,0.0,0.0,0.0,0.0,0.0,0.0,0.0,0.0,0.0,0.0,-1.3386,-1.2639,-1.2519,-1.1745,-1.1482,0.0,0.0,0.0,0.0,0.0,0.0,0.0,0.0,0.0,-1.9502,-2.0774,-2.2077,-2.3378,-2.349,-2.3692,-2.379,-2.397,-2.4134,-2.4227,-2.4227,-2.4227,-2.4227,-2.4227,-2.4082,-2.3773,-2.3008,-2.2559,-2.2484,0.0,0.0,0.0,0.0,-3.0608,-3.1435,-3.2363,-3.2422,-3.209,-3.1992,0.0,0.0,0.0,0.0,0.0,0.0,0.0,-3.1396,-3.206,-3.2519,-3.2803,-3.2861,-3.2871,-3.2871,-3.2871,-3.1943,-3.1229,-3.1619,-3.1906,-3.2362,-3.3419,-3.3962,0.0,0.0,0.0,-3.8806,-3.9685,-4.1178,-4.2426,-4.2924,-4.2974,-4.2974,-4.2974,-4.274,-4.2183,-4.1338,-4.0526,-3.9584,-3.853,-3.7172,-3.5994,0.0,0.0,0.0,0.0,0.0,0.0,0.0,0.0,0.0,0.0,0.0,0.0,0.0,0.0,0.0,0.0,0.0,0.0,0.0,0.0,0.0,0.0,0.0,0.0,0.0,0.0,0.0,0.0,-1.0872,-1.0895,-1.2005,-1.1167,-1.0436,0.0,0.0,0.0,0.0,0.0,0.0,-1.277,-1.4365,-1.6518,-1.9261,-2.0804,-2.2397,-2.3988,-2.401,-2.4134,-2.4308,-2.4308,-2.4395,-2.4636,-2.4636,-2.4636,-2.4636,-2.4636,-2.4636,-2.4502,-2.3855,-2.3374,-2.3247,-2.4421,-2.5732,-2.7101,-2.9394,-3.1286,-3.2812,-3.3867,-3.416,-3.4004,-3.3594,-3.3018,-3.2285,-3.1191,0.0,0.0,0.0,0.0,-3.2021,-3.2764,-3.2949,-3.3037,-3.335,-3.3418,-3.3418,-3.3418,-3.3174,-3.3198,-3.4098,-3.4312,-3.4767,-3.5808,-3.6293,0.0,-3.7177,-3.8517,-3.9798,-4.0626,-4.1693,-4.2577,-4.2936,-4.2974,-4.2924,-4.2841,-4.2451,-4.1856,-4.1112,-4.0362,-3.9659,-3.9158,-3.7788,-3.6671,-3.5934,0.0,0.0,0.0,0.0,0.0,0.0,0.0,0.0,0.0,0.0,0.0,0.0,0.0,0.0,0.0,0.0,0.0,0.0,0.0,0.0,0.0,0.0,0.0,0.0,0.0,0.0,0.0,0.0,0.0,-1.0751,-1.0769,0.0,0.0,0.0,0.0,-1.1128,-1.1406,-1.3273,-1.7164,-1.7475,-1.9487,-2.3766,-2.3944,-2.4229,-2.4589,-2.4542,-2.4556,-2.4562,-2.4562,-2.4562,-2.4636,-2.4636,-2.4636,-2.4636,-2.4636,-2.4636,-2.4609,-2.4289,-2.3988,-2.39,-2.5204,-2.6739,-2.8328,-3.0364,-3.2367,-3.4043,-3.4512,-3.4404,-3.4209,-3.5,-3.4394,-3.3271,-3.2803,-3.21,0.0,0.0,-3.2422,-3.2832,-3.3271,-3.3389,-3.3389,-3.3418,-3.3418,-3.3418,-3.3418,-3.3408,-3.3733,-3.4925,-3.5504,-3.6307,-3.7878,0.0,-3.9508,-3.9534,-4.0488,-4.1175,-4.1238,-4.2258,-4.2949,-4.2974,-4.2974,-4.276,-4.2288,-4.2225,-4.1747,-4.0626,-4.0513,-4.0224,-3.9672,-3.9069,-3.8228,-3.7123,-3.6019,0.0,0.0,0.0,0.0,0.0,0.0,0.0,0.0,0.0,0.0,0.0,0.0,0.0,0.0,0.0,0.0,0.0,0.0,0.0,0.0,0.0,0.0,0.0,0.0,0.0,0.0,0.0,0.0,-1.096,-1.1087,0.0,-1.1294,-1.1396,-1.1494,-1.1586,-1.1786,-1.2627,-1.4113,-1.6814,-1.8964,-2.0556,-2.3119,-2.4529,-2.4636,-2.4636,-2.4636,-2.4636,-2.4636,-2.4636,-2.4636,-2.4636,-2.4636,-2.4636,-2.4636,-2.4636,-2.4556,-2.4523,-2.4422,-2.4434,-2.5868,-2.7524,-2.9425,-3.1346,-3.3261,-3.498,-3.54,-3.5449,-3.5332,-3.5381,-3.4873,-3.4219,-3.4062,-3.3809,-3.3594,-3.375,-3.3906,-3.4053,-3.4209,-3.4043,-3.3838,-3.3838,-3.3633,-3.3418,-3.3418,-3.3418,-3.3852,-3.5301,-3.6551,-3.7988,-3.9904,-4.0819,-4.104,-4.0337,-4.1153,-4.1869,-4.1869,-4.2522,-4.2974,-4.2974,-4.2974,-4.2748,-4.2263,-4.1831,-4.1153,-4.0061,-3.9647,-3.9371,-3.917,-3.8278,-3.76,-3.7199,-3.606,-3.4781,0.0,0.0,0.0,0.0,0.0,0.0,0.0,0.0,0.0,0.0,0.0,0.0,0.0,0.0,0.0,0.0,0.0,0.0,0.0,0.0,0.0,0.0,0.0,0.0,0.0,-1.0538,-1.0989,-1.1237,-1.1497,-1.1636,-1.1687,-1.1786,-1.1884,-1.1979,-1.2125,-1.2553,-1.3333,-1.6683,-1.8981,-1.9741,-2.2937,-2.4643,-2.4804,-2.4643,-2.4636,-2.4636,-2.4636,-2.4636,-2.4636,-2.4636,-2.4636,-2.4636,-2.4636,-2.4636,-2.4636,-2.4636,-2.4636,-2.4683,-2.5686,-2.7639,-3.0025,-3.1288,-3.3408,-3.5644,-3.5928,-3.6016,-3.5976,-3.5693,-3.5303,-3.4932,-3.4932,-3.4824,-3.4697,-3.4697,-3.4697,-3.4697,-3.4697,-3.4492,-3.4248,-3.4101,-3.3848,-3.3603,-3.3447,-3.3418,-3.4017,-3.6173,-3.7495,-3.8788,-4.0733,-4.184,-4.2183,-4.1455,-4.1969,-4.2489,-4.2489,-4.2748,-4.2974,-4.2974,-4.2974,-4.2685,-4.1944,-4.1379,-4.0676,-3.9747,-3.8994,-3.8668,-3.8906,-3.7965,-3.7374,-3.7186,-3.606,-3.4781,-3.3357,0.0,0.0,0.0,0.0,0.0,0.0,0.0,0.0,0.0,0.0,0.0,0.0,0.0,0.0,0.0,0.0,0.0,0.0,0.0,0.0,0.0,0.0,0.0,-1.0705,-1.0819,-1.1292,-1.1424,-1.184,-1.2013,-1.1867,-1.2121,-1.2298,-1.2298,-1.2423,-1.334,-1.5319,-1.7445,-1.9595,-2.1831,-2.3659,-2.4757,-2.5086,-2.4817,-2.4636,-2.4636,-2.4636,-2.4636,-2.4636,-2.4636,-2.4636,-2.4636,-2.4636,-2.4636,-2.4636,-2.4636,-2.4636,-2.4636,-2.4636,-2.691,-3.031,-3.031,-3.2735,-3.6016,-3.6016,-3.6016,-3.6016,-3.6016,-3.5752,-3.541,-3.541,-3.5098,-3.4736,-3.4736,-3.4736,-3.4736,-3.4736,-3.4726,-3.4609,-3.4189,-3.4082,-3.3955,-3.3516,-3.3418,-3.4383,-3.7506,-3.8223,-3.8817,-4.0419,-4.1968,-4.2974,-4.2974,-4.2974,0.0,-4.2974,-4.2974,-4.2974,-4.2974,-4.2974,-4.2534,-4.1401,-4.0811,-4.0287,-3.9697,-3.8617,-3.8253,-3.8869,-3.8278,-3.7726,-3.7199,-3.6119,-3.4994,-3.3947,0.0,0.0,0.0,0.0,0.0,0.0,0.0,0.0,0.0,0.0,0.0,0.0,0.0,0.0,0.0,0.0,0.0,0.0,0.0,0.0,0.0,-1.2886,-1.141,-1.0697,-1.1133,-1.1512,-1.1638,-1.2053,-1.225,-1.2311,-1.2393,-1.2444,-1.2444,-1.2478,-1.2778,-1.3432,-1.6893,-1.9219,-1.9916,-2.3438,-2.5277,-2.5367,-2.5107,-2.4972,-2.4972,-2.4723,-2.4636,-2.4636,-2.4636,-2.4636,-2.4636,-2.4636,-2.4636,-2.4636,-2.4636,-2.4636,-2.4636,-2.4636,-2.691,-3.031,-3.031,-3.2735,-3.6016,-3.6016,-3.6016,-3.6016,-3.6016,-3.5937,-3.585,-3.585,-3.5752,-3.5654,-3.5654,-3.5654,-3.5654,-3.5654,-3.543,-3.5088,-3.4629,-3.4297,-3.3955,-3.3516,-3.432,-3.5386,-3.6284,-3.832,-4.0476,-4.2081,-4.2737,-4.2974,-4.2974,-4.2974,-4.2974,-4.2974,-4.2974,-4.2974,-4.2974,-4.2974,-4.2698,-4.1982,-4.143,-4.0538,-3.9182,-3.8417,-3.8078,-3.8241,-3.7701,-3.7337,-3.7186,-3.6496,-3.5793,0.0,0.0,0.0,0.0,0.0,0.0,0.0,0.0,0.0,0.0,0.0,0.0,0.0,0.0,0.0,0.0,0.0,0.0,0.0,0.0,0.0,0.0,-1.4281,-1.2689,-1.231,-1.1886,-1.175,-1.188,-1.2219,-1.2413,-1.2491,-1.2501,-1.2501,-1.2501,-1.2562,-1.3021,-1.4039,-1.7286,-1.9611,-2.0703,-2.3841,-2.5571,-2.5698,-2.5407,-2.5303,-2.5308,-2.5059,-2.4898,-2.4811,-2.4811,-2.4723,-2.4636,-2.4636,-2.4636,-2.4636,-2.4636,-2.4636,-2.4703,0.0,0.0,0.0,0.0,-3.4089,-3.6016,-3.6016,-3.6016,-3.6016,-3.6016,-3.6016,-3.6016,-3.6016,-3.6016,-3.6016,-3.6016,-3.6016,-3.6016,-3.6016,-3.584,-3.5547,-3.5098,-3.4805,-3.4453,-3.3828,-3.51,-3.6516,-3.6785,-3.9024,0.0,-4.2775,-4.2974,-4.2974,-4.2974,-4.2974,-4.2974,-4.2974,-4.2974,-4.2974,-4.2974,-4.2974,-4.2748,-4.2263,-4.1442,0.0,0.0,0.0,-3.8002,-3.8002,-3.7701,0.0,0.0,0.0,0.0,0.0,0.0,0.0,0.0,-3.7337,-3.7776,0.0,0.0,0.0,0.0,0.0,0.0,0.0,0.0,0.0,0.0,0.0,0.0,0.0,0.0,0.0,0.0,-1.6747,-1.5499,-1.4245,-1.2823,-1.191,-1.2072,-1.2313,-1.2501,-1.2501,-1.2501,-1.2508,-1.2525,-1.2654,-1.3597,-1.5569,-1.7991,0.0,0.0,0.0,-2.5738,-2.6005,-2.571,-2.5574,-2.5594,-2.5533,-2.537,-2.5168,-2.512,-2.4972,-2.4643,-2.4636,-2.4636,-2.4636,-2.4636,-2.4703,-2.5139,-2.707,-2.8836,-3.0734,-3.459,-3.6016,-3.6016,-3.6016,0.0,0.0,-3.6016,-3.6016,-3.6016,-3.6016,-3.6016,-3.6016,-3.6016,-3.6016,-3.6016,-3.6016,-3.6016,-3.5908,-3.5498,-3.5351,-3.5098,-3.4316,-3.5945,-3.7683,-3.817,-4.0092,-4.1934,-4.2837,-4.2974,-4.2974,-4.2974,-4.2974,-4.2974,-4.2974,-4.2974,-4.2974,-4.2974,-4.2974,0.0,-4.2338,-4.1304,-4.0651,-4.0526,-3.8994,-3.8103,-3.8103,-3.8165,-3.8165,-3.8103,-3.8103,-3.8078,-3.8002,-3.8655,-3.9007,-3.9007,-3.8504,-3.8831,0.0,0.0,0.0,0.0,0.0,0.0,0.0,0.0,0.0,0.0,0.0,0.0,0.0,0.0,0.0,-1.6881,-1.5629,-1.4148,-1.2536,-1.2216,-1.2186,-1.2283,-1.24,-1.2501,-1.2501,-1.2501,-1.2552,-1.2678,-1.2712,-1.2989,-1.371,-1.7497,-1.9848,-2.0481,-2.4227,-2.6246,-2.6306,-2.6046,-2.5881,-2.5869,-2.5655,0.0,-2.54,-2.5234,-2.5059,-2.4979,-2.4723,-2.4636,-2.4636,-2.4636,-2.5499,-2.7143,-2.9043,-2.9955,-3.0734,-3.459,-3.6016,-3.6016,-3.6016,-3.6016,-3.6016,-3.6016,-3.6016,-3.6016,-3.6016,-3.6016,0.0,-3.6016,-3.6016,-3.6016,-3.6016,-3.6016,-3.5908,-3.5498,-3.5107,-3.4785,-3.4609,-3.6719,-3.8675,-3.8741,-4.1247,-4.326,-4.3018,-4.2974,-4.2974,-4.2974,-4.2974,-4.2974,-4.2974,-4.2974,-4.2974,-4.2974,-4.2974,-4.2936,-4.2823,-4.2275,-4.1455,-4.0576,-3.9371,-3.8705,-3.8705,-3.9132,-3.9157,-3.8718,-3.8705,-3.8479,-3.8002,-3.9032,-3.9534,-3.9546,-3.9873,-4.0149,0.0,0.0,0.0,0.0,0.0,0.0,0.0,0.0,0.0,0.0,0.0,-1.9989,-2.0543,0.0,-1.9987,-1.9699,-1.7607,-1.5807,-1.5069,-1.3461,-1.2394,-1.2326,-1.2457,-1.2501,-1.2501,-1.2501,-1.2566,-1.2718,-1.28,-1.3887,-1.6279,-1.8551,-2.0836,-2.3054,-2.5251,-2.6386,-2.6386,-2.6246,-2.6239,-2.6201,-2.6007,-2.5844,-2.5747,-2.5611,-2.5368,-2.5066,-2.4898,-2.473,-2.4636,-2.4636,-2.5786,-2.7715,-2.9536,-3.0876,-3.2097,-3.4943,-3.6016,-3.6016,-3.6016,-3.6016,-3.6016,-3.6016,-3.6016,-3.6016,-3.6016,-3.6016,-3.6016,-3.6016,-3.6016,-3.6016,-3.6016,-3.6016,-3.5967,-3.5762,-3.5527,-3.5303,-3.5088,-3.7687,-3.9926,-3.9433,-4.1959,-4.4041,-4.3489,-4.3162,-4.2974,-4.2974,-4.2974,-4.2974,-4.2974,-4.2974,-4.2974,-4.2974,-4.2974,-4.2974,-4.2974,-4.2527,-4.1681,-4.0588,-3.9998,-3.9572,-3.9295,-3.9546,-3.9559,-3.9295,-3.9283,-3.927,-3.9258,-3.9823,-4.0388,-4.0981,-4.1204,-4.1342,0.0,0.0,0.0,0.0,0.0,0.0,0.0,-1.9167,-1.9429,-1.9933,-2.0291,-2.0721,-2.1372,-2.1845,-2.2235,-2.2462,-1.9837,-1.7758,-1.7594,-1.4667,-1.2461,-1.2345,-1.2433,-1.2501,-1.2501,-1.2501,-1.2576,-1.2759,-1.2891,-1.4781,-1.8899,-1.9649,-2.1689,-2.5654,-2.6142,-2.6386,-2.6386,-2.6386,-2.6386,-2.6386,-2.6386,-2.6301,-2.6116,-2.603,-2.5721,-2.5148,-2.5033,-2.4811,-2.4636,-2.4998,-2.6071,-2.7715,-2.9963,-3.1808,-3.3448,-3.5304,-3.6016,-3.6016,-3.6016,-3.6016,-3.6016,-3.6016,-3.6016,-3.6016,-3.6016,-3.6016,-3.6016,-3.6016,-3.6016,-3.6016,-3.6016,-3.6016,-3.6016,-3.6016,-3.5957,-3.583,-3.5566,-3.8468,-4.08,-3.9993,-4.2413,-4.4455,-4.3903,-4.3338,-4.2974,-4.2974,-4.2974,-4.2974,-4.2974,-4.2974,-4.2974,-4.2974,-4.2974,-4.2974,-4.2974,-4.2527,-4.1835,-4.089,-4.0739,-4.0475,-4.0036,-4.0011,-4.0011,-4.0011,-4.0011,-4.0224,-4.0676,-4.0777,-4.1291,-4.2213,-4.2313,-4.2363,-2.5625,-2.4917,-2.3925,-2.276,-2.1786,-2.0851,0.0,-2.014,-2.0595,-2.0873,-2.1418,-2.1975,-2.2584,-2.2766,-2.2425,-2.134,-1.9375,-1.7512,-1.588,-1.3781,-1.2494,-1.2481,-1.2491,-1.2501,-1.2501,-1.2501,-1.2623,-1.2912,-1.2949,-1.4198,-1.6841,-1.8837,-2.1039,-2.338,-2.5409,-2.6386,-2.6386,-2.6386,-2.6386,-2.6386,-2.6386,-2.6386,-2.6386,-2.6116,-2.5772,-2.5467,-2.487,-2.4643,-2.4703,-2.643,-2.7288,-2.786,-3.1465,-3.3022,-3.3448,-3.5304,-3.6016,-3.6016,-3.6016,-3.6016,-3.6016,-3.6016,-3.6016,-3.6016,-3.6016,-3.6016,-3.6016,-3.6016,-3.6016,-3.6016,-3.6016,-3.6016,-3.6016,-3.6016,-3.5732,-3.5557,-3.5879,-3.8371,-4.0475,-4.03,-4.2591,-4.4455,-4.3903,-4.3338,-4.2974,-4.2974,-4.2974,-4.2974,-4.2974,-4.2974,-4.2974,-4.2974,-4.2974,-4.2974,-4.2974,-4.2527,-4.2162,-4.2037,-4.1517,-4.1163,-4.11,-4.11,-4.11,-4.11,-4.11,-4.1125,-4.12,-4.1743,-4.2087,-4.2213,-4.2715,-4.2886,-2.4917,-2.4656,-2.4104,-2.2324,-2.1683,-2.135,-2.0503,-2.0617,-2.1085,-2.1542,-2.198,-2.2395,-2.3016,-2.3267,-2.332,-2.2903,-2.1336,-1.9432,-1.747,-1.5496,-1.3795,-1.2652,-1.2501,-1.2501,-1.2501,-1.2501,-1.263,-1.2939,-1.4141,-1.5951,-1.8421,-2.0549,-2.2734,-2.4926,-2.5898,-2.6386,-2.6386,-2.6386,-2.6386,-2.6386,-2.6386,-2.6386,-2.6386,-2.6294,-2.6066,-2.5754,-2.5159,-2.4897,-2.5026,-2.6794,-2.8133,-2.9401,-3.2097,-3.3882,-3.4943,-3.5733,-3.6016,-3.6016,-3.6016,-3.6016,-3.6016,-3.6016,-3.6016,-3.6016,-3.6016,-3.6016,-3.6016,-3.6016,-3.6016,-3.6016,-3.6016,-3.6016,-3.6016,-3.6016,-3.5879,-3.6061,-3.7277,-3.9281,-4.1185,-4.2131,-4.3796,-4.4945,-4.438,-4.3827,-4.335,-4.3024,-4.2974,-4.2974,-4.2974,-4.2974,-4.2974,-4.2974,-4.2974,-4.2974,-4.2974,-4.276,-4.2552,-4.2225,-4.1932,-4.1681,-4.13,-4.1288,-4.1288,-4.1288,-4.1288,-4.1492,-4.1806,-4.2099,-4.2376,-4.269,-4.2873,-4.2974,-2.4405,-2.414,-2.3722,-2.1873,-2.1429,-2.1368,-2.0846,-2.0969,-2.1349,-2.1825,-2.2172,-2.2598,-2.3155,-2.3549,-2.3892,-2.4227,-2.2794,-2.1118,-1.9606,-1.7636,-1.5841,-1.4326,-1.3641,-1.334,-1.334,-1.2807,-1.2858,-1.38,-1.5321,-1.7531,-2.0609,-2.2252,-2.4111,-2.6307,-2.6386,-2.6386,-2.6386,-2.6386,-2.6386,-2.6386,-2.6386,-2.6386,-2.638,-2.6219,-2.6003,-2.5747,-2.5199,-2.4957,-2.5161,-2.7377,-2.9043,-3.0522,-3.3022,-3.4805,-3.6016,-3.6016,-3.6016,-3.6016,-3.6016,-3.6016,-3.6016,-3.6016,-3.6016,-3.6016,-3.6016,-3.6016,-3.6016,-3.6016,-3.6016,-3.6016,-3.6016,-3.6016,-3.6016,-3.6016,-3.6016,-3.6345,-3.7642,-3.9638,-4.1565,-4.2769,-4.433,-4.5359,-4.4932,-4.4279,-4.3664,-4.3263,-4.3074,-4.2974,-4.2974,-4.2974,-4.2974,-4.2974,-4.2974,-4.2974,-4.2974,-4.2974,-4.2798,-4.2464,-4.2439,-4.2208,-4.1806,-4.1794,-4.1794,-4.1794,-4.1794,-4.1982,-4.2439,-4.2439,-4.264,-4.2974,-4.2974,-4.3062,-2.4405,-2.3347,-2.2359,-2.1612,-2.0834,-2.0352,-2.0607,-2.1179,-2.1619,-2.159,-2.1998,-2.2572,-2.3227,-2.3575,-2.3973,-2.4475,-2.293,-2.1603,-2.1539,-1.9741,-1.8497,-1.8421,-1.6675,-1.5387,-1.5387,-1.3641,-1.3471,-1.5914,-1.6181,-1.8163,-2.2791,-2.306,-2.4111,-2.6307,-2.6386,-2.6386,-2.6386,-2.6386,-2.6386,-2.6386,-2.6386,-2.6386,-2.6373,-2.5798,-2.5365,-2.5132,-2.4734,-2.4649,-2.4938,-2.8685,-3.0239,-3.0664,-3.4443,-3.5947,-3.6016,-3.6016,-3.6016,-3.6016,-3.6016,-3.6016,-3.6016,-3.6016,-3.6016,-3.6016,-3.6016,-3.6016,-3.6016,-3.6016,-3.6016,-3.6016,-3.6016,-3.6016,-3.6016,-3.6016,-3.6016,-3.6016,-3.6084,-3.8795,-4.1245,-4.1245,-4.3573,-4.5485,-4.546,-4.4531,-4.379,-4.3777,-4.3325,-4.2974,-4.2974,-4.2974,-4.2974,-4.2974,-4.2974,-4.2974,-4.2974,-4.2974,-4.2974,-4.2949,-4.2949,-4.2949,-4.2924,-4.2924,-4.2924,-4.2924,-4.2924,-4.2936,-4.2949,-4.2949,-4.2961,-4.2974,-4.2974,-4.3263,-2.3338,-2.2249,-2.1293,-2.0757,-2.0382,-2.0328,-2.0829,-2.1319,-2.1613,-2.1613,-2.1862,-2.2302,-2.2904,-2.3249,-2.3645,-2.4227,-2.3883,-2.3085,-2.1759,-2.1168,-2.026,-1.8814,-1.8165,-1.7736,-1.7597,-1.5693,-1.4883,-1.5821,-1.8685,-2.11,-2.2785,-2.4423,-2.5654,-2.6393,-2.6386,-2.6386,-2.6386,-2.6386,-2.6386,-2.6386,-2.6386,-2.6301,-2.6089,-2.5901,-2.5697,-2.5357,-2.51,-2.493,-2.5202,-2.8851,-3.031,-3.0664,-3.4512,-3.6016,-3.6016,-3.6016,-3.6016,-3.6016,-3.6016,-3.6016,-3.6016,-3.6016,-3.6016,-3.6016,-3.6016,-3.6016,-3.6016,-3.6016,-3.6016,-3.6016,-3.6016,-3.6016,-3.6016,-3.6016,-3.6016,-3.6345,-3.7508,-3.9573,-4.1565,-4.2643,-4.456,-4.5912,-4.5547,-4.5171,-4.4669,-4.3915,-4.3325,-4.2974,-4.2974,-4.2974,-4.2974,-4.2974,-4.2974,-4.2974,-4.2974,-4.2974,-4.2974,-4.2974,-4.2974,-4.2974,-4.2974,-4.2974,-4.2974,-4.2974,-4.2974,-4.2974,-4.2974,-4.2974,-4.2974,-4.2986,-4.3363,-4.4153,-2.2339,-2.1516,-2.0936,-2.0358,-2.0275,-2.0537,-2.0969,-2.1256,-2.1402,-2.1402,-2.1651,-2.2039,-2.2606,-2.294,-2.3379,-2.4103,-2.4322,-2.4007,-2.285,-2.283,-2.2392,-2.0933,-2.0292,-1.9902,-1.9838,-1.8537,-1.775,-1.7966,-2.0902,-2.2973,-2.3864,-2.5498,-2.6386,-2.6386,-2.6386,-2.6386,-2.6386,-2.6386,-2.6386,-2.6386,-2.6386,-2.6208,-2.5813,-2.5855,-2.5571,-2.5153,-2.5005,-2.4923,-2.5195,-2.8843,-3.031,-3.0664,-3.4512,-3.6016,-3.6016,-3.6016,-3.6016,-3.6016,-3.6016,-3.6016,-3.6016,-3.6016,-3.6016,-3.6016,-3.6016,-3.6016,-3.6016,-3.6016,-3.6016,-3.6016,-3.6016,-3.6016,-3.6016,-3.6016,-3.6016,-3.6278,-3.7441,-3.9507,-4.1501,-4.258,-4.4694,-4.62,-4.5849,-4.5623,-4.5095,-4.3966,-4.3501,-4.32,-4.2999,-4.2974,-4.2974,-4.2974,-4.2974,-4.2974,-4.2974,-4.2974,-4.2974,-4.2974,-4.2974,-4.2974,-4.2974,-4.2974,-4.2974,-4.2974,-4.2974,-4.2974,-4.2974,-4.2974,-4.3074,-4.3275,-4.3639,-4.4547,-2.1557,-2.1162,-2.1128,-2.0394,-2.0467,-2.0753,-2.1039,-2.1096,-2.1082,-2.1109,-2.1325,-2.1718,-2.2285,-2.2639,-2.3146,-2.4022,-2.4195,-2.4329,-2.4616,-2.4656,-2.4656,-2.4656,-2.2912,-2.1863,-2.2106,-2.1928,-2.1893,-2.2135,-2.2686,-2.393,-2.5874,-2.6233,-2.6386,-2.6386,-2.6386,-2.6386,-2.6386,-2.6386,-2.6386,-2.6386,-2.6386,-2.6116,-2.5543,-2.5519,-2.5147,-2.4636,-2.4636,-2.4636,-2.4924,-2.8757,-3.031,-3.0664,-3.4512,-3.6016,-3.6016,-3.6016,-3.6016,-3.6016,-3.6016,-3.6016,-3.6016,-3.6016,-3.6016,-3.6016,-3.6016,-3.6016,-3.6016,-3.6016,-3.6016,-3.6016,-3.6016,-3.6016,-3.6016,-3.6016,-3.6016,-3.6016,-3.6016,-3.8729,-4.1181,-4.1181,-4.3929,-4.6313,-4.6313,-4.5849,-4.5108,-4.4016,-4.3815,-4.3601,-4.3049,-4.2974,-4.2974,-4.2974,-4.2974,-4.2974,-4.2974,-4.2974,-4.2974,-4.2974,-4.2974,-4.2974,-4.2974,-4.2974,-4.2974,-4.2974,-4.2974,-4.2974,-4.2974,-4.2974,-4.325,-4.3765,-4.3815,-4.4475,-2.2682,-2.1569,-2.025,-2.0532,-2.0613,-2.0753,-2.1039,-2.0958,-2.0831,-2.1056,-2.1015,-2.1102,-2.167,-2.2372,-2.3013,-2.3474,-2.4095,-2.4629,-2.4923,-2.4963,-2.4963,-2.4963,-2.4501,-2.422,-2.4292,-2.4428,-2.4538,-2.4609,-2.4752,-2.5165,-2.5945,-2.6233,-2.6386,-2.6386,-2.6386,-2.6386,-2.6386,-2.6386,-2.6386,-2.6386,-2.6386,-2.6208,-2.5898,-2.5602,-2.5315,-2.4972,-2.4723,-2.4636,-2.4924,-2.8757,-3.031,-3.0664,-3.4512,-3.6016,-3.6016,-3.6016,-3.6016,-3.6016,-3.6016,-3.6016,-3.6016,-3.6016,-3.6016,-3.6016,-3.6016,-3.6016,-3.6016,-3.6016,-3.6016,-3.6016,-3.6016,-3.6016,-3.6016,-3.6016,-3.6016,-3.6016,-3.6016,-3.8729,-4.1181,-4.1181,-4.3929,-4.6313,-4.6313,-4.5849,-4.5246,-4.4518,-4.4066,-4.3601,-4.3049,-4.2974,-4.2974,-4.2974,-4.2974,-4.2974,-4.2974,-4.2974,-4.2974,-4.2974,-4.2974,-4.2974,-4.2974,-4.2974,-4.2974,-4.2974,-4.2974,-4.2974,-4.2974,-4.2974,-4.3049,-4.3212,-4.4028,-4.5177,-2.3056,-2.2261,-2.1163,-2.0759,-2.1344,-2.1804,-2.1054,-2.0817,-2.073,-2.0875,-2.0788,-2.0855,-2.1507,-2.2164,-2.2812,-2.3253,-2.3955,-2.4596,-2.5024,-2.5077,-2.5124,-2.5251,-2.5157,-2.5184,-2.5438,-2.5378,-2.5484,-2.5865,-2.5899,-2.5919,-2.603,-2.6233,-2.6386,-2.6386,-2.6386,-2.6386,-2.6386,-2.6386,-2.6386,-2.6386,-2.6294,-2.6037,-2.5734,-2.5444,-2.5141,-2.4891,-2.4643,-2.4636,-2.4924,-2.8757,-3.031,-3.0664,-3.4512,-3.6016,-3.6016,-3.6016,-3.6016,-3.6016,-3.6016,-3.6016,-3.6016,-3.6016,-3.6016,-3.6016,-3.6016,-3.6016,-3.6016,-3.6016,-3.6016,-3.6016,-3.6016,-3.6016,-3.6016,-3.6016,-3.6016,-3.6016,-3.6016,-3.8154,-4.0472,-4.2011,-4.4448,-4.6313,-4.6313,-4.605,-4.5573,-4.4756,-4.4355,-4.3878,-4.3074,-4.2974,-4.2974,-4.2974,-4.2974,-4.2974,-4.2974,-4.2974,-4.2974,-4.2974,-4.2974,-4.2974,-4.2974,-4.2974,-4.2974,-4.2974,-4.2974,-4.2974,-4.2974,-4.2974,-4.3099,-4.3363,-4.3978,-4.4967,-2.3215,-2.32,-2.3045,-2.15,-2.2536,-2.3419,-2.1444,-2.1005,-2.093,-2.073,-2.0648,-2.0795,-2.1447,-2.1997,-2.2605,-2.3173,-2.3794,-2.4409,-2.4997,-2.5044,-2.513,-2.5424,-2.5197,-2.5251,-2.5916,-2.5438,-2.5484,-2.6326,-2.6386,-2.6279,-2.611,-2.6253,-2.6386,-2.6386,-2.6339,-2.6339,-2.6386,-2.6386,-2.6386,-2.6301,-2.6037,-2.5773,-2.5518,-2.5201,-2.4947,-2.4643,-2.4636,-2.4636,-2.4924,-2.8757,-3.031,-3.0664,-3.4512,-3.6016,-3.6016,-3.6016,-3.6016,-3.6016,-3.6016,-3.6016,-3.6016,-3.6016,-3.6016,-3.6016,-3.6016,-3.6016,-3.6016,-3.6016,-3.6016,-3.6016,-3.6016,-3.6016,-3.6016,-3.6016,-3.6016,-3.6016,-3.6016,-3.7575,-3.9888,-4.3083,-4.5086,-4.6313,-4.6313,-4.6313,-4.5949,-4.4895,-4.4669,-4.4254,-4.3225,-4.3024,-4.2974,-4.2974,-4.2974,-4.2974,-4.2974,-4.2974,-4.2974,-4.2974,-4.2974,-4.2974,-4.2974,-4.2974,-4.2974,-4.2974,-4.2974,-4.2974,-4.2974,-4.2974,-4.3225,-4.3689,-4.384,-4.4443,-2.4509,-2.5016,-2.4802,-2.3469,-2.438,-2.5085,-2.311,-2.2517,-2.2045,-2.093,-2.0481,-2.0488,-2.1076,-2.1864,-2.2532,-2.2886,-2.3654,-2.4409,-2.4997,-2.487,-2.4823,-2.5117,-2.4897,-2.4943,-2.5531,-2.5498,-2.5705,-2.6339,-2.6386,-2.6366,-2.6319,-2.636,-2.6301,-2.6116,-2.6072,-2.6059,-2.603,-2.6037,-2.6037,-2.6037,-2.576,-2.5535,-2.5453,-2.5256,-2.5073,-2.4979,-2.4723,-2.4636,-2.4924,-2.8757,-3.031,-3.0664,-3.4512,-3.6016,-3.6016,-3.6016,-3.6016,-3.6016,-3.6016,-3.6016,-3.6016,-3.6016,-3.6016,-3.6016,-3.6016,-3.6016,-3.6016,-3.6016,-3.6016,-3.6016,-3.6016,-3.6016,-3.6016,-3.6016,-3.6016,-3.6016,-3.6016,-3.8476,-4.1298,-4.3345,-4.5086,-4.6313,-4.6313,-4.6313,-4.6087,-4.5434,-4.4932,-4.4392,-4.374,-4.3263,-4.2974,-4.2974,-4.2974,-4.2974,-4.2974,-4.2974,-4.2974,-4.2974,-4.2974,-4.2974,-4.2974,-4.2974,-4.2974,-4.2974,-4.2974,-4.2974,-4.2974,-4.2974,-4.3024,-4.3137,-4.4053,-4.4581,-2.6215,-2.6968,-2.7116,-2.4483,-2.5755,-2.6805,-2.3607,-2.2894,-2.2427,-2.0808,-2.0454,-2.0595,-2.1029,-2.1824,-2.2465,-2.2605,-2.3514,-2.4356,-2.479,-2.4857,-2.4977,-2.5271,-2.5044,-2.5037,-2.5471,-2.5378,-2.5531,-2.6119,-2.6166,-2.6233,-2.638,-2.6246,-2.6047,-2.5733,-2.5905,-2.5908,-2.576,-2.5938,-2.5903,-2.574,-2.5471,-2.5273,-2.5308,-2.4979,-2.4811,-2.4811,-2.4643,-2.4636,-2.4924,-2.8757,-3.031,-3.0664,-3.4512,-3.6016,-3.6016,-3.6016,-3.6016,-3.6016,-3.6016,-3.6016,-3.6016,-3.6016,-3.6016,-3.6016,-3.6016,-3.6016,-3.6016,-3.6016,-3.6016,-3.6016,-3.6016,-3.6016,-3.6016,-3.6016,-3.6016,-3.6016,-3.6016,-3.8021,-4.0343,-4.2074,-4.3793,-4.522,-4.612,-4.6313,-4.6024,-4.5171,-4.4807,-4.4317,-4.3476,-4.3137,-4.2974,-4.2974,-4.2974,-4.2974,-4.2974,-4.2974,-4.2974,-4.2974,-4.2974,-4.2974,-4.2974,-4.2974,-4.2974,-4.2974,-4.2974,-4.3124,-4.3413,-4.3413,-4.3551,-4.3853,-4.438,-4.4782,-2.6916,-2.8298,-2.933,-2.5627,-2.7184,-2.8518,-2.4376,-2.3534,-2.2998,-2.0787,-2.0514,-2.0768,-2.1056,-2.1777,-2.2345,-2.2405,-2.3367,-2.4209,-2.4502,-2.4796,-2.507,-2.5297,-2.5124,-2.5097,-2.5391,-2.5211,-2.5297,-2.5818,-2.5899,-2.6052,-2.6281,-2.6086,-2.5743,-2.5406,-2.5685,-2.565,-2.5405,-2.5694,-2.5641,-2.5395,-2.514,-2.4979,-2.4979,-2.4723,-2.4636,-2.4636,-2.4636,-2.4636,-2.4924,-2.8757,-3.031,-3.0664,-3.4512,-3.6016,-3.6016,-3.6016,-3.6016,-3.6016,-3.6016,-3.6016,-3.6016,-3.6016,-3.6016,-3.6016,-3.6016,-3.6016,-3.6016,-3.6016,-3.6016,-3.6016,-3.6016,-3.6016,-3.6016,-3.6016,-3.6016,-3.6016,-3.6016,-3.7374,-3.9125,-4.086,-4.258,-4.4239,-4.5987,-4.6313,-4.6012,-4.5121,-4.4882,-4.4493,-4.3627,-4.33,-4.315,-4.315,-4.3049,-4.2974,-4.2974,-4.2974,-4.2974,-4.2974,-4.2974,-4.2974,-4.2974,-4.2974,-4.2974,-4.2974,-4.2974,-4.325,-4.3802,-4.3802,-4.4079,-4.4618,-4.4756,-4.5058,-2.5148,-2.805,-3.1114,-2.771,-2.9069,-3.031,-2.6695,-2.5586,-2.4416,-2.13,-2.0661,-2.0768,-2.1056,-2.161,-2.2111,-2.2372,-2.32,-2.3915,-2.4202,-2.4489,-2.469,-2.471,-2.4696,-2.4796,-2.509,-2.5097,-2.5211,-2.5525,-2.5544,-2.5719,-2.601,-2.5758,-2.5445,-2.5163,-2.5139,-2.5188,-2.5129,-2.5159,-2.5168,-2.514,-2.4804,-2.4643,-2.4643,-2.4636,-2.4636,-2.4636,-2.4636,-2.4636,-2.4924,-2.8757,-3.031,-3.0664,-3.4512,-3.6016,-3.6016,-3.6016,-3.6016,-3.6016,-3.6016,-3.6016,-3.6016,-3.6016,-3.6016,-3.6016,-3.6016,-3.6016,-3.6016,-3.6016,-3.6016,-3.6016,-3.6016,-3.6016,-3.6016,-3.6016,-3.6016,-3.6016,-3.6016,-3.7374,-3.9125,-4.086,-4.258,-4.4239,-4.5987,-4.6313,-4.6276,-4.6175,-4.5736,-4.5372,-4.5271,-4.4355,-4.3727,-4.3727,-4.3275,-4.2974,-4.2974,-4.2974,-4.2974,-4.2974,-4.2974,-4.2974,-4.2974,-4.2974,-4.2974,-4.2974,-4.2974,-4.325,-4.3802,-4.3802,-4.4079,-4.4631,-4.5158,-4.5434,-2.7008,-2.9505,-3.2305,-2.9661,-3.0436,-3.0916,-2.7056,-2.5981,-2.4859,-2.143,-2.0815,-2.0969,-2.1089,-2.159,-2.2024,-2.2138,-2.2913,-2.3607,-2.3901,-2.4195,-2.4442,-2.4616,-2.4636,-2.4683,-2.4803,-2.4816,-2.4937,-2.5231,-2.5418,-2.5476,-2.5425,-2.5363,-2.5109,-2.4829,-2.4971,-2.5032,-2.4816,-2.4965,-2.4979,-2.4804,-2.4643,-2.4636,-2.4636,-2.4636,-2.4636,-2.4636,-2.4636,-2.5279,-2.6568,-2.9179,-3.1025,-3.2307,-3.4952,-3.6016,-3.6016,-3.6016,-3.6016,-3.6016,-3.6016,-3.6016,-3.6016,-3.6016,-3.6016,-3.6016,-3.6016,-3.6016,-3.6016,-3.6016,-3.6016,-3.6016,-3.6016,-3.6016,-3.6016,-3.6016,-3.6016,-3.6016,-3.6016,-3.6539,-3.7832,-4.0666,-4.1756,-4.3095,-4.5853,-4.6313,-4.62,-4.5861,-4.5635,-4.5246,-4.4556,-4.4367,-4.4166,-4.3827,-4.3313,-4.3112,-4.3438,-4.3175,-4.3124,-4.3451,-4.3162,-4.2974,-4.2974,-4.2974,-4.2974,-4.2974,-4.2974,-4.325,-4.3802,-4.4129,-4.4593,-4.5158,-4.5723,-4.5987,-2.8094,-2.9978,-3.2172,-3.0709,-3.0925,-3.0592,-2.7258,-2.6255,-2.4997,-2.1507,-2.1332,-2.1691,-2.135,-2.165,-2.2017,-2.2104,-2.2873,-2.3534,-2.3741,-2.4095,-2.4409,-2.4609,-2.4636,-2.4636,-2.4636,-2.4636,-2.4723,-2.493,-2.5099,-2.5143,-2.4928,-2.4915,-2.4812,-2.4576,-2.4811,-2.4811,-2.4636,-2.4811,-2.4811,-2.4636,-2.4636,-2.4636,-2.4636,-2.4636,-2.4636,-2.4636,-2.4636,-2.5712,-2.7643,-2.9544,-3.1456,-3.3378,-3.5236,-3.6016,-3.6016,-3.6016,-3.6016,-3.6016,-3.6016,-3.6016,-3.6016,-3.6016,-3.6016,-3.6016,-3.6016,-3.6016,-3.6016,-3.6016,-3.6016,-3.6016,-3.6016,-3.6016,-3.6016,-3.6016,-3.6016,-3.6016,-3.6016,-3.6016,-3.7059,-4.0537,-4.1181,-4.2264,-4.5732,-4.6313,-4.6175,-4.5786,-4.5736,-4.5447,-4.4644,-4.4744,-4.4731,-4.4342,-4.3802,-4.3627,-4.4016,-4.3689,-4.3564,-4.379,-4.3438,-4.315,-4.2986,-4.2974,-4.2974,-4.2974,-4.2974,-4.325,-4.3802,-4.4355,-4.492,-4.5497,-4.605,-4.6313,-2.7319,-2.8711,-3.0465,-3.0709,-3.0255,-2.9279,-2.7643,-2.6637,-2.5069,-2.1776,-2.2404,-2.3179,-2.1811,-2.179,-2.2078,-2.2365,-2.3173,-2.3768,-2.3774,-2.4269,-2.4636,-2.4636,-2.4636,-2.4636,-2.4636,-2.4636,-2.4636,-2.4562,-2.4649,-2.4649,-2.4649,-2.4643,-2.4569,-2.4636,-2.4636,-2.4636,-2.4636,-2.4636,-2.4636,-2.4636,-2.4636,-2.4636,-2.4636,-2.4636,-2.4636,-2.4636,-2.4636,-2.5712,-2.7643,-2.9544,-3.1456,-3.3378,-3.5236,-3.6016,-3.6016,-3.6016,-3.6016,-3.6016,-3.6016,-3.6016,-3.6016,-3.6016,-3.6016,-3.6016,-3.6016,-3.6016,-3.6016,-3.6016,-3.6016,-3.6016,-3.6016,-3.6016,-3.6016,-3.6016,-3.6016,-3.6016,-3.6016,-3.6016,-3.7059,-4.0537,-4.1181,-4.2264,-4.5732,-4.6313,-4.6313,-4.6301,-4.6301,-4.6301,-4.6288,-4.5811,-4.5485,-4.5472,-4.4945,-4.4606,-4.4618,-4.4606,-4.438,-4.3827,-4.379,-4.3539,-4.2999,-4.2974,-4.2974,-4.2974,-4.2974,-4.325,-4.3802,-4.4355,-4.492,-4.5497,-4.605,-4.6313,-2.6998,-2.7495,-2.8857,-3.1166,-3.0521,-2.9141,-2.865,-2.719,-2.5375,-2.3256,-2.2341,-2.1823,-2.1625,-2.179,-2.2144,-2.2639,-2.314,-2.3607,-2.4015,-2.4222,-2.4409,-2.4609,-2.4636,-2.4636,-2.4636,-2.4636,-2.4636,-2.4636,-2.4636,-2.4636,-2.4636,-2.4636,-2.4636,-2.4636,-2.4636,-2.4636,-2.4636,-2.4636,-2.4636,-2.4636,-2.4636,-2.4636,-2.4636,-2.4636,-2.4636,-2.4636,-2.4636,-2.5712,-2.7643,-2.9544,-3.1456,-3.3378,-3.5236,-3.6016,-3.6016,-3.6016,-3.6016,-3.6016,-3.6016,-3.6016,-3.6016,-3.6016,-3.6016,-3.6016,-3.6016,-3.6016,-3.6016,-3.6016,-3.6016,-3.6016,-3.6016,-3.6016,-3.6016,-3.6016,-3.6016,-3.6016,-3.6016,-3.6016,-3.7059,-4.0537,-4.1181,-4.2264,-4.5732,-4.6313,-4.6313,-4.6313,-4.6313,-4.6175,-4.5799,-4.5924,-4.5912,-4.5535,-4.566,-4.5472,-4.4694,-4.4279,-4.3991,-4.3815,-4.3451,-4.3162,-4.2986,-4.2974,-4.2974,-4.2974,-4.2974,-4.325,-4.3802,-4.4355,-4.5121,-4.605,-4.6225,-4.6313,-2.6651,-2.678,-2.7749,-3.0532,-2.9666,-2.8149,-2.8141,-2.7531,-2.6288,-2.4062,-2.3256,-2.2894,-2.2714,-2.2308,-2.2178,-2.2766,-2.3126,-2.3494,-2.3975,-2.4135,-2.4309,-2.4603,-2.4636,-2.4636,-2.4636,-2.4636,-2.4636,-2.4636,-2.5308,-2.5651,-2.5651,-2.6407,-2.6753,-2.6753,-2.5315,-2.4636,-2.4636,-2.4636,-2.4636,-2.4636,-2.4636,-2.4636,-2.4636,-2.4636,-2.4991,-2.5712,-2.5712,-2.7208,0.0,-3.0892,-3.2525,-3.4383,-3.5519,-3.6016,-3.6016,-3.6016,-3.6016,-3.6016,-3.6016,-3.6016,-3.6016,-3.6016,-3.6016,-3.6016,-3.6016,-3.6016,-3.6016,-3.6016,-3.6016,-3.6016,-3.6016,-3.6016,-3.6016,-3.6016,-3.6016,-3.6016,-3.6016,-3.6539,-3.7832,-4.0666,-4.1693,-4.3032,-4.5793,-4.6313,-4.6313,-4.6313,-4.6313,-4.6188,-4.5836,-4.61,-4.6175,-4.5836,-4.61,-4.5937,-4.5033,-4.4631,-4.4342,-4.4129,-4.3589,-4.3187,-4.2986,-4.2974,-4.2974,-4.2974,-4.2974,-4.325,-4.3802,-4.4581,-4.5422,-4.6313,-4.6313,-4.6313,0.0,-2.6447,-2.6942,-2.9222,-2.8254,-2.6752,-2.6912,-2.7696,0.0,-2.454,-2.4962,-2.5531,-2.4604,-2.3072,-2.2184,-2.2799,-2.3272,-2.3644,-2.3961,-2.4401,-2.4686,-2.4817,-2.4918,-2.4918,-2.4851,-2.4958,-2.4979,-2.4979,-2.6671,-2.7733,-2.7717,-2.9357,-3.0323,-3.0323,-2.6858,-2.4957,-2.4811,-2.4811,-2.4723,-2.4636,-2.4636,-2.4636,-2.4636,-2.4636,-2.5639,-2.7505,-2.7505,-2.956,-3.3022,-3.317,-3.4236,-3.5811,-3.5947,-3.6016,-3.6016,-3.6016,-3.6016,-3.6016,-3.6016,-3.6016,-3.6016,-3.5986,-3.5947,-3.5928,-3.5928,-3.5967,-3.6016,-3.6016,-3.6016,-3.6016,-3.6016,-3.6016,-3.6016,-3.6016,-3.6016,-3.6016,-3.6016,-3.725,-3.8993,-4.086,-4.2454,-4.4115,-4.5987,-4.6313,-4.6313,-4.6313,-4.6313,-4.6313,-4.6313,-4.6313,-4.6313,-4.6313,-4.6313,-4.61,-4.5585,-4.5472,-4.5183,-4.4606,-4.4053,-4.3514,-4.2999,-4.2974,-4.2974,-4.2974,-4.3024,-4.3313,-4.3865,-4.4957,-4.5773,-4.6313,-4.6313,-4.6313,-2.6395,0.0,-2.5315,-2.9547,-2.9304,-2.8322,0.0,-2.9103,-2.8179,-2.7452,-2.5635,-2.4198,-2.4354,-2.3072,-2.2258,-2.308,-2.442,-2.5604,-2.6159,-2.7789,-2.8384,-2.699,-2.8125,-2.8406,-2.6932,-2.8137,-2.8992,-2.8992,-2.9357,-2.9615,-2.9654,-3.0026,-3.0276,-3.0276,-2.9425,-2.8247,-2.6826,-2.6834,-2.6069,-2.4636,-2.4636,-2.4636,-2.4636,-2.4636,-2.5639,-2.7505,-2.7505,-2.8844,-3.1096,-3.2595,-3.3457,-3.402,-3.5451,-3.6016,-3.6016,-3.6016,-3.6016,-3.6016,-3.6016,-3.6016,-3.5967,-3.5644,-3.5303,-3.501,-3.501,-3.5478,-3.6016,-3.6016,-3.6016,-3.6016,-3.6016,-3.6016,-3.6016,-3.6016,-3.6016,-3.6016,-3.6016,-3.6345,-3.7508,-4.0602,-4.1501,-4.2781,-4.5793,-4.6313,-4.6313,-4.6313,-4.6313,-4.6313,-4.6313,-4.6313,-4.6313,-4.6313,-4.6313,-4.6263,-4.6125,-4.5321,-4.4593,-4.4028,-4.3476,-4.3112,-4.2986,-4.2974,-4.2974,-4.2974,-4.3388,-4.3878,-4.443,-4.5146,-4.5773,-4.6313,-4.6313,-4.6313,-2.7335,-2.6619,-2.6761,-2.9382,-2.9369,-2.8946,-2.988,-2.9789,-2.9344,-2.8545,-2.7022,-2.597,-2.6618,-2.5424,-2.4626,-2.5396,-2.6519,-2.7526,-2.8209,-2.9444,-2.9884,-2.8908,-2.9678,-2.9892,-2.8908,-2.9721,-3.0292,-3.0292,-3.1161,-3.1606,-3.1593,-3.2476,-3.2916,-3.2916,-3.2916,-3.1574,-2.8798,-2.8798,-2.7844,-2.5921,-2.5921,-2.5444,-2.4636,-2.4636,-2.5639,-2.7578,-2.8413,-2.99,-3.1808,-3.3734,-3.4452,-3.459,-3.5587,-3.6016,-3.6016,-3.6016,-3.6016,-3.6016,-3.6016,-3.5898,-3.5664,-3.5215,-3.4902,-3.4697,-3.4697,-3.5029,-3.541,-3.541,-3.5566,-3.5732,-3.5732,-3.5879,-3.6016,-3.6016,-3.6016,-3.6016,-3.6016,-3.6596,-3.7955,-4.0666,-4.182,-4.322,-4.5853,-4.6313,-4.6313,-4.6313,-4.6313,-4.6313,-4.6313,-4.6313,-4.6313,-4.6313,-4.6313,-4.6313,-4.6313,-4.5522,-4.4895,-4.4593,-4.3815,-4.3363,-4.3363,-4.3112,-4.2974,-4.2974,-4.3526,-4.3953,-4.4242,-4.4819,-4.5246,-4.5547,-4.5811,-4.5937,-2.8843,-2.9191,-2.951,-2.9402,-2.9453,-2.9437,-2.9373,0.0,-3.0518,-2.9098,-2.8605,-2.8661,-2.9393,-2.8269,-2.7412,-2.8205,-2.8935,-2.9691,-3.0599,-3.0999,-3.1087,-3.0813,-3.1017,-3.1025,-3.0759,-3.1034,-3.1158,-3.1158,-3.2735,-3.3616,-3.3616,-3.5132,-3.6016,-3.6016,-3.5946,-3.4373,-3.1084,-3.0785,-2.9741,-2.7942,-2.7568,-2.6569,-2.4991,-2.471,-2.5852,-2.7996,-2.9607,-3.1597,-3.3734,-3.5373,-3.6016,-3.6016,-3.6016,-3.6016,-3.6016,-3.6016,-3.6016,-3.6006,-3.5947,-3.5605,-3.5127,-3.4726,-3.456,-3.4502,-3.4502,-3.4502,-3.4502,-3.4502,-3.4883,-3.5303,-3.5371,-3.5654,-3.5937,-3.6006,-3.6016,-3.6016,-3.6016,-3.7183,-3.874,-4.0472,-4.2126,-4.3855,-4.5598,-4.612,-4.6313,-4.6313,-4.6313,-4.6313,-4.6313,-4.6313,-4.6313,-4.6313,-4.6313,-4.6313,-4.6313,-4.5886,-4.5585,-4.5497,-4.443,-4.3765,-4.3677,-4.3225,-4.2974,-4.2974,-4.3438,-4.3714,-4.3802,-4.4267,-4.4543,-4.4644,-4.5221,-4.5485,-3.0903,-3.1382,-3.1543,-3.0798,-3.0856,-3.1049,-3.0692,-3.0752,-3.083,-3.0587,-2.9403,-2.8661,-2.9393,-2.8475,-2.784,-2.8569,-3.0613,-3.2711,-3.4316,-3.49,-3.4521,-3.2952,-3.4167,-3.449,-3.2938,-3.4223,-3.5158,-3.5158,-3.5393,-3.5568,-3.5568,-3.584,-3.6016,-3.6016,-3.5651,-3.5182,-3.4652,-3.2954,-3.1393,-2.9847,-2.7846,-2.6984,-2.6997,-2.5352,-2.6561,-2.9892,-3.0168,-3.2307,-3.5587,-3.5879,-3.6016,-3.6016,-3.6016,-3.6016,-3.6016,-3.6016,-3.6016,-3.5967,-3.5615,-3.4961,-3.4267,-3.4189,-3.3916,-3.3623,-3.3623,-3.3623,-3.3623,-3.3623,-3.4189,-3.4892,-3.5293,-3.5439,-3.5586,-3.5937,-3.6016,-3.6016,-3.6016,-3.621,-3.6924,-3.8674,-4.0408,-4.2138,-4.3793,-4.5342,-4.6313,-4.6313,-4.6313,-4.6313,-4.6313,-4.6313,-4.6313,-4.6313,-4.6313,-4.6313,-4.6313,-4.6238,-4.5987,-4.5522,-4.443,-4.3589,-4.3124,-4.3024,-4.2974,-4.2974,-4.3062,-4.3338,-4.3802,-4.3878,-4.4166,-4.4644,-4.5221,-4.5485,-3.1123,-3.1472,-3.1715,-3.1288,-3.1728,-3.2158,-3.1963,-3.1738,-3.1514,-3.1279,-3.06,-3.0285,-3.0837,-3.071,-3.0874,-3.2178,-3.338,-3.4546,-3.5558,-3.5898,-3.5665,-3.4805,-3.5451,-3.5684,-3.4812,-3.5479,-3.6016,-3.6016,-3.6016,-3.6016,-3.6016,-3.5763,-3.5682,-3.5701,-3.5228,-3.503,-3.5038,-3.3902,-3.2599,-3.1174,-3.0068,-2.8707,-2.7078,-2.6229,-2.6315,-2.7338,-2.9385,-3.1196,-3.2795,-3.5062,-3.5889,-3.5684,-3.5684,-3.5684,-3.5654,-3.54,-3.5312,-3.5244,-3.4824,-3.4414,-3.4033,-3.3799,-3.3584,-3.3418,-3.3418,-3.3418,-3.3418,-3.3418,-3.3877,-3.4463,-3.4902,-3.5205,-3.5498,-3.5918,-3.6016,-3.6016,-3.6016,-3.6016,-3.6539,-3.8277,-4.0029,-4.1756,-4.3408,-4.5147,-4.6313,-4.6313,-4.6313,-4.6313,-4.6313,-4.6313,-4.6313,-4.6313,-4.6313,-4.6313,-4.6313,-4.6313,-4.5937,-4.507,-4.4254,-4.3551,-4.2999,-4.2974,-4.2974,-4.2974,-4.2974,-4.3099,-4.3363,-4.3363,-4.3639,-4.4192,-4.4756,-4.5183,-3.1006,-3.1269,-3.1543,-3.1641,-3.209,-3.2549,-3.2744,-3.2393,-3.1982,-3.1846,-3.1738,-3.1797,-3.2236,-3.2822,-3.3711,-3.5156,-3.5478,-3.5654,-3.5976,-3.6016,-3.6016,-3.6016,-3.6016,-3.6016,-3.6016,-3.6016,-3.6016,-3.6016,-3.5928,-3.585,-3.585,-3.5481,-3.5234,-3.5273,-3.4795,-3.4545,-3.4575,-3.4127,-3.3466,-3.2533,-3.2032,-3.0403,-2.7975,-2.7067,-2.6306,-2.5838,-2.879,-3.0115,-3.0513,-3.4167,-3.5517,-3.5234,-3.5234,-3.5234,-3.5185,-3.4834,-3.4639,-3.4512,-3.4189,-3.4004,-3.3867,-3.3525,-3.3418,-3.3418,-3.3418,-3.3418,-3.3418,-3.3418,-3.374,-3.417,-3.459,-3.5049,-3.5498,-3.5918,-3.6016,-3.6016,-3.6016,-3.6016,-3.6413,-3.7698,-3.9376,-4.1117,-4.2832,-4.4571,-4.5853,-4.624,-4.6313,-4.6313,-4.6313,-4.6313,-4.6313,-4.6313,-4.6313,-4.6313,-4.6313,-4.6075,-4.5547,-4.4681,-4.3978,-4.3426,-4.2999,-4.2974,-4.2974,-4.2974,-4.2974,-4.2974,-4.2974,-4.2974,-4.3263,-4.3815,-4.4367,-4.4932,-3.1367,-3.1494,-3.1611,-3.2021,-3.1865,-3.1816,-3.2617,-3.2158,-3.1777,-3.2549,-3.2393,-3.2256,-3.2666,-3.374,-3.4746,-3.5303,-3.5723,-3.5986,-3.6016,-3.6016,-3.6016,-3.6016,-3.6016,-3.6016,-3.6016,-3.6016,-3.6016,-3.6016,-3.5665,-3.5471,-3.5471,-3.5025,-3.4775,-3.4762,-3.4359,-3.4142,-3.4156,-3.3652,-3.3793,-3.4491,-3.228,-3.1371,-3.1419,-2.797,-2.7293,-2.8899,-2.9174,-3.0259,-3.2101,-3.4031,-3.4775,-3.4746,-3.4746,-3.4746,-3.4746,-3.4707,-3.4453,-3.4111,-3.4082,-3.3809,-3.3457,-3.3428,-3.3418,-3.3418,-3.3418,-3.3418,-3.3418,-3.3418,-3.374,-3.417,-3.459,-3.5049,-3.5498,-3.5918,-3.6016,-3.6016,-3.6016,-3.6016,-3.6016,-3.6152,-3.7575,-3.9311,-4.1052,-4.2769,-4.4436,-4.6059,-4.6313,-4.6313,-4.6313,-4.6313,-4.6313,-4.6313,-4.6313,-4.6313,-4.6313,-4.5347,-4.4706,-4.4631,-4.3627,-4.3024,-4.2974,-4.2974,-4.2974,-4.2974,-4.2974,-4.2974,-4.2974,-4.2974,-4.3263,-4.3815,-4.4367,-4.4932,-3.0732,-3.1103,-3.1494,-3.1396,-3.165,-3.2139,-3.2988,-3.293,-3.2871,-3.3467,-3.3252,-3.2998,-3.3154,-3.3799,-3.4551,-3.5273,-3.5527,-3.5723,-3.5986,-3.6016,-3.6016,-3.6016,-3.6016,-3.6016,-3.6016,-3.6016,-3.5928,-3.5665,-3.5481,-3.5277,-3.4991,-3.4573,-3.4354,-3.4306,-3.3924,-3.3672,-3.3662,-3.3506,-3.3584,-3.3896,-3.3008,-3.2162,-3.142,-2.9992,-2.8682,-2.7516,-2.8688,-2.9453,-3.0077,-3.2214,-3.3595,-3.4316,-3.4316,-3.415,-3.3906,-3.3906,-3.3809,-3.3672,-3.3672,-3.3555,-3.3418,-3.3418,-3.3418,-3.3418,-3.3418,-3.3418,-3.3418,-3.3418,-3.374,-3.4111,-3.4267,-3.4844,-3.543,-3.5596,-3.5635,-3.5703,-3.5967,-3.581,-3.5703,-3.5967,-3.7384,-3.9125,-4.0924,-4.258,-4.43,-4.6047,-4.6313,-4.6313,-4.6313,-4.6313,-4.6313,-4.6313,-4.6313,-4.6175,-4.5824,-4.507,-4.448,-4.4129,-4.3401,-4.2974,-4.2974,-4.2974,-4.2974,-4.2974,-4.2974,-4.2974,-4.2974,-4.2974,-4.3438,-4.4317,-4.4531,-4.5121,-3.0322,-3.0752,-3.1279,-3.1133,-3.1533,-3.2256,-3.3369,-3.3525,-3.3584,-3.415,-3.3926,-3.3672,-3.3799,-3.4072,-3.4521,-3.5273,-3.5508,-3.5693,-3.5976,-3.6016,-3.6016,-3.6016,-3.6016,-3.6016,-3.6016,-3.586,-3.5675,-3.5403,-3.5162,-3.4858,-3.4512,-3.411,-3.3861,-3.3861,-3.3593,-3.3418,-3.3418,-3.3418,-3.3418,-3.3418,-3.3418,-3.258,-3.1064,-3.1064,-2.9602,-2.7068,-2.8356,-2.8758,-2.8618,-3.0223,-3.1711,-3.3123,-3.3665,-3.3682,-3.3418,-3.3418,-3.3418,-3.3418,-3.3418,-3.3418,-3.3418,-3.3418,-3.3418,-3.3418,-3.3418,-3.3418,-3.3418,-3.3418,-3.374,-3.4043,-3.3906,-3.4521,-3.5176,-3.5176,-3.5176,-3.5293,-3.5732,-3.5596,-3.5517,-3.5937,-3.6991,-3.8542,-4.0795,-4.2138,-4.3669,-4.5987,-4.6313,-4.6313,-4.6313,-4.6313,-4.625,-4.6075,-4.605,-4.5824,-4.5259,-4.4694,-4.4204,-4.3827,-4.3288,-4.2974,-4.2974,-4.2974,-4.2974,-4.2974,-4.2974,-4.2974,-4.2974,-4.2974,-4.3539,-4.4618,-4.4618,-4.5234,-3.0312,-3.0537,-3.0986,-3.1406,-3.1514,-3.1982,-3.3682,-3.374,-3.3672,-3.4531,-3.4375,-3.4209,-3.4629,-3.4697,-3.4853,-3.5322,-3.5742,-3.6016,-3.6016,-3.6016,-3.6016,-3.6016,-3.6016,-3.6016,-3.6016,-3.5656,-3.5384,-3.5374,-3.4583,-3.41,-3.41,-3.3676,-3.3418,-3.3418,-3.3418,-3.3418,-3.3418,-3.3408,-3.3408,-3.3408,-3.3408,-3.2483,-3.0771,-3.0771,-2.9865,-2.8172,-2.8172,-2.8172,-2.8172,-2.8238,-2.9213,-3.0973,-3.2692,-3.3418,-3.3418,-3.3418,-3.3418,-3.3418,-3.3418,-3.3418,-3.3418,-3.3418,-3.3418,-3.3418,-3.3418,-3.3418,-3.3418,-3.3418,-3.373,-3.3965,-3.3535,-3.4053,-3.4687,-3.4687,-3.4687,-3.4824,-3.5283,-3.5391,-3.5508,-3.5937,-3.6016,-3.7116,-4.0602,-4.1181,-4.2391,-4.5793,-4.6301,-4.6301,-4.6313,-4.6301,-4.61,-4.5547,-4.5485,-4.5246,-4.4669,-4.4116,-4.3802,-4.379,-4.3275,-4.2974,-4.2974,-4.2974,-4.2974,-4.2974,-4.2974,-4.2974,-4.2974,-4.2974,-4.3539,-4.4618,-4.4618,-4.5234,-2.9502,-3.0078,-3.084,-3.0644,-3.1728,-3.2988,-3.3496,-3.375,-3.4131,-3.501,-3.5088,-3.4941,-3.4736,-3.4697,-3.4853,-3.5322,-3.5498,-3.5684,-3.5976,-3.5762,-3.5586,-3.5586,-3.5305,-3.5123,-3.5084,-3.4957,-3.4806,-3.454,-3.424,-3.3944,-3.3603,-3.3501,-3.3418,-3.3418,-3.3135,-3.2978,-3.2978,-3.2685,-3.2539,-3.2539,-3.2539,-3.1941,-3.0771,-3.0771,-2.9865,-2.8172,-2.8172,-2.8172,-2.8303,-2.954,-3.0319,-3.0973,-3.2692,-3.3418,-3.3418,-3.3418,-3.3418,-3.3418,-3.3418,-3.3418,-3.3418,-3.3418,-3.3418,-3.3418,-3.3418,-3.3418,-3.3418,-3.3418,-3.3516,-3.3584,-3.3457,-3.3603,-3.3877,-3.418,-3.4258,-3.4375,-3.4814,-3.4912,-3.5039,-3.5488,-3.678,-3.8542,-4.0795,-4.184,-4.3184,-4.5413,-4.5736,-4.5874,-4.6263,-4.5974,-4.5673,-4.551,-4.5121,-4.4656,-4.4091,-4.389,-4.3639,-4.325,-4.3074,-4.2974,-4.2974,-4.2974,-4.2974,-4.2974,-4.2974,-4.2974,-4.2974,-4.2974,-4.335,-4.4053,-4.4443,-4.502,-2.9795,-3.041,-3.1152,-3.1211,-3.2334,-3.3564,-3.4082,-3.4404,-3.4795,-3.5498,-3.5508,-3.5361,-3.5244,-3.4932,-3.4853,-3.5322,-3.5391,-3.542,-3.5488,-3.5439,-3.5361,-3.513,-3.485,-3.4718,-3.4697,-3.4528,-3.4381,-3.4106,-3.3934,-3.3686,-3.3428,-3.3418,-3.3354,-3.3175,-3.2923,-3.2715,-3.2549,-3.2295,-3.2229,-3.2229,-3.2229,-3.1532,-3.0311,-3.0474,-2.9725,-2.8172,-2.7445,-2.7113,-2.7238,-2.9009,-2.98,-2.9995,-3.2428,-3.3418,-3.3418,-3.3418,-3.3418,-3.3418,-3.3418,-3.3418,-3.3418,-3.3418,-3.3418,-3.3418,-3.3418,-3.3418,-3.3418,-3.3418,-3.3418,-3.3418,-3.3418,-3.3418,-3.3486,-3.375,-3.3809,-3.3935,-3.4355,-3.4453,-3.458,-3.5029,-3.6664,-3.8561,-4.027,-4.1723,-4.3132,-4.4886,-4.5146,-4.5271,-4.5598,-4.5347,-4.5058,-4.4844,-4.4505,-4.4079,-4.3526,-4.3476,-4.3325,-4.2999,-4.2974,-4.2974,-4.2974,-4.2974,-4.2974,-4.2974,-4.2974,-4.2974,-4.2974,-4.2974,-4.3263,-4.3815,-4.4367,-4.4932,-3.0654,-3.1103,-3.167,-3.2568,-3.3203,-3.3916,-3.5117,-3.542,-3.5557,-3.5937,-3.5723,-3.5557,-3.5898,-3.5303,-3.4883,-3.5264,-3.5332,-3.5185,-3.4756,-3.5029,-3.5129,-3.4669,-3.4615,-3.4561,-3.4556,-3.4271,-3.4027,-3.4027,-3.3676,-3.3418,-3.3418,-3.3359,-3.3204,-3.279,-3.2743,-3.25,-3.2119,-3.207,-3.2051,-3.2051,-3.2051,-3.1241,-2.9686,-2.987,-2.9249,-2.7842,-2.6239,-2.551,-2.5644,-2.7304,-2.804,-2.8501,-3.1845,-3.3282,-3.3418,-3.3418,-3.3418,-3.3418,-3.3418,-3.3418,-3.3418,-3.3418,-3.3418,-3.3418,-3.3418,-3.3418,-3.3418,-3.3418,-3.3418,-3.3418,-3.3418,-3.3418,-3.3418,-3.3418,-3.3418,-3.3525,-3.3926,-3.4043,-3.4189,-3.457,-3.6123,-3.7836,-3.9454,-4.1138,-4.2769,-4.4299,-4.4556,-4.4568,-4.4618,-4.4581,-4.4355,-4.3853,-4.3765,-4.3526,-4.3024,-4.2974,-4.2974,-4.2974,-4.2974,-4.2974,-4.2974,-4.2974,-4.2974,-4.2974,-4.2974,-4.2974,-4.2974,-4.2974,-4.3237,-4.374,-4.4342,-4.4907,-2.9824,-3.043,-3.1309,-3.25,-3.3887,-3.5049,-3.5332,-3.5644,-3.5908,-3.6006,-3.5947,-3.581,-3.5566,-3.5371,-3.5156,-3.4892,-3.4853,-3.4814,-3.4707,-3.4502,-3.4375,-3.4219,-3.392,-3.3686,-3.3704,-3.3569,-3.352,-3.352,-3.3437,-3.3418,-3.3418,-3.3119,-3.2866,-3.2804,-3.2121,-3.1748,-3.166,-3.1328,-3.1162,-3.1162,-3.1162,-3.115,-3.099,-2.899,-2.736,-2.6046,-2.5644,-2.551,-2.5517,-2.5912,-2.6906,-2.8435,-3.0522,-3.2228,-3.3418,-3.3418,-3.3418,-3.3418,-3.3418,-3.3418,-3.3418,-3.3418,-3.3418,-3.3418,-3.3418,-3.3418,-3.3418,-3.3418,-3.3418,-3.3418,-3.3418,-3.3418,-3.3418,-3.3418,-3.3418,-3.3447,-3.3545,-3.3828,-3.4101,-3.4189,-3.6897,-3.9268,-3.964,-4.1757,-4.3552,-4.3921,-4.3978,-4.4129,-4.4568,-4.4242,-4.3928,-4.3815,-4.3413,-4.3112,-4.2986,-4.2974,-4.2974,-4.2974,-4.2974,-4.2974,-4.2974,-4.2974,-4.2974,-4.2974,-4.2974,-4.2974,-4.2974,-4.2974,-4.3037,-4.3175,-4.4166,-4.4694,-3.0029,-3.0684,-3.1543,-3.3037,-3.4238,-3.5059,-3.5059,-3.54,-3.5723,-3.5723,-3.5879,-3.5889,-3.5469,-3.5215,-3.4912,-3.4473,-3.4394,-3.4326,-3.4121,-3.4082,-3.4014,-3.3803,-3.353,-3.3418,-3.3418,-3.3418,-3.3418,-3.3418,-3.3253,-3.3076,-3.3082,-3.2741,-3.2432,-3.2176,-3.176,-3.1426,-3.1221,-3.0996,-3.0889,-3.0889,-3.0889,-3.0682,-3.0167,-2.8197,-2.6955,-2.6155,-2.4525,-2.4333,-2.5046,-2.5046,-2.6183,-2.8168,-2.9915,-3.1731,-3.3418,-3.3418,-3.3418,-3.3418,-3.3418,-3.3418,-3.3418,-3.3418,-3.3418,-3.3418,-3.3418,-3.3418,-3.3418,-3.3418,-3.3418,-3.3418,-3.3418,-3.3418,-3.3418,-3.3418,-3.3418,-3.3418,-3.3418,-3.3603,-3.4005,-3.4788,-3.7117,-3.9239,-4.0022,-4.1968,-4.3413,-4.3413,-4.3413,-4.3514,-4.3802,-4.3589,-4.3413,-4.3413,-4.315,-4.2974,-4.2974,-4.2974,-4.2974,-4.2974,-4.2974,-4.2974,-4.2974,-4.2974,-4.2974,-4.2974,-4.2974,-4.2974,-4.2974,-4.2974,-4.2974,-4.2999,-4.384,-4.4229,-3.0342,-3.1191,-3.21,-3.3584,-3.4336,-3.4678,-3.4609,-3.4941,-3.5254,-3.5185,-3.5498,-3.5684,-3.5342,-3.4902,-3.4453,-3.4033,-3.3965,-3.3838,-3.3476,-3.373,-3.3828,-3.3467,-3.3418,-3.3418,-3.3418,-3.3418,-3.3355,-3.3272,-3.299,-3.2787,-3.2702,-3.2286,-3.1888,-3.1495,-3.1427,-3.124,-3.0898,-3.0889,-3.0889,-3.0889,-3.0587,-2.9896,-2.874,-2.7198,-2.6532,-2.6455,-2.3652,-2.3072,-2.415,-2.4473,-2.5788,-2.7785,-2.958,-3.1458,-3.3203,-3.3203,-3.3203,-3.3213,-3.3291,-3.331,-3.333,-3.3398,-3.3418,-3.3418,-3.3418,-3.3418,-3.3418,-3.3418,-3.3418,-3.3418,-3.3418,-3.3418,-3.3418,-3.3418,-3.3418,-3.3418,-3.3418,-3.3418,-3.3902,-3.5509,-3.7303,-3.9111,-4.0719,-4.2137,-4.2974,-4.2974,-4.2974,-4.2974,-4.2974,-4.2974,-4.2974,-4.2974,-4.2974,-4.2974,-4.2974,-4.2974,-4.2974,-4.2974,-4.2974,-4.2974,-4.2974,-4.2974,-4.2974,-4.2974,-4.2974,-4.2974,-4.2974,-4.2974,-4.2974,-4.2986,-4.3539,-4.3802,-2.959,-3.1152,-3.2764,-3.3359,-3.4111,-3.46,-3.4238,-3.4482,-3.4687,-3.4326,-3.458,-3.4863,-3.4805,-3.4443,-3.4014,-3.3584,-3.3506,-3.3486,-3.3428,-3.3467,-3.3486,-3.3428,-3.3418,-3.3418,-3.3418,-3.3418,-3.3262,-3.2922,-3.2803,-3.2638,-3.2317,-3.1857,-3.1564,-3.1505,-3.1143,-3.0947,-3.0889,-3.0889,-3.0889,-3.0889,-2.9403,-2.8632,-2.8379,-2.5389,-2.4323,-2.4732,-2.4287,-2.3392,-2.2431,-2.3833,-2.552,-2.7355,-2.8985,-3.0736,-3.2334,-3.2334,-3.2334,-3.2393,-3.2754,-3.2881,-3.2939,-3.3301,-3.3418,-3.3418,-3.3418,-3.3418,-3.3418,-3.3418,-3.3418,-3.3418,-3.3418,-3.3418,-3.3418,-3.3418,-3.3418,-3.3418,-3.3418,-3.3418,-3.3902,-3.5509,-3.8201,-4.0777,-4.2375,-4.2862,-4.2974,-4.2974,-4.2974,-4.2974,-4.2974,-4.2974,-4.2974,-4.2974,-4.2974,-4.2974,-4.2974,-4.2974,-4.2974,-4.2974,-4.2974,-4.2974,-4.2974,-4.2974,-4.2974,-4.2974,-4.2974,-4.2974,-4.2974,-4.2974,-4.2974,-4.2986,-4.3539,-4.3802,-2.9678,-3.081,-3.1943,-3.2842,-3.3525,-3.3935,-3.375,-3.4043,-3.4297,-3.4111,-3.4023,-3.4053,-3.4307,-3.4199,-3.3935,-3.3496,-3.3418,-3.3418,-3.3418,-3.3418,-3.3418,-3.3418,-3.3418,-3.3418,-3.3418,-3.3418,-3.3201,-3.2813,-3.2582,-3.2297,-3.1826,-3.1425,-3.1142,-3.1162,-3.0986,-3.0889,-3.0889,-3.0889,-3.0889,-3.0889,-2.8307,-2.7503,-2.8298,-2.5093,-2.3731,-2.3873,-2.2928,-2.2119,-2.1619,-2.3247,-2.5093,-2.6956,-2.8641,-3.0489,-3.2229,-3.2229,-3.2229,-3.2258,-3.2383,-3.2441,-3.2471,-3.2656,-3.2881,-3.3066,-3.3066,-3.3232,-3.3418,-3.3418,-3.3418,-3.3418,-3.3418,-3.3418,-3.3418,-3.3418,-3.3418,-3.3418,-3.3418,-3.3418,-3.4143,-3.666,-3.9756,-4.2137,-4.2862,-4.2974,-4.2974,-4.2974,-4.2974,-4.2974,-4.2974,-4.2974,-4.2974,-4.2974,-4.2974,-4.2974,-4.2974,-4.2974,-4.2974,-4.2974,-4.2974,-4.2974,-4.2974,-4.2974,-4.2974,-4.2974,-4.2974,-4.2974,-4.2974,-4.2974,-4.2974,-4.2986,-4.3225,-4.3338,-2.956,-3.0283,-3.0976,-3.2041,-3.2793,-3.3262,-3.3262,-3.3594,-3.3906,-3.3906,-3.3643,-3.3525,-3.3848,-3.3906,-3.3799,-3.3476,-3.3418,-3.3418,-3.3418,-3.3418,-3.3418,-3.3418,-3.3418,-3.3418,-3.3418,-3.3315,-3.3075,-3.2661,-3.227,-3.1826,-3.1357,-3.1044,-3.0889,-3.0889,-3.0889,-3.0889,-3.0889,-3.0889,-3.0889,-3.083,-2.7572,-2.6651,-2.7683,-2.4417,-2.2959,-2.2897,-2.2097,-2.1481,-2.1229,-2.2897,-2.4742,-2.6619,-2.8244,-3.0116,-3.1846,-3.1846,-3.1846,-3.1855,-3.1973,-3.2002,-3.2021,-3.2129,-3.2383,-3.2637,-3.2637,-3.2851,-3.3125,-3.3232,-3.3262,-3.3281,-3.3389,-3.3418,-3.3418,-3.3418,-3.3418,-3.3544,-3.3892,-3.432,-3.5468,-3.8272,-4.1076,-4.2974,-4.2974,-4.2974,-4.2974,-4.2974,-4.2974,-4.2974,-4.2974,-4.2974,-4.2974,-4.2974,-4.2974,-4.2974,-4.2974,-4.2974,-4.2974,-4.2974,-4.2974,-4.2974,-4.2974,-4.2974,-4.2974,-4.2974,-4.2974,-4.2974,-4.2974,-4.2974,-4.2974,-4.2974,-4.2974,-4.2974,-2.875,-2.96,-3.0351,-3.0859,-3.1914,-3.2832,-3.2832,-3.3154,-3.3457,-3.3457,-3.3437,-3.3428,-3.3447,-3.3457,-3.3447,-3.3428,-3.3418,-3.3418,-3.3418,-3.3418,-3.3418,-3.3418,-3.3418,-3.3418,-3.3418,-3.304,-3.267,-3.226,-3.1811,-3.1357,-3.0967,-3.0898,-3.0889,-3.0889,-3.0889,-3.0889,-3.0889,-3.0889,-3.0889,-3.083,-2.7572,-2.6037,-2.5976,-2.2757,-2.1229,-2.1292,-2.2834,-2.2591,-2.1229,-2.2897,-2.4548,-2.6183,-2.7838,-2.945,-3.0957,-3.0957,-3.0957,-3.1016,-3.1406,-3.1553,-3.1621,-3.2031,-3.2187,-3.2207,-3.2207,-3.2278,-3.2314,-3.2715,-3.2832,-3.292,-3.332,-3.3418,-3.3418,-3.3418,-3.3418,-3.3839,-3.5324,-3.6892,-3.8461,-4.0175,-4.1842,-4.2974,-4.2974,-4.2974,-4.2974,-4.2974,-4.2974,-4.2974,-4.2974,-4.2974,-4.2974,-4.2974,-4.2974,-4.2974,-4.2974,-4.2974,-4.2974,-4.2974,-4.2974,-4.2974,-4.2974,-4.2974,-4.2974,-4.2974,-4.2974,-4.2974,-4.2974,-4.2974,-4.2974,-4.2974,-4.2974,-4.2974,-2.8281,-2.874,-2.9209,-3.0195,-3.1016,-3.1719,-3.2266,-3.2715,-3.3096,-3.3369,-3.3418,-3.3418,-3.3418,-3.3418,-3.3418,-3.3418,-3.3418,-3.3418,-3.3418,-3.3418,-3.3418,-3.3418,-3.3418,-3.3418,-3.3418,-3.3246,-3.291,-3.2243,-3.2058,-3.1653,-3.0918,-3.0889,-3.0889,-3.0889,-3.0889,-3.0889,-3.0889,-3.0889,-3.0889,-3.083,-2.7572,-2.5976,-2.5915,-2.2577,-2.1109,-2.1109,-2.1727,-2.1664,-2.1229,-2.2897,-2.454,-2.6158,-2.7751,-2.9403,-3.0889,-3.0889,-3.0889,-3.0918,-3.1064,-3.1113,-3.1143,-3.1299,-3.1533,-3.1748,-3.1748,-3.1943,-3.2256,-3.2676,-3.2793,-3.2891,-3.331,-3.3418,-3.3418,-3.3418,-3.3418,-3.4143,-3.6781,-3.7794,-3.8698,-4.0303,-4.1899,-4.2974,-4.2974,-4.2974,-4.2974,-4.2974,-4.2974,-4.2974,-4.2974,-4.2974,-4.2974,-4.2974,-4.2974,-4.2974,-4.2974,-4.2974,-4.2974,-4.2974,-4.2974,-4.2974,-4.2974,-4.2974,-4.2974,-4.2974,-4.2974,-4.2974,-4.2974,-4.2974,-4.2974,-4.2974,-4.2974,-4.2974,-2.7676,-2.8076,-2.8525,-2.9521,-3.0215,-3.0889,-3.1758,-3.2168,-3.249,-3.291,-3.3115,-3.3213,-3.3213,-3.333,-3.3418,-3.3418,-3.3418,-3.3418,-3.3418,-3.3418,-3.3418,-3.3418,-3.3418,-3.3418,-3.3418,-3.3301,-3.2914,-3.2243,-3.2047,-3.1653,-3.0918,-3.0889,-3.0889,-3.0889,-3.0889,-3.0889,-3.0889,-3.0732,-3.0664,-3.0596,-2.7311,-2.5737,-2.5509,-2.2477,-2.1056,-2.0969,-2.1069,-2.1109,-2.1172,-2.2278,-2.4047,-2.6098,-2.7194,-2.8979,-3.0889,-3.0889,-3.0889,-3.0889,-3.0889,-3.0889,-3.0889,-3.0889,-3.1074,-3.1309,-3.1309,-3.1514,-3.1855,-3.2422,-3.2588,-3.2715,-3.3271,-3.3418,-3.3418,-3.3418,-3.3418,-3.4258,-3.7506,-3.8223,-3.8817,-4.1007,-4.2263,-4.2974,-4.2974,-4.2974,-4.2974,-4.2974,-4.2974,-4.2974,-4.2974,-4.2974,-4.2974,-4.2974,-4.2974,-4.2974,-4.2974,-4.2974,-4.2974,-4.2974,-4.2974,-4.2974,-4.2974,-4.2974,-4.2974,-4.2974,-4.2974,-4.2974,-4.2974,-4.2974,-4.2974,-4.2974,-4.2974,-4.2974,0.0,0.0,0.0,-2.8779,-2.9521,-3.0371,-3.126,-3.1475,-3.1611,-3.206,-3.2471,-3.2764,-3.2773,-3.3115,-3.3408,-3.3408,-3.3418,-3.3418,-3.3418,-3.3418,-3.3418,-3.3418,-3.3418,-3.3418,-3.3418,-3.3057,-3.2637,-3.2217,-3.1787,-3.1348,-3.0928,-3.0898,-3.0889,-3.0889,-3.0889,-3.0889,-3.0869,-3.042,-3.0185,-3.0062,-2.6842,-2.5115,-2.4753,-2.2215,-2.0942,-2.0688,-2.0982,-2.1109,-2.1109,-2.1172,-2.3062,-2.5976,-2.6037,-2.8059,-3.0889,-3.0889,-3.0889,-3.0889,-3.0889,-3.0889,-3.0889,-3.0889,-3.0889,-3.0889,-3.0889,-3.0889,-3.1074,-3.1924,-3.2229,-3.2363,-3.3203,-3.3418,-3.3418,-3.3418,-3.3418,-3.432,-3.7506,-3.8223,-3.9229,-4.2375,-4.2974,-4.2974,-4.2974,-4.2974,-4.2974,-4.2974,-4.2974,-4.2974,-4.2974,-4.2974,-4.2974,-4.2974,-4.2974,-4.2974,-4.2974,-4.2974,-4.2974,-4.2974,-4.2974,-4.2974,-4.2974,-4.2974,-4.2974,-4.2974,-4.2974,-4.2974,-4.2974,-4.2974,-4.2974,-4.2974,-4.2974,-4.2974,-2.6445,0.0,0.0,0.0,0.0,0.0,-2.9912,-3.0342,-3.0781,-3.1543,-3.1787,-3.1963,-3.2285,-3.2685,-3.2969,-3.2969,-3.3223,-3.3418,-3.3418,-3.3418,-3.3418,-3.3418,-3.3418,-3.3418,-3.3418,-3.332,-3.3076,-3.2656,-3.2226,-3.1797,-3.1367,-3.1055,-3.0889,-3.0889,-3.0889,-3.0732,-3.0391,-3.0264,-2.9508,-2.8103,-2.5985,-2.4416,-2.324,-2.1586,-2.0755,-2.0688,-2.0982,-2.1109,-2.1172,-2.2404,-2.4108,-2.6106,-2.7254,-2.9039,-3.0889,-3.0889,-3.0889,-3.0889,-3.0889,-3.0889,-3.0889,-3.0889,-3.0889,-3.0889,-3.0889,-3.0889,-3.1074,-3.1924,-3.2229,-3.2363,-3.3203,-3.3418,-3.3418,-3.3418,-3.432,-3.5694,-3.7746,-3.9111,-4.0534,-4.2613,-4.2974,-4.2974,-4.2974,-4.2974,-4.2974,-4.2974,-4.2974,-4.2974,-4.2974,-4.2974,-4.2974,-4.2974,-4.2974,-4.2974,-4.2974,-4.2974,-4.2974,-4.2974,-4.2974,-4.2974,-4.2974,-4.2974,-4.2974,-4.2974,-4.2974,-4.2974,-4.2974,-4.2974,-4.2974,-4.2974,-4.2974,-4.2974,-2.6318,-2.6387,-2.6553,-2.7226,0.0,0.0,-2.9062,-2.9355,-2.9648,-3.0527,-3.085,-3.1103,-3.1553,-3.1982,-3.2324,-3.25,-3.2891,-3.3223,-3.3398,-3.3418,-3.3418,-3.3418,-3.3418,-3.3418,-3.3418,-3.3418,-3.3242,-3.2832,-3.2412,-3.1904,-3.1289,-3.1025,-3.0801,-3.0605,-3.0605,-3.0391,-2.9941,-2.9756,-2.8784,-2.7058,-2.5437,-2.3797,-2.2191,-2.1008,-2.0428,-2.0327,-2.0615,-2.0815,-2.111,-2.3411,-2.5003,-2.6158,-2.7751,-2.9403,-3.0889,-3.0889,-3.0889,-3.0889,-3.0889,-3.0889,-3.0889,-3.0889,-3.0889,-3.0889,-3.0889,-3.0889,-3.1074,-3.1924,-3.2422,-3.2803,-3.3301,-3.3418,-3.3597,-3.4258,-3.515,-3.6353,-3.8426,-3.9615,-4.0812,-4.2631,-4.2974,-4.2974,-4.2974,-4.2974,-4.2974,-4.2974,-4.2974,-4.2974,-4.2974,-4.2974,-4.2974,-4.2974,-4.2974,-4.2974,-4.2974,-4.2974,-4.2974,-4.2974,-4.2974,-4.2974,-4.2974,-4.2974,-4.2974,-4.2974,-4.2974,-4.2974,-4.2974,-4.2974,-4.2974,-4.2974,-4.2974,-4.2974,-2.6387,-2.6357,-2.6416,-2.6836,-2.6982,0.0,-2.8516,-2.8525,-2.8525,-2.9326,-2.9795,-3.0195,-3.0664,-3.1084,-3.1494,-3.1885,-3.2353,-3.2842,-3.3277,-3.3355,-3.3418,-3.3418,-3.3418,-3.3418,-3.3418,-3.3418,-3.3271,-3.2891,-3.2432,-3.1797,-3.0937,-3.0889,-3.0674,-3.0215,-3.0195,-2.9971,-2.9502,-2.9111,-2.8045,-2.6363,-2.4941,-2.3236,-2.1331,-2.0502,-2.0047,-1.9813,-2.0281,-2.0618,-2.117,-2.4408,-2.5826,-2.6158,-2.7991,-2.9589,-3.0889,-3.0889,-3.0889,-3.0889,-3.0889,-3.0889,-3.0889,-3.0889,-3.0889,-3.0889,-3.0889,-3.0889,-3.1055,-3.1875,-3.2666,-3.3281,-3.3281,-3.3281,-3.3638,-3.5067,-3.5648,-3.655,-3.8953,-3.9724,-4.0523,-4.2538,-4.2886,-4.2886,-4.2886,-4.2936,-4.2974,-4.2974,-4.2974,-4.2974,-4.2974,-4.2974,-4.2974,-4.2974,-4.2974,-4.2974,-4.2974,-4.2974,-4.2974,-4.2974,-4.2974,-4.2974,-4.2974,-4.2974,-4.2974,-4.2974,-4.2974,-4.2974,-4.2974,-4.2974,-4.2974,-4.2974,-4.2974,-4.2974,-2.6387,-2.6133,-2.5967,-2.6406,-2.6768,0.0,-2.7773,-2.8105,-2.8437,-2.8935,-2.9111,-2.9307,-2.9746,-3.0166,-3.0478,-3.0566,-3.1249,-3.2024,-3.2787,-3.318,-3.3418,-3.3418,-3.3418,-3.3418,-3.3418,-3.3418,-3.3389,-3.331,-3.2598,-3.1797,-3.0937,-3.0889,-3.0674,-3.0215,-3.0195,-2.9824,-2.9053,-2.8965,-2.7381,-2.4376,-2.4041,-2.2441,-1.9822,-1.9838,-1.9853,-1.9872,-2.1398,-2.2102,-2.2415,-2.5923,-2.6806,-2.6288,-2.9285,-3.0587,-3.0889,-3.0889,-3.0889,-3.0889,-3.0889,-3.0889,-3.0889,-3.0889,-3.0889,-3.0889,-3.0889,-3.0889,-3.0996,-3.1504,-3.2012,-3.2412,-3.2412,-3.2412,-3.2525,-3.282,-3.4784,-3.6656,-3.7188,-3.9257,-4.125,-4.2208,-4.2376,-4.2376,-4.2376,-4.274,-4.2974,-4.2974,-4.2974,-4.2974,-4.2974,-4.2974,-4.2974,-4.2974,-4.2974,-4.2974,-4.2974,-4.2974,-4.2974,-4.2974,-4.2974,-4.2974,-4.2974,-4.2974,-4.2974,-4.2974,-4.2974,-4.2974,-4.2974,-4.2974,-4.2974,-4.2974,-4.2974,-4.2974,-2.6699,-2.623,-2.5791,-2.6279,-2.6543,0.0,0.0,-2.7885,-2.8096,-2.8525,-2.8603,-2.874,-2.917,-2.9414,-2.9629,-2.9844,-3.0441,-3.1003,-3.1451,-3.2461,-3.3097,-3.3097,-3.3262,-3.3418,-3.3418,-3.3418,-3.3242,-3.2832,-3.2412,-3.1797,-3.0937,-3.0674,-3.0342,-2.9902,-2.9668,-2.9258,-2.8613,-2.8603,-2.6975,-2.3822,-2.3822,-2.2266,-1.943,-1.9519,-1.9586,-1.9703,-2.1336,-2.2125,-2.2517,-2.5887,-2.6951,-2.6852,-2.9742,-3.0889,-3.0889,-3.0889,-3.0889,-3.0889,-3.0889,-3.0889,-3.0889,-3.0889,-3.0889,-3.0889,-3.0889,-3.1035,-3.125,-3.1455,-3.1836,-3.2229,-3.2229,-3.2229,-3.2401,-3.3135,-3.5077,-3.6849,-3.7389,-3.9268,-4.1015,-4.1279,-4.1555,-4.1919,-4.2527,-4.2798,-4.2974,-4.2974,-4.2974,-4.2974,-4.2974,-4.2974,-4.2974,-4.2974,-4.2974,-4.2974,-4.2974,-4.2974,-4.2974,-4.2974,-4.2974,-4.2974,-4.2974,-4.2974,-4.2974,-4.2974,-4.2974,-4.2974,-4.2974,-4.2974,-4.2974,-4.2974,-4.2974,-4.2974,-2.7139,-2.6572,-2.6015,-2.6416,-2.6572,-2.6816,0.0,0.0,0.0,-2.8223,-2.8291,-2.8369,-2.8633,-2.8682,-2.8789,-2.915,-2.9569,-2.9852,-2.9917,-3.1279,-3.2387,-3.2554,-3.2844,-3.3086,-3.3174,-3.3105,-3.2812,-3.2217,-3.2012,-3.1621,-3.0928,-3.0449,-3.0,-2.9636,-2.9141,-2.8721,-2.8301,-2.8291,-2.678,-2.3822,-2.3822,-2.2266,-1.9424,-1.9424,-1.9424,-1.9482,-2.1259,-2.2128,-2.2602,-2.5821,-2.7241,-2.7673,-2.9882,-3.0762,-3.0771,-3.0859,-3.0889,-3.0889,-3.0889,-3.0889,-3.0889,-3.0889,-3.0889,-3.0889,-3.0889,-3.1133,-3.1396,-3.1396,-3.165,-3.1924,-3.1924,-3.2145,-3.2714,-3.3945,-3.5597,-3.7085,-3.7961,-3.9369,-4.0551,-4.0651,-4.1116,-4.1781,-4.2672,-4.2898,-4.2974,-4.2974,-4.2974,-4.2974,-4.2974,-4.2974,-4.2974,-4.2974,-4.2974,-4.2974,-4.2974,-4.2974,-4.2974,-4.2974,-4.2974,-4.2974,-4.2974,-4.2974,-4.2974,-4.2974,-4.2974,-4.2974,-4.2974,-4.2974,-4.2974,-4.2974,-4.2974,-4.2974,-2.7598,-2.7236,-2.6885,-2.6934,-2.7236,-2.7601,-2.7699,0.0,-2.8232,-2.8281,0.0,-2.8193,-2.7861,0.0,0.0,-2.7924,-2.8271,-2.8638,-2.9001,-2.9876,-3.0792,-3.1544,-3.1672,-3.1885,-3.2275,-3.1963,-3.1855,-3.2209,-3.1465,-3.0996,-3.0898,-3.0449,-3.0,-2.9636,-2.9141,-2.8721,-2.8301,-2.8291,-2.678,-2.3822,-2.3822,-2.2266,-1.9424,-1.9424,-1.9424,-1.954,-2.2322,-2.3567,-2.3848,-2.7234,-2.8662,-2.8797,-2.9875,-3.0273,-3.0322,-3.0742,-3.0889,-3.0889,-3.0889,-3.0889,-3.0889,-3.0889,-3.0889,-3.0889,-3.0889,-3.0928,-3.0957,-3.0957,-3.0996,-3.1035,-3.1035,-3.2024,-3.3064,-3.3235,-3.5379,-3.7459,-3.756,-3.91,-4.0664,-4.11,-4.1693,-4.215,-4.2288,-4.2715,-4.2974,-4.2974,-4.2974,-4.2974,-4.2974,-4.2974,-4.2974,-4.2974,-4.2974,-4.2974,-4.2974,-4.2974,-4.2974,-4.2974,-4.2974,-4.2974,-4.2974,-4.2974,-4.2974,-4.2974,-4.2974,-4.2974,-4.2974,-4.2974,-4.2974,-4.2974,-4.2974,-4.2974,-2.7718,-2.7344,-2.708,-2.7334,-2.7344,-2.7353,-2.766,-2.7607,-2.7549,-2.7549,0.0,0.0,0.0,0.0,0.0,0.0,-2.7824,-2.8082,-2.85,-2.8866,-2.953,-3.0598,-3.0995,-3.1318,-3.1748,-3.1621,-3.1592,-3.1777,-3.123,-3.0889,-3.0889,-3.0215,-2.9756,-2.9636,-2.8906,-2.8467,-2.8291,-2.8291,-2.678,-2.3822,-2.3822,-2.2266,-1.9424,-1.9424,-1.9424,-1.9533,-2.2548,-2.3822,-2.4053,-2.7238,-2.8555,-2.8613,-2.9219,-2.9609,-2.9883,-3.0322,-3.0488,-3.0527,-3.0801,-3.0889,-3.0889,-3.0889,-3.0889,-3.0889,-3.0889,-3.0889,-3.0889,-3.0889,-3.0889,-3.0889,-3.0889,-3.1977,-3.3077,-3.3077,-3.5321,-3.7601,-3.7911,-3.9271,-4.0777,-4.1643,-4.2049,-4.2313,-4.2627,-4.2879,-4.2974,-4.2974,-4.2974,-4.2974,-4.2974,-4.2974,-4.2974,-4.2974,-4.2974,-4.2974,-4.2974,-4.2974,-4.2974,-4.2974,-4.2974,-4.2974,-4.2974,-4.2974,-4.2974,-4.2974,-4.2974,-4.2974,-4.2974,-4.2974,-4.2974,-4.2974,-4.2974,-4.2974,-2.7803,-2.7607,-2.7441,-2.7764,-2.7519,-2.7275,-2.7598,-2.7422,-2.7197,-2.7197,-2.7285,0.0,0.0,0.0,-2.732,-2.7658,0.0,-2.7824,-2.811,-2.8129,-2.855,-2.9731,-3.0272,-3.0693,-3.1113,-3.0937,-3.0898,-3.1143,-3.0654,-3.04,-3.0527,-2.9805,-2.9394,-2.9394,-2.8672,-2.8291,-2.8291,-2.8291,-2.7006,-2.4433,-2.3989,-2.2492,-1.9982,-1.9982,-1.9982,-2.0148,-2.3159,-2.4433,-2.4654,-2.7232,-2.8291,-2.832,-2.8633,-2.8945,-2.9287,-2.9824,-3.0098,-3.0244,-3.0586,-3.0781,-3.0889,-3.0889,-3.0889,-3.0889,-3.0889,-3.0889,-3.0889,-3.0889,-3.0889,-3.0889,-3.0889,-3.1977,-3.318,-3.3631,-3.5763,-3.7947,-3.8731,-4.0009,-4.1204,-4.2049,-4.2338,-4.2564,-4.2911,-4.2974,-4.2974,-4.2974,-4.2974,-4.2974,-4.2974,-4.2974,-4.2974,-4.2974,-4.2974,-4.2974,-4.2974,-4.2974,-4.2974,-4.2974,-4.2974,-4.2974,-4.2974,-4.2974,-4.2974,-4.2974,-4.2974,-4.2974,-4.2974,-4.2974,-4.2974,-4.2974,-4.2974,-4.2974,-2.8164,-2.8262,-2.8252,-2.8271,-2.7959,-2.7699,-2.7718,-2.7708,-2.7699,-2.7699,-2.7969,-2.8125,-2.7777,-2.7653,-2.7688,-2.7698,-2.7705,0.0,0.0,-2.7727,-2.8039,-2.8838,-2.9346,-2.9775,-3.0195,-2.9492,-2.9346,-3.0176,-2.9463,-2.917,-2.959,-2.918,-2.8945,-2.8945,-2.8525,-2.8291,-2.8291,-2.8291,-2.7501,-2.5982,-2.4488,-2.2983,-2.1529,-2.1529,-2.1529,-2.1699,-2.471,-2.6045,-2.6155,-2.7672,-2.8291,-2.8291,-2.831,-2.832,-2.8437,-2.9277,-2.9853,-3.0195,-3.0215,-3.0518,-3.0889,-3.0889,-3.0889,-3.0889,-3.0889,-3.0889,-3.0889,-3.0889,-3.0889,-3.0889,-3.0889,-3.1977,-3.3462,-3.4902,-3.6804,-3.8671,-4.0118,-4.1342,-4.2162,-4.22,-4.264,-4.2949,-4.2974,-4.2974,-4.2974,-4.2974,-4.2974,-4.2974,-4.2974,-4.2974,-4.2974,-4.2974,-4.2974,-4.2974,-4.2974,-4.2974,-4.2974,-4.2974,-4.2974,-4.2974,-4.2974,-4.2974,-4.2974,-4.2974,-4.2974,-4.2974,-4.2974,-4.2974,-4.2974,-4.2974,-4.2974,-4.2974,-2.7764,-2.7881,-2.7949,-2.8223,-2.7978,-2.764,-2.7305,-2.7236,-2.7158,-2.6875,-2.7158,-2.7405,-2.7265,-2.7227,-2.7327,-2.7667,-2.7705,-2.7799,0.0,-2.7888,-2.7777,-2.8047,-2.8711,-2.9199,-2.9336,-2.9092,-2.916,-2.9736,-2.9248,-2.9111,-2.9541,-2.915,-2.8916,-2.8916,-2.8506,-2.8291,-2.8291,-2.8018,-2.7146,-2.5649,-2.5101,-2.4069,-2.2656,-2.2935,-2.3039,-2.3151,-2.5206,-2.61,-2.6209,-2.7672,-2.8291,-2.8291,-2.8291,-2.8291,-2.8359,-2.8935,-2.9228,-2.9434,-3.0,-3.0508,-3.0889,-3.0889,-3.0889,-3.0889,-3.0889,-3.0889,-3.0889,-3.0889,-3.0889,-3.1112,-3.2092,-3.3473,-3.4958,-3.6433,-3.8005,-3.956,-4.0783,-4.1354,-4.1831,-4.2559,-4.2904,-4.2974,-4.2974,-4.2974,-4.2974,-4.2974,-4.2974,-4.2974,-4.2974,-4.2974,-4.2974,-4.2974,-4.2974,-4.2974,-4.2974,-4.2974,-4.2974,-4.2974,-4.2974,-4.2974,-4.2974,-4.2974,-4.2974,-4.2974,-4.2974,-4.2974,-4.2974,-4.2974,-4.2974,-4.2974,-4.2974,-4.2974,-2.7314,-2.7432,-2.7539,-2.7959,-2.7637,-2.7217,-2.7246,-2.7129,-2.6982,-2.6865,-2.7178,-2.7474,-2.7481,-2.7452,-2.7582,-2.786,-2.7904,-2.7898,0.0,-2.7471,-2.7268,-2.7268,-2.7959,-2.8535,-2.8682,-2.8701,-2.8818,-2.9092,-2.8857,-2.8818,-2.9101,-2.8848,-2.8701,-2.8701,-2.8437,-2.8223,-2.8066,-2.7855,-2.7141,-2.5946,-2.5454,-2.4704,-2.3804,-2.4042,-2.4221,-2.4458,-2.6,-2.6749,-2.6943,-2.7897,-2.8291,-2.8291,-2.8291,-2.8291,-2.833,-2.8594,-2.8887,-2.9248,-2.9951,-3.0508,-3.0889,-3.0889,-3.0889,-3.0889,-3.0889,-3.0889,-3.0889,-3.0889,-3.0889,-3.1218,-3.269,-3.38,-3.5002,-3.7026,-3.8388,-3.956,-4.073,-4.1354,-4.1844,-4.2547,-4.2848,-4.2974,-4.2974,-4.2974,-4.2974,-4.2974,-4.2974,-4.2974,-4.2974,-4.2974,-4.2974,-4.2974,-4.2974,-4.2974,-4.2974,-4.2974,-4.2974,-4.2974,-4.2974,-4.2974,-4.2974,-4.2974,-4.2974,-4.2974,-4.2974,-4.2974,-4.2974,-4.2974,-4.2974,-4.2974,-4.2974,-4.2974]}]]